     2              OBSERVATION DATA    GPS                 RINEX VERSION / TYPE
ASRINEXO V2.2.0 UX USGS 04-FEB-94 13:56                     PGM / RUN BY / DATE
                                                            COMMENT
Original Marker Name: PEAR                                  COMMENT
Campaign Name: USGS-San Gabriel                             COMMENT
4-Character Station Name: PEAR                              COMMENT
6-Character Antenna Code: ASHL12                            COMMENT
Vertical Measurement Point: BBE                             COMMENT
Vertical Offset to Rinex Ref. Point: 0.0595                 COMMENT
Radial Measurement Point: EGP                               COMMENT
Radial Offset to Rinex Ref. Point: 0.1424                   COMMENT
Antenna Height from Field Measurement: 1.5260 m             COMMENT
Additional Antenna Identification Info.:                    COMMENT
Original Ashtech L1/L2                                      COMMENT
Original XYZ: -2464075.2900 -4649434.0100 3593911.0400      COMMENT
New XYZ position is based on association with SCEC monument COMMENT
E1F2D3B2+0011. Position of that monument is believed to be  COMMENT
valid to within 1 m horizontally; vertical accuracy         COMMENT
should be no worse than 3-times this value.                 COMMENT
                                                            COMMENT
Revised Rinex header created by UCSD GPS archive for        COMMENT
GSAC on 11-Nov-1999 (1999:315) 02:51:58 GMT                 COMMENT
For assistance contact dagnew@ucsd.edu or hjohnson@ucsd.edu COMMENT
                                                            COMMENT
PEAR                                                        MARKER NAME
                                                            MARKER NUMBER
KWC US GEOLOGICAL SURVEY                                    OBSERVER / AGENCY
764 ASHTECH L-XII 6A                                        REC # / TYPE / VERS
598 ASHTECH GEODETIC L                                      ANT # / TYPE
 -2464071.0000 -4649425.0000  3593906.0000                  APPROX POSITION XYZ
        1.4598        0.0000        0.0000                  ANTENNA: DELTA H/E/N
     1     2     0                                          WAVELENGTH FACT L1/2
     3    C1    L1    L2                                    # / TYPES OF OBSERV
    30                                                      INTERVAL
  1991    11     5    14    17   30.000000                  TIME OF FIRST OBS
  1991    11     5    21    40   30.000000                  TIME OF LAST OBS
                                                            END OF HEADER
 91 11  5 14 17 30.0000000  0  5 16 12 13 20 24
  24020531.930    -1590609.230 5  -1239435.968 1
  21445151.928      970034.541 8    755871.634 8
  23315286.964     1408512.905 6   1097542.207 3
  22516417.409    -1586180.625 7  -1235984.953 7
  20604447.840      452068.296 8    352261.151 9
 91 11  5 14 18  0.0000000  0  5 16 12 13 20 24
  24003951.911    -1677733.291 5  -1307324.879 3
  21456214.275     1028171.278 8    801172.919 7
  23329632.334     1483898.744 6   1156284.256 2
  22501108.211    -1666635.136 7  -1298676.821 5
  20610157.682      482080.147 8    375646.963 9
 91 11  5 14 18 30.0000000  0  5 16 12 13 20 24
  23987396.470    -1764750.697 5  -1375130.667 5
  21467398.931     1086935.691 8    846963.313 7
  23343985.496     1559336.112 6   1215066.467 1
  22485845.474    -1746827.816 7  -1361164.667 6
  20615973.055      512637.763 8    399458.056 9
 91 11  5 14 19  0.0000000  0  5 16 12 13 20 24
  23970861.115    -1851636.692 6  -1442834.040 3
  21478702.903     1146347.176 8    893257.901 7
  23358354.546     1634845.021 6   1273904.352 3
  22470645.095    -1826735.239 7  -1423430.222 6
  20621896.662      543761.338 8    423710.124 9
 91 11  5 14 19 30.0000000  0  5 16 12 13 20 24
  23954360.242    -1938360.456 6  -1510411.057 3
  21490137.289     1206431.980 8    940077.150 7
  23372750.583     1710454.211 6   1332820.410 2
  22455501.378    -1906326.804 7  -1485449.666 7
  20627931.480      575477.125 8    448423.666 9
 91 11  5 14 20  0.0000000  0  5 16 12 13 20 24
  23937883.048    -2024929.574 6  -1577867.530 4
  21501692.788     1267177.966 8    987411.620 7
  23387154.106     1786152.877 6   1391806.217 4
  22440405.334    -1985610.247 7  -1547229.012 6
  20634080.221      607773.350 8    473589.514 9
 91 11  5 14 20 30.0000000  0  5 16 12 13 20 24
  23921443.329    -2111326.308 6  -1645189.667 2
  21513385.891     1328597.839 8   1035271.195 7
  23401575.926     1861955.102 6   1450872.681 3
  22425383.628    -2064568.692 7  -1608755.113 6
  20640337.188      640663.643 8    499218.266 9
 91 11  5 14 21  0.0000000  0  5 16 12 13 20 24
  23905034.191    -2197530.506 6  -1712361.791 4
  21525203.109     1390706.432 8   1083667.424 8
  23416021.722     1937877.462 6   1510032.810 2
  22410423.391    -2143182.720 7  -1670012.835 6
  20646711.980      674163.101 8    525321.676 9
 91 11  5 14 21 30.0000000  0  5 16 12 13 20 24
  23888674.813    -2283552.720 6  -1779392.119 3
  21537150.741     1453488.704 7   1132588.595 7
  23430492.106     2013906.490 6   1569276.032 2
  22395528.199    -2221462.948 7  -1731010.462 6
  20653199.185      708257.023 8    551888.314 9
 91 11  5 14 22  0.0000000  0  5 16 12 13 20 24
  23872337.622    -2369374.776 6  -1846266.443 4
  21549227.277     1516957.709 8   1182044.899 7
  23444978.675     2090056.194 5   1628613.240 2
  22380696.866    -2299392.228 7  -1791734.615 6
  20659801.214      742958.456 8    578928.339 9
 91 11  5 14 22 30.0000000  0  5 16 12 13 20 24
  23856051.395    -2454969.206 6  -1912963.403 3
  21561439.926     1581135.637 7   1232053.611 7
  23459502.125     2166350.521 5   1688063.235 1
  22365939.278    -2376943.611 7  -1852164.304 6
  20666526.763      778290.790 8    606459.972 9
 91 11  5 14 23  0.0000000  0  5 16 12 13 20 24
  23839801.447    -2540359.341 5  -1979501.199 2
  21573784.480     1645993.876 8   1282592.420 6
  23474039.063     2242763.182 5   1747605.366 3
  22351252.154    -2454141.136 7  -1912318.262 6
  20673366.524      814225.704 8    634461.142 9
 91 11  5 14 23 30.0000000  0  5 16 12 13 20 24
  23823595.569    -2625526.779 6  -2045865.464 4
  21586257.049     1711545.585 8   1333671.589 7
  23488609.271     2319309.032 5   1807251.735 2
  22336633.068    -2530966.986 7  -1972182.604 7
  20680319.616      850776.585 8    662942.286 9
 91 11  5 14 24  0.0000000  0  5 16 12 13 20 24
  23807442.452    -2710388.362 5  -2111991.407 3
  21598879.507     1777869.336 8   1385352.363 7
  23503215.461     2396068.293 5   1867063.945 2
  22322097.037    -2607338.255 7  -2031692.722 6
  20687408.505      888022.922 8    691965.356 9
 91 11  5 14 24 30.0000000  0  5 16 12 13 20 24
  23791366.684    -2794896.386 5  -2177841.827 2
  21611653.660     1845007.356 7   1437667.626 7
  23517875.616     2473084.999 5   1927076.762 2
  22307658.727    -2683208.413 7  -2090812.367 7
  20694634.701      926007.549 8    721563.707 9
 91 11  5 14 25  0.0000000  0  5 16 12 13 20 24
  23775329.881    -2879182.683 5  -2243519.492 3
  21624561.525     1912822.138 8   1490510.238 7
  23532554.050     2550223.477 6   1987184.459 2
  22293292.076    -2758709.711 7  -2149644.600 6
  20701976.619      964592.914 8    751630.168 9
 91 11  5 14 25 30.0000000  0  5 16 12 13 20 24
  23759329.061    -2963242.632 5  -2309020.754 3
  21637595.005     1981313.368 7   1543879.941 7
  23547255.570     2627485.523 6   2047388.920 2
  22278996.474    -2833838.251 7  -2208186.364 7
  20709438.454     1003779.196 8    782164.863 9
 91 11  5 14 26  0.0000000  0  5 16 12 13 20 24
  23743366.012    -3047065.498 5  -2374337.286 3
  21650757.390     2050486.804 7   1597781.245 6
  23561973.284     2704878.575 5   2107695.036 2
  22264774.913    -2908583.551 7  -2266429.500 7
  20717007.913     1043573.311 8    813173.199 9
 91 11  5 14 26 30.0000000  0  5 16 12 13 20 24
  23727472.816    -3130664.186 5  -2439479.139 3
  21664046.892     2120324.515 7   1652200.169 7
  23576727.871     2782386.076 5   2168090.253 2
  22250621.416    -2982959.214 7  -2324384.606 7
  20724691.899     1083957.445 8    844641.310 9
 91 11  5 14 27  0.0000000  0  5 16 12 13 20 24
  23711601.503    -3214034.612 5  -2504443.110 3
  21677463.204     2190825.009 7   1707135.536 6
  23591507.935     2860009.371 6   2228575.749 2
  22236532.067    -3056961.870 7  -2382049.063 7
  20732488.002     1124930.604 8    876568.388 9
 91 11  5 14 27 30.0000000  0  5 16 12 13 20 24
  23695788.944    -3297176.250 6  -2569228.815 4
  21691002.732     2261982.808 8   1762583.083 7
  23606296.401     2937744.869 5   2289149.103 2
  22222526.967    -3130591.865 7  -2439423.145 6
  20740396.824     1166487.904 8    908950.630 9
 91 11  5 14 28  0.0000000  0  5 16 12 13 20 24
  23680006.671    -3380090.348 6  -2633837.199 3
  21704668.172     2333791.905 7   1818538.140 7
  23621112.744     3015588.253 5   2349806.082 2
  22208584.819    -3203850.537 7  -2496507.876 7
  20748413.873     1208624.002 8    941783.882 9
 91 11  5 14 28 30.0000000  0  5 16 12 13 20 24
  23664270.867    -3462780.415 6  -2698271.019 3
  21718453.530     2406243.740 7   1874994.040 7
  23635939.583     3093532.740 5   2410542.277 2
  22194712.821    -3276741.478 7  -2553306.056 6
  20756542.743     1251331.264 8    975062.213 9
 91 11  5 14 29  0.0000000  0  5 16 12 13 20 24
  23648586.323    -3545224.407 6  -2762513.086 5
  21732366.292     2479354.989 7   1931963.752 7
  23650791.900     3171597.664 5   2471371.861
  22180919.366    -3349243.378 7  -2609801.104 7
  20764782.238     1294626.428 8   1008798.654 9
 91 11  5 14 29 30.0000000  0  5 16 12 13 20 24
  23632940.153    -3627420.265 6  -2826561.781 4
  21746403.482     2553121.056 7   1989443.728 7
  23665673.297     3249780.711 5   2532293.520 2
  22167198.766    -3421356.065 7  -2665992.854 6
  20773129.960     1338505.774 8   1042990.281 9
 91 11  5 14 30  0.0000000  0  5 16 12 13 20 24
  23617342.258    -3709382.507 6  -2890428.453 2
  21760563.575     2627522.961 7   2047419.135 6
  23680574.780     3328064.586 6   2593294.179 2
  22153543.822    -3493093.982 7  -2721892.579 6
  20781588.307     1382950.988 8   1077622.843 9
 91 11  5 14 30 30.0000000  0  5 16 12 13 20 24
  23601786.323    -3791111.471 6  -2954113.347 2
  21774842.687     2702554.969 7   2105885.562 6
  23695481.061     3406445.570 5   2654370.022 1
  22139961.122    -3564458.016 7  -2777500.974 7
  20790153.380     1427956.524 8   1112692.040 9
 91 11  5 14 31  0.0000000  0  5 16 12 13 20 24
  23586281.953    -3872604.179 6  -3017614.121 3
  21789239.326     2778214.544 7   2164840.994 7
  23710414.923     3484923.830 5   2715521.704
  22126455.771    -3635445.549 7  -2832815.991 6
  20798824.577     1473520.509 8   1148196.387 9
 91 11  5 14 31 30.0000000  0  5 16 12 13 20 24
  23570821.958    -3953864.693 6  -3080933.978 4
  21803753.178     2854491.892 7   2224277.798 7
  23725375.762     3563491.638 6   2776743.155 2
  22113018.475    -3706061.442 7  -2887841.406 6
  20807601.897     1519633.971 8   1184128.895 9
 91 11  5 14 32  0.0000000  0  5 16 12 13 20 24
  23555394.038    -4034905.525 6  -3144082.677 2
  21818381.852     2931368.812 7   2284181.797 6
  23740342.605     3642132.841 6   2838022.260 2
  22099651.329    -3776318.683 7  -2942587.362 6
  20816474.251     1566279.225 8   1220475.763 9
 91 11  5 14 32 30.0000000  0  5 16 12 13 20 24
  23540028.781    -4115704.205 6  -3207042.662 3
  21833128.037     3008862.579 7   2344566.460 7
  23755317.535     3720866.851 6   2899373.182 2
  22086354.036    -3846195.129 7  -2997036.593 7
  20825457.832     1613474.652 8   1257251.370 9
 91 11  5 14 33  0.0000000  0  5 16 12 13 20 24
  23524694.393    -4196248.990 6  -3269804.829 3
  21847997.446     3086979.060 7   2405436.366 7
  23770322.751     3799702.066 5   2960803.025 3
  22073128.690    -3915680.512 7  -3051181.089 7
  20834542.450     1661226.664 8   1294460.663 9
 91 11  5 14 33 30.0000000  0  5 16 12 13 20 24
  23509414.267    -4276542.852 6  -3332371.460 3
  21862977.472     3165709.821 7   2466784.915 7
  23785337.249     3878632.598 5   3022307.254 4
  22059978.599    -3984777.744 7  -3105023.148 7
  20843734.082     1709526.791 8   1332097.056 9
 91 11  5 14 34  0.0000000  0  5 16 12 13 20 24
  23494180.916    -4356580.404 6  -3394738.395 4
  21878073.524     3245055.201 7   2528612.382 6
  23800380.236     3957660.785 5   3083887.783 3
  22046908.246    -4053481.756 7  -3158558.802 6
  20853029.752     1758376.460 8   1370161.659 9
 91 11  5 14 34 30.0000000  0  5 16 12 13 20 24
  23478999.131    -4436361.806 6  -3456905.725 3
  21893289.791     3325009.116 7   2590914.045 6
  23815434.015     4036782.643 5   3145541.391 2
  22033907.441    -4121793.438 7  -3211788.741 7
  20862432.139     1807770.334 8   1408650.324 9
 91 11  5 14 35  0.0000000  0  5 16 12 13 20 24
  23463871.598    -4515879.519 6  -3518867.581 5
  21908620.279     3405573.539 7   2653691.433 6
  23830506.082     4116003.066 5   3207271.387 2
  22020983.391    -4189705.922 7  -3264707.606 8
  20871931.959     1857710.616 8   1447564.759 9
 91 11  5 14 35 30.0000000  0  5 16 12 13 20 24
  23448790.841    -4595134.437 6  -3580624.659 4
  21924068.581     3486741.823 7   2716939.350 6
  23845606.934     4195317.363 5   3269074.952 2
  22008137.283    -4257220.845 7  -3317316.687 7
  20881540.912     1908191.962 8   1486900.794 9
 91 11  5 14 36  0.0000000  0  5 16 12 13 20 24
  23433755.052    -4674135.237 6  -3642183.730 3
  21939622.720     3568499.455 7   2780646.487 6
  23860713.770     4274714.070 5   3330942.359 1
  21995363.427    -4324347.094 7  -3369622.914 7
  20891246.994     1959200.107 8   1526647.334 9
 91 11  5 14 36 30.0000000  0  5 16 12 13 20 24
  23418769.320    -4752877.884 6  -3703541.657 4
  21955295.266     3650844.773 7   2844811.582 6
  23875837.700     4354193.727 5   3392874.773 2
  21982665.715    -4391081.532 7  -3421623.827 7
  20901051.704     2010734.524 8   1566803.942 9
 91 11  5 14 37  0.0000000  0  5 16 12 13 20 24
  23403842.657    -4831319.322 6  -3764664.845 3
  21971085.933     3733815.184 7   2909463.752 6
  23890992.507     4433796.686 5   3454903.300 2
  21970049.251    -4457381.404 7  -3473286.118 8
  20910965.836     2062833.218 8   1607400.260 9
 91 11  5 14 37 30.0000000  0  5 16 12 13 20 24
  23388963.659    -4909544.150 6  -3825619.271 4
  21986975.831     3817320.398 7   2974532.661 6
  23906137.123     4513434.640 5   3516958.601 2
  21957497.841    -4523332.185 7  -3524676.389 7
  20920974.112     2115406.421 8   1648366.317 9
 91 11  5 14 38  0.0000000  0  5 16 12 13 20 24
  23374123.331    -4987499.524 6  -3886363.734 4
  22002972.463     3901407.537 7   3040054.997 5
  23921308.421     4593157.328 5   3579080.424 2
  21945023.475    -4588881.702 7  -3575753.988 8
  20931074.716     2168502.062 8   1689739.460 9
 91 11  5 14 38 30.0000000  0  5 16 12 13 20 24
  23359341.766    -5065184.520 6  -3946897.528 4
  22019088.402     3986071.528 7   3106026.830 6
  23936500.406     4672962.696 5   3641266.668 2
  21932624.955    -4654029.488 7  -3626518.556 8
  20941278.452     2222115.955 8   1731516.436 9
 91 11  5 14 39  0.0000000  0  5 16 12 13 20 24
  23344612.064    -5142585.862 6  -4007210.269 5
  22035307.176     4071319.697 7   3172453.891 6
  23951701.081     4752860.511 5   3703524.460 1
  21920309.482    -4718762.835 7  -3676960.174 7
  20951580.825     2276256.178 8   1773703.555 9
 91 11  5 14 39 30.0000000  0  5 16 12 13 20 24
  23329944.719    -5219686.931 6  -4067289.047 4
  22051645.867     4157163.361 7   3239344.958 5
  23966924.843     4832864.526 5   3765865.024 2
  21908071.356    -4783065.473 7  -3727066.180 8
  20961985.116     2330934.619 8   1816310.056 9
 91 11  5 14 40  0.0000000  0  6 16 12 13 20 24  3
  23315325.939    -5296510.629 6  -4127151.661 3
  22068088.579     4243572.932 7   3306676.984 5
  23982170.785     4912947.982 5   3828267.509 1
  21895913.275    -4846961.435 7  -3776855.290 8
  20972487.451     2386122.739 8   1859313.720 9
  24976490.334     -140060.315 4   -109137.794 2
 91 11  5 14 40 30.0000000  0  6 16 12 13 20 24  3
  23300759.021    -5373052.866 6  -4186794.975 4
  22084638.025     4330547.250 7   3374449.071 6
  23997423.331     4993112.700 5   3890733.693 2
  21883832.838    -4910446.495 7  -3826324.215 8
  20983084.811     2441820.444 8   1902714.444 9
  24966168.181     -194279.210 4   -151386.385 2
 91 11  5 14 41  0.0000000  0  6 16 12 13 20 24  3
  23286246.364    -5449302.976 6  -4246210.667 3
  22101301.386     4418091.229 7   3442665.063 6
  24012693.257     5073365.947 5   3953268.889 1
  21871830.945    -4973510.730 7  -3875465.222 7
  20993783.208     2498033.072 8   1946516.417 9
  24955892.795     -248297.117 5   -193478.321 3
 91 11  5 14 41 30.0000000  0  6 16 12 13 20 24  3
  23271787.079    -5525266.370 6  -4305402.929 3
  22118060.986     4506193.307 7   3511315.926 6
  24027981.777     5153698.720 5   4015865.649 2
  21859906.399    -5036160.646 7  -3924283.387 8
  21004576.630     2554749.631 8   1990711.063 9
  24945650.983     -302123.046 4   -235420.719 1
 91 11  5 14 42  0.0000000  0  6 16 12 13 20 24  3
  23257397.341    -5600946.797 6  -4364374.708 4
  22134936.306     4594844.143 7   3580394.405 5
  24043287.677     5234104.491 5   4078519.748 2
  21848065.798    -5098400.465 7  -3972782.000 8
  21015465.400     2611961.387 8   2035291.585 9
  24935447.553     -355764.049 4   -277219.017 1
 91 11  5 14 42 30.0000000  0  6 16 12 13 20 24  3
  23243041.780    -5676335.198 6  -4423118.926 4
  22151908.754     4684046.743 7   3649902.798 5
  24058600.478     5314589.252 5   4141235.242 2
  21836300.739    -5160221.288 7  -4020954.112 7
  21026446.796     2669672.780 8   2080261.420 9
  24925274.390     -409214.777 4   -318869.016 2
 91 11  5 14 43  0.0000000  0  6 16 12 13 20 24  3
  23228754.266    -5751427.671 6  -4481632.557 3
  22168985.232     4773799.417 7   3719839.839 7
  24073931.865     5395154.001 5   4204013.194 2
  21824616.335    -5221619.456 7  -4068796.894 8
  21037521.725     2727882.632 8   2125619.676 9
  24915146.501     -462474.331 4   -360370.104 1
 91 11  5 14 43 30.0000000  0  6 16 12 13 20 24  3
  23214525.821    -5826213.816 6  -4539907.496 5
  22186175.031     4864106.404 7   3790208.808 6
  24089276.138     5475805.798 5   4266858.990 1
  21813019.462    -5282585.012 8  -4116302.573 8
  21048696.487     2786596.120 8   2171370.375 9
  24905041.997     -515536.311 4   -401717.120 1
 91 11  5 14 44  0.0000000  0  6 16 12 13 20 24  3
  23200356.427    -5900687.960 6  -4597939.309 4
  22203459.865     4954967.576 7   3861009.615 6
  24104644.701     5556547.525 5   4329774.880 2
  21801496.638    -5343113.571 8  -4163467.732 8
  21059963.586     2845813.881 8   2217514.018 9
  24894983.962     -568398.709 4   -442908.694 2
 91 11  5 14 44 30.0000000  0  6 16 12 13 20 24  3
  23186241.600    -5974856.558 6  -4655733.047 5
  22220855.620     5046370.459 7   3932232.523 5
  24120022.854     5637369.650 5   4392753.371 2
  21790061.353    -5403212.021 8  -4210297.750 8
  21071324.821     2905524.347 8   2264041.583 9
  24884966.699     -621071.340 4   -483952.370
 91 11  5 14 45  0.0000000  0  6 16 12 13 20 24  3
  23172181.332    -6048720.369 6  -4713289.302 4
  22238350.912     5138307.752 7   4003871.855 4
  24135415.403     5718267.333 5   4455790.716 2
  21778708.512    -5462882.197 8  -4256794.048 8
  21082782.896     2965721.315 8   2310948.240 9
  24874979.110     -673558.740 4   -524851.834 1
 91 11  5 14 45 30.0000000  0  6 16 12 13 20 24  3
  23158185.219    -6122276.745 6  -4770605.970 4
  22255946.926     5230776.770 7   4075925.532 5
  24150829.530     5799241.318 5   4518887.107 2
  21767435.715    -5522121.451 8  -4302954.556 8
  21094331.799     3026402.405 8   2358232.134 9
  24865031.099     -725861.502 4   -565607.321 2
 91 11  5 14 46  0.0000000  0  6 16 12 13 20 24  3
  23144246.971    -6195516.426 6  -4827675.874 4
  22273643.977     5323781.004 7   4148396.247 5
  24166249.650     5880297.803 6   4582048.237 2
  21756248.660    -5580920.610 8  -4348772.131 8
  21105970.937     3087572.205 8   2405896.856 9
  24855104.665     -777973.989 3   -606214.414 2
 91 11  5 14 46 30.0000000  0  6 16 12 13 20 24  3
  23130370.479    -6268449.593 6  -4884506.933 4
  22291442.353     5417303.497 7   4221270.786 6
  24181685.668     5961422.741 5   4645262.631 2
  21745135.654    -5639291.104 8  -4394255.690 8
  21117697.326     3149214.773 8   2453929.956 9
  24845225.311     -829910.138 3   -646684.347 1
 91 11  5 14 47  0.0000000  0  5 16 12 13 20 24
  23116551.844    -6341072.028 6  -4941095.869 5
  22309338.467     5511342.800 7   4294548.037 6
  24197139.371     6042617.800 5   4708531.724 2
  21734109.586    -5697229.067 8  -4439402.209 8
  21129519.334     3211329.476 8   2502330.948 9
 91 11  5 14 47 30.0000000  0  5 16 12 13 20 24
  23102792.268    -6413375.793 6  -4997436.478 4
  22327329.912     5605900.581 7   4368229.314 5
  24212605.665     6123887.670 6   4771859.117
  21723168.962    -5754727.387 8  -4484206.146 8
  21141430.094     3273918.937 8   2551101.894 9
 91 11  5 14 48  0.0000000  0  5 16 12 13 20 24
  23089091.753    -6485351.670 6  -5053521.609 3
  22345425.387     5700980.176 7   4442317.191 5
  24228083.947     6205239.410 5   4835250.340 2
  21712311.681    -5811777.485 8  -4528660.825 8
  21153434.378     3336987.182 8   2600245.905 9
 91 11  5 14 48 30.0000000  0  5 16 12 13 20 24
  23075465.585    -6556989.316 6  -5109343.179 4
  22363619.490     5796586.174 7   4516815.252 5
  24243585.019     6286679.204 5   4898710.114 2
  21701547.034    -5868368.803 8  -4572757.993 9
  21165525.913     3400540.018 8   2649767.525 9
 91 11  5 14 49  0.0000000  0  5 16 12 13 20 24
  23061899.079    -6628282.175 6  -5164896.090 5
  22381911.026     5892718.856 7   4591723.710 5
  24259099.275     6368210.888 5   4962241.502 2
  21690866.323    -5924495.964 8  -4616493.490 9
  21177712.176     3464578.032 8   2699667.198 9
 91 11  5 14 49 30.0000000  0  5 16 12 13 20 24
  23048390.735    -6699237.540 6  -5220186.007 5
  22400305.388     5989365.212 7   4667032.430 5
  24274626.426     6449824.486 5   5025836.721 2
  21680271.956    -5980166.414 8  -4659873.113 9
  21189988.675     3529089.410 8   2749935.725 9
 91 11  5 14 50  0.0000000  0  5 16 12 13 20 24
  23034951.633    -6769848.406 6  -5275207.464 6
  22418792.393     6086525.437 7   4742741.578 6
  24290174.858     6531523.526 4   5089498.518 2
  21669767.832    -6035374.514 8  -4702892.469 8
  21202356.011     3594075.609 8   2800574.242 9
 91 11  5 14 50 30.0010000  0  5 16 12 13 20 24
  23021590.781    -6840113.187 6  -5329959.222 5
  22437380.726     6184200.678 7   4818852.016 5
  24305744.879     6613312.111 4   5153230.075 1
  21659350.047    -6090117.942 8  -4745549.738 9
  21214812.992     3659537.714 8   2851583.589 9
 91 11  5 14 51  0.0010000  0  6 16 12 13 20 24  3
  23008281.796    -6910028.105 6  -5384438.382 4
  22456061.995     6282377.969 7   4895353.662 6
  24321315.508     6695181.175 4   5217024.356 2
  21649018.898    -6144394.397 8  -4787843.142 9
  21227360.806     3725465.512 8   2902955.794 9
  24757873.582       -8362.28014     -6517.679 2
 91 11  5 14 51 30.0010000  0  6 16 12 13 20 24  3
  22995037.570    -6979608.041 6  -5438656.514 4
  22474837.993     6381041.539 7   4972234.244 4
  24336914.004     6777116.875 4   5280870.461 2
  21638779.189    -6198219.639 8  -4829784.931 9
  21239990.462     3791842.999 8   2954678.416 9
  24748336.881      -58442.888 4    -45541.604 2
 91 11  5 14 52  0.0010000  0  6 16 12 13 20 24  3
  22981861.992    -7048864.318 6  -5492622.451 3
  22493699.140     6480174.135 7   5049480.305 4
  24352513.705     6859105.809 4   5344758.140 1
  21628617.718    -6251605.169 8  -4871384.111 9
  21252702.859     3858653.873 8   3006738.752 9
  24738829.862     -108369.042 4    -84445.250 2
 91 11  5 14 52 30.0010000  0  6 16 12 13 20 24  3
  22968741.871    -7117796.971 6  -5546336.224 3
  22512652.615     6579769.867 7   5127087.234 5
  24368116.407     6941145.415 3   5408685.221 1
  21618542.896    -6304551.323 8  -4912640.910 9
  21265498.301     3925893.527 8   3059133.200 9
  24729374.410     -158144.025 4   -123231.103 2
 91 11  5 14 53  0.0010000  0  6 16 12 13 20 24  3
  22955692.503    -7186388.746 6  -5599784.363 4
  22531693.630     6679839.040 7   5205063.085 5
  24383751.479     7023248.996 4   5472662.257 2
  21608552.908    -6357041.951 8  -4953542.763 9
  21278377.382     3993573.193 8   3111870.495 9
  24719920.754     -207754.887 4   -161889.037 2
 91 11  5 14 53 30.0010000  0  6 16 12 13 20 24  3
  22942702.500    -7254644.879 6  -5652970.968 5
  22550828.788     6780370.660 7   5283399.273 5
  24399390.155     7105408.627 4   5536682.858 2
  21598653.460    -6409082.544 8  -4994093.938 9
  21291339.211     4061682.833 8   3164942.829 9
  24710512.670     -257209.983 5   -200425.568 2
 91 11  5 14 54  0.0010000  0  6 16 12 13 20 24  3
  22929776.050    -7322571.215 6  -5705900.551 5
  22570043.083     6881352.979 7   5362086.671 5
  24415036.326     7187615.644 4   5600740.478 2
  21588834.659    -6460679.385 8  -5034299.313 9
  21304380.187     4130211.966 8   3218342.058 9
  24701137.558     -306518.546 5   -238847.902 2
 91 11  5 14 54 30.0010000  0  6 16 12 13 20 24  3
  22916918.250    -7390157.099 6  -5758564.874 5
  22589347.020     6982790.219 7   5441128.539 5
  24430680.088     7269877.605 4   5664840.860 2
  21579098.005    -6511822.556 8  -5074151.185 9
  21317501.197     4199165.588 8   3272072.045 9
  24691775.638     -355673.781 5   -277150.794 2
 91 11  5 14 55  0.0010000  0  6 16 12 13 20 24  3
  22904118.306    -7457402.453 6  -5810963.854 5
  22608731.603     7084676.269 7   5520520.116 5
  24446333.457     7352192.778 4   5728982.500 1
  21569455.773    -6562512.655 8  -5113650.009 9
  21330703.160     4268538.431 8   3326128.712 9
  24682450.294     -404679.355 5   -315337.046 3
 91 11  5 14 55 30.0010000  0  6 16 12 13 20 24  3
  22891395.413    -7524285.677 6  -5863080.665 5
  22628208.219     7187026.719 6   5600273.588 5
  24462022.494     7434579.137 5   5793179.473 2
  21559899.293    -6612728.544 8  -5152779.327 9
  21343988.167     4338347.101 8   3380524.966 9
  24673159.423     -453516.973 5   -353392.466 2
 91 11  5 14 56  0.0010000  0  6 16 12 13 20 24  3
  22878736.379    -7590798.246 6  -5914908.655 5
  22647778.368     7289844.289 7   5680391.041 5
  24477716.627     7517042.566 4   5857436.894 2
  21550433.649    -6662461.978 8  -5191532.700 9
  21357355.008     4408595.021 8   3435263.514 9
  24663900.338     -502181.322 5   -391312.817 3
 91 11  5 14 56 30.0010000  0  6 16 12 13 20 24  3
  22866150.794    -7656925.791 6  -5966436.632 5
  22667434.860     7393136.746 6   5760878.524 5
  24493421.561     7599594.306 4   5921763.109 1
  21541067.227    -6711699.716 8  -5229899.817 9
  21370806.700     4479291.548 8   3490351.621 9
  24654674.826     -550662.030 5   -429090.113 4
 91 11  5 14 57  0.0010000  0  6 16 12 13 20 24  3
  22853639.258    -7722674.079 6  -6017669.068 5
  22687177.696     7496892.564 6   5841727.078 5
  24509152.566     7682226.199 5   5986151.831 1
  21531791.354    -6760447.471 8  -5267885.132 9
  21384344.125     4550425.718 8   3545780.746 9
  24645483.186     -598967.955 5   -466731.220 2
 91 11  5 14 57 30.0010000  0  6 16 12 13 20 24  3
  22841201.764    -7788049.637 6  -6068611.090 5
  22707007.469     7601098.566 7   5922926.404 5
  24524887.174     7764928.647 5   6050595.450 2
  21522603.911    -6808712.681 8  -5305494.432 9
  21397962.197     4621985.649 8   3601541.627 9
  24636323.331     -647109.670 4   -504244.460 3
 91 11  5 14 58  0.0010000  0  6 16 12 13 20 24  3
  22828832.325    -7853056.045 6  -6119265.437 5
  22726921.483     7705745.279 6   6004469.156 4
  24540636.467     7847694.905 4   6115088.727 2
  21513510.908    -6856499.244 8  -5342730.764 9
  21411656.718     4693962.749 8   3657627.592 9
  24627184.757     -695094.069 4   -541634.905 2
 91 11  5 14 58 30.0010000  0  6 16 12 13 20 24  3
  22816527.051    -7917703.302 6  -6169639.932 6
  22746914.337     7810816.415 6   6086342.637 5
  24556398.358     7930512.647 4   6179622.184 1
  21504506.037    -6903817.692 8  -5379602.332 9
  21425430.681     4766342.048 8   3714026.967 9
  24618079.756     -742934.299 4   -578913.076 1
 91 11  5 14 59  0.0010000  0  6 16 12 13 20 24  3
  22804294.614    -7981979.048 6  -6219724.926 5
  22766990.542     7916317.959 6   6168551.467 5
  24572171.636     8013391.571 5   6244202.965 1
  21495594.411    -6950656.636 8  -5416100.265 9
  21439284.391     4839130.067 8   3770744.805 9
  24609010.739     -790622.036 4   -616072.544 2
 91 11  5 14 59 30.0010000  0  6 16 12 13 20 24  3
  22792139.229    -8045870.289 6  -6269510.328 5
  22787151.887     8022256.829 6   6251101.085 4
  24587954.817     8096341.373 5   6308839.275
  21486775.717    -6997003.715 8  -5452214.923 9
  21453212.448     4912335.128 8   3827787.616 9
  24599975.295     -838147.802 4   -653105.708 3
 91 11  5 15  0  0.0010000  0  6 16 12 13 20 24  3
  22780054.595    -8109370.005 6  -6318990.620 5
  22807398.964     8128634.271 6   6333992.456 5
  24603757.176     8179365.947 5   6373533.946 1
  21478050.556    -7042852.668 8  -5487941.428 9
  21467223.847     4985959.460 8   3885157.135 8
  24590963.226     -885507.687 5   -690009.595 2
 91 11  5 15  0 30.0010000  0  6 16 12 13 20 24  3
  22768043.410    -8172491.202 6  -6368175.962 5
  22827718.600     8235430.831 6   6417210.413 4
  24619561.934     8262450.338 5   6438275.119 1
  21469415.333    -7088216.572 8  -5523289.969 9
  21481310.195     5059984.660 8   3942839.028 9
  24581972.752     -932718.465 4   -726797.302 2
 91 11  5 15  1  0.0010000  0  6 16 12 13 20 24  3
  22756105.672    -8235215.686 6  -6417052.181 5
  22848118.576     8342658.169 6   6500764.026 5
  24635393.069     8345609.419 5   6503074.528 2
  21460881.138    -7133077.828 8  -5558246.840 9
  21495475.994     5134423.405 8   4000843.161 9
  24573019.455     -979765.401 4   -763457.363 2
 91 11  5 15  1 30.0010000  0  6 16 12 13 20 24  3
  22744243.485    -8297541.989 6  -6465618.110 5
  22868604.294     8450311.677 6   6584649.723 4
  24651229.909     8428842.190 5   6567931.417 1
  21452442.885    -7177435.660 8  -5592811.432 9
  21509717.030     5209272.733 8   4059167.210 9
  24564090.135    -1026650.438 4   -799991.278 3
 91 11  5 15  2  0.0010000  0  6 16 12 13 20 24  3
  22732462.843    -8359459.140 6  -6513865.222 5
  22889177.848     8558396.407 6   6668871.420 4
  24667079.340     8512156.978 5   6632852.159 1
  21444095.163    -7221278.838 8  -5626974.987 9
  21524041.416     5284538.310 8   4117815.612 9
  24555209.684    -1073365.925 4   -836393.024 2
 91 11  5 15  2 30.0010000  0  6 16 12 13 20 24  3
  22720762.542    -8420957.983 6  -6561786.378 5
  22909826.961     8666914.747 6   6753431.023 4
  24682952.450     8595559.690 4   6697841.459 2
  21435853.565    -7264599.884 8  -5660731.688 9
  21538441.344     5360223.867 8   4176791.288 8
  24546350.218    -1119906.619 4   -872658.644 3
 91 11  5 15  3  0.0010000  0  6 16 12 13 20 24  3
  22709136.893    -8482030.379 6  -6609375.225 6
  22930563.605     8775868.848 6   6838330.170 5
  24698842.052     8679056.156 4   6762903.819 2
  21427710.307    -7307391.043 8  -5694075.489 9
  21552923.725     5436332.421 8   4236096.560 9
  24537527.920    -1166267.590 4   -908784.192 3
 91 11  5 15  3 30.0010000  0  6 16 12 13 20 24  3
  22697599.978    -8542668.145 6  -6656625.421 6
  22951379.393     8885260.728 6   6923570.425 5
  24714755.935     8762652.218 5   6828043.654 1
  21419669.273    -7349644.502 8  -5727000.309 9
  21567489.439     5512867.391 8   4295734.097 9
  24528739.510    -1212444.296 4   -944766.106 1
 91 11  5 15  4  0.0010000  0  6 16 12 13 20 24  3
  22686144.312    -8602857.092 6  -6703525.884 5
  22972278.525     8995098.724 6   7009158.321 3
  24730679.703     8846359.486 4   6893270.300 1
  21411733.769    -7391346.363 8  -5759495.310 9
  21582135.494     5589837.887 7   4355710.996 9
  24519989.168    -1258425.411 4   -980595.620 3
 91 11  5 15  4 30.0010000  0  6 16 12 13 20 24  3
  22674776.481    -8662600.286 6  -6750078.996 5
  22993263.991     9105373.038 6   7095086.214 4
  24746634.961     8930171.727 4   6958578.700 1
  21403903.185    -7432500.729 8  -5791563.680 9
  21596864.604     5667235.486 8   4416020.729 8
  24511280.794    -1304218.062 5  -1016278.299 2
 91 11  5 15  5  0.0010000  0  6 16 12 13 20 24  3
  22663493.187    -8721884.539 6  -6796274.501 6
  23014329.815     9216090.768 6   7181359.611 5
  24762605.802     9014099.105 3   7023976.728 2
  21396176.638    -7473094.895 8  -5823195.548 9
  21611675.546     5745068.132 8   4476669.456 9
  24502598.508    -1349812.710 5  -1051806.666 2
 91 11  5 15  5 30.0010000  0  5 16 12 20 24  3
  22652307.336    -8780704.015 7  -6842107.843 5
  23035485.569     9327252.046 6   7267978.624 3
  21388560.709    -7513122.844 8  -5854386.197 9
  21626568.940     5823337.114 8   4537658.167 8
  24493966.584    -1395206.157 4  -1087178.244 2
 91 11  5 15  6  0.0010000  0  5 16 12 20 24  3
  22641198.527    -8839056.016 7  -6887576.922 6
  23056724.360     9438853.111 6   7354940.317 4
  21381050.903    -7552583.280 8  -5885134.639 9
  21641547.465     5902040.153 8   4598985.094 9
  24485365.537    -1440399.340 4  -1122393.799 1
 91 11  5 15  6 30.0010000  0  5 16 12 20 24  3
  22630184.447    -8896937.136 7  -6932679.099 5
  23078048.299     9550890.879 6   7442242.320 4
  21373649.332    -7591473.344 8  -5915438.624 9
  21656607.841     5981175.142 8   4660648.618 8
  24476796.564    -1485392.643 4  -1157453.620 3
 91 11  5 15  7  0.0010000  0  5 16 12 20 24  3
  22619258.517    -8954350.884 6  -6977417.084 5
  23099444.788     9663355.303 6   7529876.771 4
  21366358.378    -7629797.474 8  -5945301.637 9
  21671747.362     6060732.822 8   4722641.521 8
  24468265.676    -1530193.390 4  -1192363.421 2
 91 11  5 15  7 30.0010000  0  5 16 12 20 24  3
  22608421.618    -9011295.959 6  -7021789.863 6
  23120923.118     9776241.969 6   7617840.261 4
  21359170.258    -7667554.637 8  -5974722.857 9
  21686965.426     6140710.101 8   4784961.368 9
  24459782.148    -1574803.308 4  -1227124.460 3
 91 11  5 15  8  0.0010000  0  5 16 12 20 24  3
  22597677.649    -9067766.457 6  -7065792.843 5
  23142490.487     9889550.633 6   7706132.528 5
  21352097.249    -7704739.371 8  -6003698.029 9
  21702265.332     6221108.110 8   4847609.059 9
  24451338.188    -1619219.763 5  -1261734.766 1
 91 11  5 15  8 30.0010000  0  5 16 12 20 24  3
  22587022.128    -9123770.736 7  -7109432.548 6
  23164125.608    10003266.663 6   7794742.266 5
  21345129.473    -7741360.155 8  -6032233.751 9
  21717645.291     6301913.666 8   4910574.320 9
  24442917.324    -1663454.188 5  -1296203.200 1
 91 11  5 15  9  0.0010000  0  5 16 12 20 24  3
  22576448.753    -9179314.455 7  -7152713.376 6
  23185836.279    10117378.280 6   7883660.228 4
  21338264.531    -7777423.452 8  -6060335.073 9
  21733090.898     6383116.206 8   4973848.925 9
  24434533.027    -1707515.807 5  -1330537.005 1
 91 11  5 15  9 30.0010000  0  6 16 12 13 20 24  3
  22565971.005    -9234392.341 7  -7195631.222 6
  23207632.395    10231884.642 6   7972885.790 4
  24907328.214       14163.80314     11040.470 1
  21331511.105    -7812924.745 8  -6087998.468 9
  21748621.042     6464715.788 8   5037432.906 8
  24426182.905    -1751402.658 5  -1364734.633 1
 91 11  5 15 10  0.0010000  0  6 16 12 13 20 24  3
  22555576.303    -9289004.108 7  -7238185.854 6
  23229490.860    10346779.259 6   8062413.877 4
  24923510.412       99187.842 4     77293.124 2
  21324862.607    -7847864.776 8  -6115224.514 9
  21764224.040     6546707.061 8   5101322.105 9
  24417863.069    -1795118.306 5  -1398798.868 2
 91 11  5 15 10 30.0010000  0  5 16 12 20 24  3
  22545271.531    -9343158.366 7  -7280384.006 6
  23251429.666    10462047.488 6   8152233.109 2
  21318318.138    -7882252.180 8  -6142019.943 9
  21779899.292     6629076.533 8   5165506.009 8
  24409574.704    -1838674.408 5  -1432738.834 1
 91 11  5 15 11  0.0010000  0  5 16 12 20 24  3
  22535055.501    -9396849.794 6  -7322221.492 6
  23273434.435    10577688.715 6   8242342.967 4
  21311879.496    -7916081.911 8  -6168380.824 9
  21795646.185     6711824.844 8   5229985.118 9
  24401319.015    -1882069.058 5  -1466552.940 2
 91 11  5 15 11 30.0010000  0  5 16 12 20 24  3
  22524929.419    -9450071.363 6  -7363692.841 6
  23295514.448    10693703.729 6   8332744.079 4
  21305548.479    -7949348.429 8  -6194302.842 9
  21811464.738     6794953.701 8   5294760.733 9
  24393094.509    -1925298.713 5  -1500238.491 3
 91 11  5 15 12  0.0010000  0  5 16 12 20 24  3
  22514889.969    -9502808.738 7  -7404786.901 6
  23317661.322    10810101.212 6   8423443.201 5
  21299329.579    -7982037.013 8  -6219774.519 9
  21827360.036     6878472.900 8   5359840.520 9
  24384895.490    -1968351.749 5  -1533786.420 3
 91 11  5 15 12 30.0010000  0  5 16 12 20 24  3
  22504950.944    -9555053.422 7  -7445497.051 6
  23339888.528    10926882.543 6   8514441.458 4
  21293219.507    -8014140.789 8  -6244790.493 9
  21843324.883     6962385.794 8   5425227.087 9
  24376739.938    -2011223.786 5  -1567193.301 4
 91 11  5 15 13  0.0010000  0  5 16 12 20 24  3
  22495097.670    -9606815.247 7  -7485830.956 6
  23362184.096    11044032.575 6   8605726.999 4
  21287222.766    -8045669.476 8  -6269358.354 9
  21859365.873     7046678.049 8   5490909.266 8
  24368616.757    -2053927.195 5  -1600468.779 2
 91 11  5 15 13 30.0010000  0  5 16 12 20 24  3
  22485343.321    -9658082.909 7  -7525779.807 6
  23384544.421    11161555.944 6   8697303.479 4
  21281332.436    -8076612.750 8  -6293470.049 9
  21875481.516     7131355.641 8   5556891.696 8
  24360522.657    -2096454.569 5  -1633607.091 2
 91 11  5 15 14  0.0010000  0  5 16 12 20 24  3
  22475682.811    -9708855.362 7  -7565342.760 6
  23406980.288    11279447.883 6   8789167.118 3
  21275557.836    -8106969.995 8  -6317125.103 9
  21891668.216     7216414.786 8   5623171.445 9
  24352460.944    -2138807.794 5  -1666609.706 4
 91 11  5 15 14 30.0010000  0  5 16 12 20 24  3
  22466114.630    -9759122.464 6  -7604511.924 6
  23429486.008    11397712.874 6   8881321.447 4
  21269893.557    -8136731.192 8  -6340315.698 9
  21907927.159     7301861.395 8   5689753.109 9
  24344438.495    -2180979.510 5  -1699470.858 1
 91 11  5 15 15  0.0010000  0  5 16 12 20 24  3
  22456646.883    -9808889.675 7  -7643291.574 7
  23452059.479    11516339.071 6   8973757.244 4
  21264341.404    -8165902.280 8  -6363046.470 9
  21924257.448     7387684.813 7   5756628.386 8
  24336443.930    -2222978.270 5  -1732197.252 2
 91 11  5 15 15 30.0010000  0  5 16 12 20 24  3
  22447277.477    -9858138.957 7  -7681667.642 6
  23474699.505    11635337.840 6   9066483.369 3
  21258908.261    -8194466.469 8  -6385304.323 9
  21940662.695     7473897.878 7   5823807.285 9
  24328477.845    -2264790.258 4  -1764778.103 4
 91 11  5 15 16  0.0010000  0  5 16 12 20 24  3
  22437997.094    -9906885.544 7  -7719652.000 7
  23497416.574    11754688.101 6   9159483.357 4
  21253581.556    -8222439.168 8  -6407101.279 9
  21957139.286     7560480.241 7   5891273.956 8
  24320557.924    -2306433.727 4  -1797227.634 2
 91 11  5 15 16 30.0010000  0  5 16 12 20 24  3
  22428818.349    -9955122.870 7  -7757239.533 6
  23520195.407    11874390.835 6   9252758.012 4
  21248373.259    -8249814.303 8  -6428432.604 9
  21973684.239     7647434.303 7   5959030.248 8
  24312668.593    -2347904.816 4  -1829542.859 1
 91 11  5 15 17  0.0010000  0  5 16 12 20 24  3
  22419738.835   -10002843.569 7  -7794424.497 6
  23543043.492    11994446.663 6   9346307.787 4
  21243280.081    -8276585.213 8  -6449293.100 9
  21990311.321     7734761.844 7   6027077.562 8
  24304812.828    -2389199.984 4  -1861721.012 3
 91 11  5 15 17 30.0010000  0  5 16 12 20 24  3
  22410760.654   -10050043.845 7  -7831203.944 7
  23565945.533    12114853.002 5   9440130.700 3
  21238301.133    -8302749.520 8  -6469680.923 9
  22006994.776     7822461.799 7   6095415.078 7
  24296999.039    -2430318.921 5  -1893761.822 2
 91 11  5 15 18  0.0010000  0  5 16 12 20 24  3
  22401875.108   -10096727.898 7  -7867581.129 6
  23588930.026    12235600.474 6   9534219.427 3
  21233436.396    -8328310.781 8  -6489598.840 9
  22023754.070     7910526.276 7   6164036.625 8
  24289202.038    -2471267.734 5  -1925670.081 2
 91 11  5 15 18 30.0010000  0  5 16 12 20 24  3
  22393081.891   -10142900.085 7  -7903559.472 6
  23611969.976    12356677.772 6   9628565.159 4
  21228683.489    -8353275.090 8  -6509051.603 9
  22040578.122     7998944.401 7   6232933.734 8
  24281426.317    -2512055.547 4  -1957452.893 2
 91 11  5 15 19  0.0010000  0  5 16 12 20 24  3
  22384399.003   -10188555.063 7  -7939134.799 6
  23635074.981    12478085.015 6   9723167.984 2
  21224050.500    -8377636.657 8  -6528034.688 9
  22057472.027     8087717.833 7   6302107.712 8
  24273703.662    -2552678.830 5  -1989107.489
 91 11  5 15 19 30.0010000  0  5 16 12 20 24  3
  22375809.351   -10233690.000 7  -7974304.891 6
  23658242.640    12599818.403 6   9818025.413 4
  21219531.722    -8401394.117 8  -6546547.048 9
  22074432.190     8176844.389 7   6371556.854 7
  24266006.790    -2593138.533 5  -2020634.662 2
 91 11  5 15 20  0.0010000  0  5 16 12 20 24  3
  22367321.627   -10278293.109 7  -8009060.576 6
  23681464.866    12721883.788 5   9913141.088 4
  21215125.377    -8424536.201 8  -6564579.888 9
  22091459.798     8266331.301 7   6441286.781 7
  24258340.499    -2633425.688 5  -2052027.338 2
 91 11  5 15 20 30.0010000  0  5 16 12 20 24  3
  22358934.328   -10322361.648 7  -8043399.715 6
  23704758.735    12844277.726 5  10008513.248 4
  21210840.144    -8447060.660 8  -6582131.464 9
  22108556.963     8356176.839 7   6511296.169 7
  24250709.283    -2673540.899 5  -2083286.042 3
 91 11  5 15 21  0.0010000  0  5 16 12 20 24  3
  22350643.276   -10365914.418 7  -8077336.966 6
  23728109.272    12966975.741 5  10104121.872 2
  21206668.827    -8468986.833 8  -6599216.850 9
  22125719.785     8446357.234 7   6581566.468 7
  24243102.646    -2713505.946 5  -2114427.736 2
 91 11  5 15 21 30.0010000  0  5 16 12 20 24  3
  22342455.040   -10408956.478 7  -8110876.257 6
  23751511.367    13089966.784 6  10199958.817 2
  21202608.440    -8490320.297 8  -6615840.376 9
  22142940.759     8536862.952 7   6652090.279 7
  24235516.705    -2753328.687 5  -2145458.545 3
 91 11  5 15 22  0.0010000  0  5 16 12 20 24  3
  22334360.940   -10451483.847 7  -8144014.478 6
  23774971.631    13213248.833 5  10296022.502 3
  21198659.875    -8511057.471 8  -6631999.267 9
  22160225.295     8627693.080 7   6722866.868 7
  24227970.629    -2793008.493 5  -2176377.955 2
 91 11  5 15 22 30.0010000  0  5 16 12 20 24  3
  22326371.471   -10493494.308 7  -8176749.926 6
  23798487.353    13336817.809 6  10392309.778 3
  21194827.929    -8531196.991 8  -6647692.457 9
  22177570.384     8718844.354 7   6793893.699 7
  24220450.030    -2832546.008 5  -2207186.529 3
 91 11  5 15 23  0.0010000  0  5 16 12 20 24  3
  22318471.042   -10534982.838 7  -8209078.670 7
  23822057.632    13460673.123 6  10488820.648 2
  21191108.398    -8550734.163 8  -6662916.282 9
  22194976.933     8810318.305 7   6865171.958 7
  24212949.525    -2871939.350 5  -2237882.695 4
 91 11  5 15 23 30.0010000  0  5 16 12 20 24  3
  22310678.839   -10575949.877 7  -8241001.058 7
  23845676.179    13584808.934 5  10585550.128 3
  21187507.894    -8569669.693 8  -6677671.290 9
  22212443.746     8902110.257 7   6936698.038 7
  24205488.292    -2911191.556 5  -2268468.912 3
 91 11  5 15 24  0.0010000  0  5 16 12 20 24  3
  22302987.062   -10616393.313 7  -8272515.442 7
  23869358.585    13709221.477 6  10682494.732 4
  21184017.406    -8588002.186 8  -6691956.399 9
  22229971.111     8994217.533 7   7008469.807 8
  24198035.146    -2950303.263 5  -2298945.635 2
 91 11  5 15 24 30.0010000  0  5 16 12 20 24  3
  22295390.625   -10656295.143 7  -8303607.798 7
  23893081.467    13833922.562 5  10779664.653 2
  21180651.939    -8605714.546 8  -6705758.284 9
  22247564.133     9086653.379 7   7080497.617 7
  24190631.473    -2989260.023 5  -2329301.618 1
 91 11  5 15 25  0.0010000  0  5 16 12 20 24  3
  22287900.904   -10695645.316 7  -8334270.283 6
  23916864.299    13958915.643 5  10877062.121 3
  21177399.489    -8622797.791 8  -6719069.955 9
  22265215.612     9179422.816 7   7152785.350 7
  24183244.892    -3028054.683 5  -2359531.323 3
 91 11  5 15 25 30.0010000  0  5 16 12 20 24  3
  22280517.918   -10734445.470 7  -8364504.182 7
  23940705.894    14084193.329 5  10974681.340 1
  21174265.160    -8639253.784 8  -6731892.860 9
  22282933.647     9272519.154 7   7225327.819 7
  24175893.673    -3066692.275 5  -2389638.684 2
 91 11  5 15 26  0.0010000  0  5 16 12 20 24  3
  22273241.954   -10772695.399 7  -8394309.323 7
  23964601.455    14209750.204 5  11072517.624 2
  21171254.648    -8655083.084 8  -6744227.427 9
  22300713.439     9365938.565 7   7298122.049 7
  24168564.050    -3105175.072 5  -2419625.237 2
 91 11  5 15 26 30.0010000  0  5 16 12 20 24  3
  22266064.923   -10810403.838 7  -8423692.539 6
  23988543.476    14335571.628 5  11170560.552 1
  21168359.849    -8670294.917 8  -6756080.855 9
  22318547.195     9459667.590 7   7371157.535 8
  24161265.304    -3143514.720 5  -2449500.340 1
 91 11  5 15 27  0.0010000  0  5 16 12 20 24  3
  22258996.119   -10847555.445 7  -8452641.858 7
  24012536.165    14461666.738 5  11268816.713 4
  21165587.070    -8684874.629 8  -6767441.720 9
  22336441.800     9553717.359 7   7444442.926 7
  24154006.729    -3181699.011 5  -2479254.391 2
 91 11  5 15 27 30.0010000  0  5 16 12 20 24  3
  22252039.136   -10884144.505 7  -8481152.818 6
  24036586.718    14588035.909 5  11367286.440 3
  21162933.904    -8698816.881 8  -6778305.855 9
  22354399.967     9648089.273 7   7517979.364 8
  24146765.543    -3219724.640 5  -2508884.805 2
 91 11  5 15 28  0.0010000  0  5 16 12 20 24  3
  22245176.882   -10920167.277 7  -8509222.525 7
  24060683.139    14714676.276 5  11465967.464 3
  21160400.360    -8712119.131 8  -6788671.295 9
  22372421.392     9742782.368 7   7591766.052 7
  24139563.629    -3257591.197 5  -2538391.254 3
 91 11  5 15 28 30.0010000  0  5 16 12 20 24  3
  22238430.357   -10955614.204 7  -8536843.518 6
  24084832.321    14841592.630 5  11564863.554 3
  21157995.423    -8724771.048 8  -6798529.969 9
  22390504.572     9837802.523 7   7665807.606 7
  24132393.195    -3295290.834 5  -2567767.649 1
 91 11  5 15 29  0.0010000  0  5 16 12 20 24  3
  22231793.847   -10990470.695 7  -8564004.438 7
  24109044.158    14968793.374 5  11663980.766 4
  21155713.406    -8736759.304 8  -6807871.522 9
  22408648.916     9933159.344 7   7740111.475 8
  24125253.037    -3332812.567 5  -2597005.417 3
 91 11  5 15 29 30.0010000  0  5 16 12 20 24  3
  22225278.163   -11024738.156 7  -8590706.360 6
  24133296.767    15096271.153 5  11763314.330 3
  21153553.400    -8748086.373 8  -6816697.864 9
  22426856.212    10028846.711 7   7814672.928 7
  24118141.960    -3370160.903 5  -2626108.088 2
 91 11  5 15 30  0.0010000  0  5 16 12 20 24  3
  22218874.291   -11058400.275 7  -8616936.580 6
  24157619.229    15224036.381 5  11862871.389 3
  21151531.304    -8758736.585 8  -6824996.777 9
  22445133.055    10124876.655 7   7889501.341 7
  24111069.552    -3407322.516 5  -2655065.259 2
 91 11  5 15 30 30.0010000  0  5 16 12 20 24  3
  22212581.053   -11091457.144 7  -8642695.191 7
  24181983.965    15352083.617 5  11962648.697 2
  21149633.916    -8768710.695 9  -6832768.858 9
  22463468.068    10221244.981 7   7964593.430 7
  24104034.924    -3444299.736 5  -2683878.734 3
 91 11  5 15 31  0.0020000  0  5 16 12 20 24  3
  22206404.726   -11123904.715 7  -8667979.033 7
  24206398.158    15480416.535 5  12062648.598 1
  21147864.536    -8778004.349 8  -6840010.713 9
  22481876.524    10317955.548 7   8039952.184 7
  24097035.069    -3481091.393 5  -2712547.633 2
 91 11  5 15 31 30.0020000  0  5 16 12 20 24  3
  22200348.619   -11155738.379 7  -8692784.512 6
  24230879.513    15609023.393 5  12162861.508 3
  21146222.576    -8786614.853 8  -6846720.247 9
  22500338.043    10415000.330 7   8115571.353 7
  24090065.793    -3517695.094 5  -2741070.036 2
 91 11  5 15 32  0.0020000  0  5 16 12 20 24  3
  22194405.529   -11186985.717 7  -8717133.101 7
  24255392.942    15737876.223 5  12263266.544 2
  21144713.123    -8794569.821 8  -6852918.961 9
  22518863.116    10512351.569 7   8191429.323 6
  24083132.498    -3554141.257 5  -2769469.729 2
 91 11  5 15 32 30.0020000  0  5 16 12 20 24  3
  22188566.773   -11217645.214 7  -8741023.628 7
  24279968.127    15866970.719 5  12363859.889 2
  21143322.986    -8801868.515 8  -6858606.300 9
  22537448.453    10610006.384 7   8267523.860 6
  24076228.573    -3590431.220 5  -2797747.717 3
 91 11  5 15 33  0.0020000  0  5 16 12 20 24  3
  22182847.630   -11247706.917 7  -8764448.363 6
  24304569.697    15996311.320 5  12464644.981 2
  21142061.754    -8808501.438 8  -6863774.851 9
  22556087.746    10707970.599 7   8343859.470 7
  24069356.127    -3626557.490 5  -2825898.143 3
 91 11  5 15 33 30.0020000  0  5 16 12 20 24  3
  22177243.615   -11277171.832 7  -8787408.063 6
  24329229.429    16125891.012 5  12565616.401 2
  21140924.646    -8814470.606 8  -6868426.212 9
  22574787.897    10806238.488 7   8420431.700 7
  24062507.676    -3662524.400 5  -2853924.375 2
 91 11  5 15 34  0.0020000  0  5 16 12 20 24  3
  22171753.218   -11306033.214 7  -8809897.482 6
  24353935.918    16255711.649 5  12666775.520 2
  21139915.840    -8819769.146 8  -6872554.990 9
  22593547.116    10904813.846 7   8497243.528 7
  24055693.985    -3698326.865 5  -2881822.482 3
 91 11  5 15 34 30.0020000  0  5 16 12 20 24  3
  22166368.945   -11334290.513 7  -8831916.176 6
  24378688.285    16385767.292 5  12768117.817 2
  21139036.253    -8824398.041 8  -6876161.960 9
  22612362.089    11003691.512 7   8574290.922 6
  24048907.290    -3733967.788 5  -2909594.716 3
 91 11  5 15 35  0.0020000  0  5 16 12 20 24  3
  22161111.482   -11361931.664 7  -8853454.763 7
  24403480.219    16516064.937 5  12869648.647 3
  21138282.570    -8828345.432 8  -6879237.893 9
  22631239.421    11102880.064 7   8651580.543 6
  24042167.955    -3769437.250 5  -2937233.338 4
 91 11  5 15 35 30.0020000  0  5 16 12 20 24  3
  22155970.037   -11388953.219 7  -8874510.533 7
  24428321.921    16646602.539 5  12971366.485 3
  21137663.497    -8831608.724 8  -6881780.766 9
  22650173.108    11202378.717 7   8729111.831 7
  24035447.510    -3804734.535 5  -2964737.789 2
 91 11  5 15 36  0.0020000  0  5 16 12 20 24  3
  22150952.113   -11415340.808 7  -8895072.305 7
  24453210.992    16777389.541 5  13073278.591 2
  21137176.339    -8834173.558 8  -6883779.381 9
  22669168.865    11302198.209 7   8806893.098 7
  24028768.134    -3839847.136 6  -2992098.335 2
 91 11  5 15 36 30.0020000  0  5 16 12 20 24  3
  22146048.410   -11441085.821 7  -8915133.372 7
  24478155.529    16908428.072 5  13175386.270 3
  21136821.088    -8836033.003 8  -6885228.352 9
  22688227.565    11402342.595 7   8884927.527 6
  24022119.033    -3874769.671 5  -3019310.767 3
 91 11  5 15 37  0.0020000  0  5 16 12 20 24  3
  22141273.612   -11466185.118 7  -8934691.295 7
  24503126.442    17039716.287 5  13277688.945 2
  21136605.228    -8837183.414 8  -6886124.828 9
  22707345.335    11502811.137 7   8963214.489 7
  24015515.505    -3909500.850 6  -3046374.099 2
 91 11  5 15 37 30.0020000  0  5 16 12 20 24  3
  22136620.834   -11490640.652 7  -8953747.569 7
  24528164.503    17171246.789 5  13380180.394 3
  21136516.494    -8837627.568 8  -6886470.963 9
  22726522.155    11603597.857 7   9041749.852 6
  24008938.954    -3944045.177 5  -3073291.829 3
 91 11  5 15 38  0.0020000  0  5 16 12 20 24  3
  22132090.976   -11514441.109 7  -8972293.401 7
  24553241.547    17303025.543 5  13482865.349 3
  21136570.153    -8837354.893 8  -6886258.576 9
  22745763.437    11704710.996 7   9120539.252 6
  24002401.683    -3978393.791 5  -3100057.037 2
 91 11  5 15 38 30.0020000  0  5 16 12 20 24  3
  22127689.717   -11537568.193 7  -8990314.515 7
  24578373.447    17435065.154 5  13585753.507 2
  21136760.527    -8836348.140 8  -6885474.153 9
  22765073.368    11806163.512 7   9199593.032 6
  23995903.981    -4012531.127 5  -3126657.622 4
 91 11  5 15 39  0.0020000  0  5 16 12 20 24  3
  22123414.082   -11560038.539 7  -9007823.904 7
  24603532.028    17567343.925 5  13688828.050 3
  21137090.301    -8834624.272 8  -6884130.931 9
  22784437.858    11907935.375 7   9278895.617 6
  23989445.551    -4046475.782 5  -3153108.051 3
 91 11  5 15 39 30.0020000  0  5 16 12 20 24  3
  22119258.356   -11581883.521 7  -9024845.985 7
  24628750.271    17699824.666 5  13792059.956 3
  21137550.175    -8832215.791 8  -6882254.245 9
  22803856.922    12009991.064 7   9358419.375 6
  23983017.100    -4080261.683 6  -3179434.766 2
 91 11  5 15 40  0.0020000  0  5 16 12 20 24  3
  22115214.757   -11603127.879 7  -9041400.055 7
  24653984.699    17832477.894 5  13895426.281 3
  21138132.375    -8829147.270 8  -6879863.258 9
  22823331.435    12112301.818 7   9438141.881 7
  23976611.134    -4113915.687 5  -3205658.724 4
 91 11  5 15 40 30.0020000  0  5 16 12 20 24  3
  22111283.275   -11623787.039 7  -9057498.127 7
  24679259.900    17965282.613 5  13998910.622 1
  21138837.486    -8825435.049 8  -6876970.674 9
  22842846.127    12214849.013 7   9518048.624 7
  23970226.754    -4147455.523 5  -3231793.694 3
 91 11  5 15 41  0.0020000  0  5 16 12 20 24  3
  22107460.927   -11643866.311 7  -9073144.342 7
  24704561.791    18098228.047 5  14102504.630 3
  21139665.211    -8821085.322 8  -6873581.323 9
  22862396.793    12317623.113 7   9598132.166 6
  23963872.353    -4180888.837 5  -3257845.675 2
 91 11  5 15 41 30.0020000  0  5 16 12 20 24  3
  22103753.087   -11663361.197 7  -9088335.189 8
  24729883.156    18231313.592 5  14206207.837 2
  21140615.559    -8816093.966 8  -6869692.007 9
  22882001.118    12420624.975 7   9678393.214 6
  23957529.347    -4214213.472 5  -3283812.989 2
 91 11  5 15 42  0.0020000  0  5 16 12 20 24  3
  22100156.781   -11682262.576 7  -9103063.563 7
  24755231.814    18364543.260 5  14310023.337 1
  21141692.709    -8810452.625 8  -6865296.233 9
  22901647.419    12523859.680 7   9758835.676 6
  23951212.124    -4247422.537 5  -3309690.248 2
 91 11  5 15 42 30.0020000  0  5 16 12 20 24  3
  22096672.295   -11700567.533 7  -9117327.184 7
  24780616.140    18497914.866 5  14413949.435 2
  21142889.479    -8804159.025 8  -6860392.181 9
  22921331.788    12627326.331 7   9839458.863 7
  23944917.979    -4280515.095 6  -3335476.730 1
 91 11  5 15 43  0.0020000  0  5 16 12 20 24  3
  22093301.122   -11718268.033 7  -9131119.798 6
  24806027.443    18631430.494 4  14517987.721 2
  21144213.070    -8797206.174 8  -6854974.424 9
  22941071.326    12731029.072 7   9920266.038 6
  23938637.925    -4313485.721 6  -3361168.228 2
 91 11  5 15 43 30.0020000  0  5 16 12 20 24  3
  22090049.876   -11735358.637 7  -9144437.181 8
  24831456.738    18765090.665 4  14622138.627 1
  21145658.969    -8789589.323 8  -6849039.266 9
  22960848.033    12834969.793 7  10001258.648 6
  23932386.053    -4346331.018 6  -3386762.081 2
 91 11  5 15 44  0.0020000  0  5 16 12 20 24  3
  22086916.445   -11751831.206 7  -9157272.962 8
  24856939.998    18898898.333 4  14726404.550 2
  21147238.571    -8781300.992 8  -6842580.894 9
  22980674.508    12939153.317 7  10082440.442 6
  23926160.565    -4379044.845 5  -3412253.465 2
 91 11  5 15 44 30.0020000  0  5 16 12 20 24  3
  22083902.330   -11767695.284 7  -9169634.590 8
  24882415.763    19032838.867 5  14830773.927 2
  21148940.796    -8772350.725 8  -6835606.725 9
  23000543.858    13043565.733 7  10163800.545 6
  23919956.359    -4411638.890 5  -3437651.514 2
 91 11  5 15 45  0.0020000  0  5 16 12 20 24  3
  22080994.042   -11782948.722 7  -9181520.396 8
  24907931.096    19166909.153 4  14935244.407 1
  21150771.027    -8762737.322 8  -6828115.814 9
  23020456.066    13148205.786 7  10245338.039 6
  23913782.131    -4444112.901 5  -3462956.010 3
 91 11  5 15 45 30.0020000  0  5 16 12 20 24  3
  22078208.071   -11797602.533 7  -9192938.952 8
  24933459.621    19301093.879 4  15039804.105 1
  21152722.075    -8752472.278 8  -6820117.125 9
  23040410.259    13253059.524 7  10327042.164 6
  23907615.399    -4476479.487 5  -3488176.809 2
 91 11  5 15 46  0.0020000  0  5 16 12 20 24  3
  22075533.625   -11811652.773 7  -9203887.191 8
  24959015.736    19435390.576 4  15144451.015 2
  21154803.232    -8741553.118 8  -6811608.748 9
  23060401.918    13358126.297 7  10408912.261 6
  23901480.147    -4508737.787 5  -3513313.251 2
 91 11  5 15 46 30.0020000  0  5 16 12 20 24  3
  22072970.999   -11825113.470 7  -9214376.046 7
  24984594.928    19569780.813 4  15249170.801 2
  21157000.711    -8729993.903 8  -6802601.621 9
  23080431.051    13463388.645 7  10490934.720 5
  23895356.891    -4540903.331 5  -3538377.360 3
 91 11  5 15 47  0.0020000  0  5 16 12 20 24  3
  22070522.594   -11837983.779 7  -9224404.852 8
  25010179.809    19704261.034 5  15353960.690 2
  21159322.602    -8717793.914 8  -6793095.181 9
  23100499.456    13568844.855 6  10573108.240 6
  23889257.613    -4572976.604 5  -3563369.619 2
 91 11  5 15 47 30.0020000  0  6 16 12 20 17 24  3
  22068186.010   -11850257.152 7  -9233968.505 8
  25035793.178    19838832.130 5  15458821.407 3
  21161767.413    -8704948.312 8  -6783085.657 9
  24876247.530     -198430.512 5   -154620.853 3
  23120605.640    13674496.701 6  10655434.185 6
  23883176.622    -4604953.949 6  -3588287.098 2
 91 11  5 15 48  0.0020000  0  6 16 12 20 17 24  3
  22065962.154   -11861941.292 7  -9243073.028 8
  25061410.743    19973481.785 5  15563743.388 2
  21164334.532    -8691465.201 8  -6772579.391 9
  24863603.782     -264825.413 4   -206357.217 2
  23140746.594    13780333.948 6  10737904.605 6
  23877098.632    -4636844.459 5  -3613136.909 2
 91 11  5 15 48 30.0020000  0  6 16 12 20 17 24  3
  22063851.611   -11873047.331 7  -9251727.066 8
  25087043.900    20108193.825 5  15668713.973 4
  21167017.381    -8677356.355 8  -6761585.528 9
  24851022.097     -330988.109 4   -257912.619 2
  23160918.427    13886341.423 6  10820507.669 5
  23871045.815    -4668661.253 5  -3637929.266 3
 91 11  5 15 49  0.0020000  0  6 16 12 20 17 24  3
  22061846.904   -11883575.533 7  -9259930.842 8
  25112694.141    20242962.824 5  15773728.891 3
  21169821.639    -8662622.912 8  -6750104.966 9
  24838483.278     -396919.590 5   -309287.844 2
  23181122.044    13992515.410 6  10903240.472 6
  23865011.896    -4700406.521 6  -3662665.871 4
 91 11  5 15 49 30.0020000  0  6 16 12 20 17 24  3
  22059956.409   -11893527.991 7  -9267685.996 8
  25138347.680    20377782.575 5  15878783.382 2
  21172744.019    -8647266.769 8  -6738139.189 9
  24825975.930     -462621.717 5   -360484.368 3
  23201355.336    14098851.403 6  10986099.534 6
  23858984.870    -4732083.664 6  -3687349.410 1
 91 11  5 15 50  0.0020000  0  6 16 12 20 17 24  3
  22058170.850   -11902904.842 7  -9274992.633 8
  25164008.722    20512647.769 4  15983873.278 2
  21175780.915    -8631289.314 8  -6725689.280 9
  24813517.155     -528095.802 4   -411503.182 2
  23221624.907    14205345.603 6  11069081.864 5
  23852965.034    -4763695.028 6  -3711981.697 3
 91 11  5 15 50 30.0020000  0  6 16 12 20 17 24  3
  22056495.908   -11911697.070 7  -9281843.720 8
  25189679.650    20647562.357 4  16089001.654 2
  21178940.722    -8614682.237 8  -6712748.757 9
  24801106.351     -593332.864 4   -462337.301 2
  23241917.853    14312003.200 7  11152191.502 6
  23846961.993    -4795233.253 5  -3736556.990 2
 91 11  5 15 51  0.0020000  0  6 16 12 20 17 24  3
  22054936.382   -11919899.160 8  -9288234.952 8
  25215367.662    20782527.254 4  16194169.194 3
  21182226.153    -8597440.861 8  -6699313.971 9
  24788724.025     -658328.176 4   -512983.044 3
  23262246.780    14418826.435 7  11235430.242 5
  23840977.537    -4826694.665 6  -3761072.436 3
 91 11  5 15 51 30.0020000  0  6 16 12 20 17 24  3
  22053486.889   -11927515.907 7  -9294170.084 8
  25241067.069    20917532.601 4  16299368.269 3
  21185627.593    -8579570.878 8  -6685389.353 9
  24776411.544     -723087.448 4   -563444.840 2
  23282607.188    14525806.953 7  11318791.510 5
  23835005.069    -4858085.863 6  -3785533.175 4
 91 11  5 15 52  0.0020000  0  6 16 12 20 17 24  3
  22052151.616   -11934539.575 7  -9299643.085 8
  25266765.883    21052581.880 4  16404601.562 3
  21189148.358    -8561064.971 8  -6670969.215 9
  24764135.648     -787603.555 4   -613717.155 2
  23302990.378    14632950.131 6  11402279.534 5
  23829044.598    -4889400.589 6  -3809934.288 3
 91 11  5 15 52 30.0020000  0  6 16 12 20 17 24  3
  22050926.357   -11940974.812 7  -9304657.580 8
  25292460.796    21187665.549 3  16509861.645 2
  21192788.735    -8541927.996 8  -6656057.338 9
  24751906.212     -851881.478 4   -663803.834 4
  23323412.839    14740248.017 6  11485888.112 5
  23823100.312    -4920644.964 6  -3834280.609 2
 91 11  5 15 53  0.0020000  0  6 16 12 20 17 24  3
  22049810.835   -11946821.849 8  -9309213.731 8
  25318174.896    21322778.105 3  16615144.217 1
  21196552.031    -8522161.254 8  -6640654.727 9
  24739712.751     -915921.793 4   -713705.358 2
  23343861.082    14847696.576 6  11569614.091 6
  23817164.420    -4951821.602 6  -3858574.134 4
 91 11  5 15 53 30.0020000  0  5 16 20 17 24  3
  22048807.124   -11952088.982 7  -9313318.004 8
  21200428.649    -8501773.350 8  -6624768.088 9
  24727577.154     -979733.076 4   -763428.434 3
  23364333.905    14955284.777 6  11653448.875 6
  23811240.219    -4982939.436 6  -3882821.828 3
 91 11  5 15 54  0.0020000  0  5 16 20 17 24  3
  22047918.847   -11956763.171 7  -9316960.260 9
  21204429.077    -8480751.810 8  -6608387.732 9
  24715476.928    -1043303.268 4   -812963.613 2
  23384832.815    15063022.845 6  11737400.441 5
  23805342.700    -5013987.011 6  -3907014.779 5
 91 11  5 15 54 30.0020000  0  5 16 20 17 24  3
  22047144.782   -11960844.211 7  -9320140.310 8
  21208553.322    -8459097.521 8  -6591514.310 9
  24703419.875    -1106632.029 4   -862310.665 2
  23405369.496    15170908.031 6  11821466.641 5
  23799443.392    -5044965.606 6  -3931153.958 2
 91 11  5 15 55  0.0020000  0  5 16 20 17 24  3
  22046476.840   -11964338.705 8  -9322863.318 7
  21212792.992    -8436818.262 8  -6574153.907 9
  24691423.086    -1169727.350 4   -911475.858 3
  23425923.567    15278929.754 6  11905639.226 6
  23793552.766    -5075884.411 6  -3955246.565 4
 91 11  5 15 55 30.0020000  0  5 16 20 17 24  3
  22045928.824   -11967229.408 7  -9325115.823 8
  21217151.368    -8413897.083 8  -6556293.299 9
  24679459.862    -1232571.608 5   -960445.416
  23446501.326    15387102.789 6  11989929.723 5
  23787690.025    -5106726.620 6  -3979279.484 2
 91 11  5 15 56  0.0020000  0  6 16 12 20 17 24  3
  22045496.521   -11969500.090 7  -9326885.208 8
  25472526.940      130725.61314    101856.433 2
  21221641.361    -8390318.262 8  -6537920.235 9
  24667552.113    -1295148.861 5  -1009206.902 2
  23467121.350    15495440.574 6  12074348.594 5
  23781843.469    -5137477.604 6  -4003241.323 4
 91 11  5 15 56 30.0020000  0  6 16 12 20 17 24  3
  22045179.939   -11971152.193 7  -9328172.575 8
  25498277.014      265993.545 4    207260.022 2
  21226250.670    -8366084.199 8  -6519036.618 9
  24655692.919    -1357461.420 5  -1057762.125 2
  23487764.757    15603937.785 6  12158891.701 6
  23776006.214    -5168140.249 6  -4027134.330 3
 91 11  5 15 57  0.0020000  0  6 16 12 20 17 24  3
  22044986.574   -11972179.091 7  -9328972.752 9
  25524010.292      401291.491 4    312686.998 2
  21230989.190    -8341188.774 8  -6499637.657 9
  24643887.393    -1419502.700 5  -1106105.966 3
  23508444.443    15712599.036 7  12243562.606 5
  23770180.642    -5198709.279 6  -4050954.393 3
 91 11  5 15 57 30.0020000  0  6 16 12 20 17 24  3
  22044913.728   -11972578.351 7  -9329283.860 8
  25549755.575      536617.509 4    418135.899 2
  21235852.129    -8315630.183 8  -6479721.928 9
  24632127.735    -1481270.996 5  -1154237.106 3
  23529156.804    15821423.658 7  12328360.844 5
  23764391.655    -5229183.872 6  -4074700.881 4
 91 11  5 15 58  0.0020000  0  6 16 12 20 17 24  3
  22044955.093   -11972350.678 7  -9329106.456 8
  25575518.239      671966.431 5    523602.661 3
  21240842.167    -8289410.029 8  -6459290.694 9
  24620419.337    -1542767.367 4  -1202156.374 3
  23549897.941    15930407.770 7  12413283.366 5
  23758605.058    -5259566.021 6  -4098375.311 3
 91 11  5 15 58 30.0020000  0  6 16 12 20 17 24  3
  22045116.979   -11971491.925 7  -9328437.292 8
  25601292.298      807338.219 5    629087.194 2
  21245959.330    -8262524.852 8  -6438341.264 9
  24608782.598    -1603987.962 5  -1249860.725 4
  23570658.273    16039553.024 6  12498331.433 5
  23752839.148    -5289852.681 6  -4121975.342 3
 91 11  5 15 59  0.0020000  0  6 16 12 20 17 24  3
  22045399.088   -11970004.276 7  -9327278.084 8
  25627052.257      942726.740 4    734584.736 1
  21251202.702    -8234977.657 8  -6416875.982 9
  24597180.027    -1664935.139 5  -1297352.044 3
  23591467.771    16148854.920 6  12583501.554 5
  23747095.732    -5320046.904 6  -4145503.352 5
 91 11  5 15 59 30.0030000  0  5 16 20 17 24  3
  22045801.406   -11967879.733 7  -9325622.570 7
  21256571.378    -8206760.035 8  -6394888.281 9
  24585631.118    -1725603.096 4  -1344625.755 3
  23612294.653    16258321.752 6  12668800.196 5
  23741367.893    -5350143.211 6  -4168955.037 3
 91 11  5 16  0  0.0030000  0  5 16 20 17 24  3
  22046330.244   -11965122.138 8  -9323473.781 8
  21262068.973    -8177878.074 8  -6372382.912 9
  24574141.877    -1785991.791 4  -1391681.857 3
  23633152.706    16367940.249 6  12754217.007 5
  23735658.042    -5380144.330 6  -4192332.584 3
 91 11  5 16  0 30.0030000  0  5 16 20 17 24  3
  22046975.099   -11961731.498 7  -9320831.708 8
  21267688.885    -8148332.328 8  -6349360.318 9
  24562708.992    -1846103.632 4  -1438522.231 2
  23654038.654    16477710.687 6  12839752.201 5
  23729970.685    -5410052.902 6  -4215638.004 2
 91 11  5 16  1  0.0030000  0  5 16 20 17 24  3
  22047740.771   -11957713.496 7  -9317700.806 8
  21273436.507    -8118128.713 8  -6325825.089 9
  24551320.177    -1905944.511 4  -1485151.470 4
  23674953.970    16587625.038 6  12925399.541 5
  23724293.213    -5439875.562 6  -4238876.479 4
 91 11  5 16  1 30.0030000  0  5 16 20 17 24  3
  22048625.453   -11953057.266 7  -9314072.564 8
  21279309.744    -8087257.652 8  -6301769.760 9
  24539995.212    -1965504.243 4  -1531561.639 2
  23695909.160    16697690.842 6  13011164.888 4
  23718633.732    -5469602.844 6  -4262040.630 3
 91 11  5 16  2  0.0030000  0  5 16 20 17 24  3
  22049639.355   -11947753.079 8  -9309939.436 8
  21285311.886    -8055708.836 8  -6277186.329 9
  24528712.530    -2024772.359 4  -1577744.549 3
  23716877.551    16807916.530 6  13097054.845 4
  23713006.028    -5499225.138 6  -4285122.980 4
 91 11  5 16  2 30.0030000  0  5 16 20 17 24  3
  22050768.070   -11941796.944 7  -9305298.296 8
  21291445.935    -8023479.002 8  -6252072.238 9
  24517487.093    -2083745.322 4  -1623697.485 3
  23737886.705    16918303.231 6  13183070.241 5
  23707381.020    -5528739.560 6  -4308121.255 3
 91 11  5 16  3  0.0030000  0  5 16 20 17 24  3
  22052025.698   -11935186.755 7  -9300147.509 7
  21297712.500    -7990567.305 8  -6226426.809 9
  24506309.338    -2142421.521 4  -1669419.172 3
  23758918.345    17028850.356 6  13269210.645 4
  23701782.999    -5558145.178 6  -4331034.769 2
 91 11  5 16  3 30.0030000  0  5 16 20 17 24  3
  22053410.146   -11927907.896 7  -9294475.695 8
  21304104.078    -7956960.064 8  -6200239.411 9
  24495207.423    -2200786.607 4  -1714898.445 2
  23779996.454    17139569.725 6  13355485.263 5
  23696215.551    -5587428.697 6  -4353853.148 3
 91 11  5 16  4  0.0030000  0  5 16 20 17 24  3
  22054923.193   -11919965.860 7  -9288287.111 8
  21310633.252    -7922663.497 8  -6173514.869 9
  24484165.466    -2258845.953 5  -1760139.438 3
  23801093.750    17250453.292 6  13441887.856 5
  23690666.093    -5616596.308 6  -4376581.200 5
 91 11  5 16  4 30.0030000  0  5 16 20 17 24  3
  22056559.465   -11911355.221 7  -9281577.563 8
  21317292.543    -7887672.396 8  -6146249.134 9
  24473180.170    -2316594.171 5  -1805138.029 3
  23822228.215    17361504.458 6  13528421.025 5
  23685131.321    -5645643.606 6  -4399215.524 4
 91 11  5 16  5  0.0030000  0  5 16 20 17 24  3
  22058331.535   -11902059.000 7  -9274333.776 8
  21324085.843    -7851970.981 8  -6118429.895 9
  24462252.739    -2374014.700 4  -1849881.271 2
  23843389.064    17472737.423 6  13615095.843 5
  23679639.126    -5674554.302 6  -4421743.384 4
 91 11  5 16  5 30.0030000  0  5 16 20 17 24  3
  22060230.424   -11892072.970 7  -9266552.486 8
  21331015.246    -7815556.009 8  -6090054.661 9
  24451386.157    -2431103.459 5  -1894365.991 1
  23864593.688    17584154.051 6  13701913.761 5
  23674161.922    -5703325.402 6  -4444162.461 4
 91 11  5 16  6  0.0030000  0  5 16 20 17 24  3
  22062259.718   -11881403.946 7  -9258238.995 8
  21338079.251    -7778434.263 8  -6061128.677 9
  24440587.334    -2487867.311 5  -1938597.509 2
  23885829.180    17695745.645 6  13788868.023 5
  23668708.397    -5731963.817 6  -4466478.151 3
 91 11  5 16  6 30.0030000  0  5 16 20 17 24  3
  22064423.022   -11870037.376 7  -9249381.960 8
  21345280.868    -7740592.146 8  -6031641.361 9
  24429850.869    -2544291.322 5  -1982564.204 3
  23907095.560    17807524.817 6  13875968.449 5
  23663287.548    -5760455.494 6  -4488679.525 4
 91 11  5 16  7  0.0030000  0  5 16 20 17 24  3
  22066716.731   -11857976.193 7  -9239983.676 9
  21352618.886    -7702033.448 8  -6001595.676 9
  24419171.659    -2600378.724 5  -2026268.647 3
  23928405.112    17919485.346 6  13963210.189 4
  23657897.874    -5788804.658 6  -4510769.837 2
 91 11  5 16  7 30.0030000  0  5 16 20 17 24  3
  22069145.950   -11845215.811 7  -9230040.563 9
  21360093.311    -7662754.575 8  -5970988.837 9
  24408564.404    -2656124.731 5  -2069707.065 3
  23949744.939    18031629.929 6  14050595.346 4
  23652526.793    -5817007.462 6  -4532746.104 2
 91 11  5 16  8  0.0030000  0  5 16 20 17 24  3
  22071710.372   -11831748.479 7  -9219546.567 9
  21367705.044    -7622747.745 8  -5939814.740 9
  24398025.502    -2711521.363 5  -2112873.249 2
  23971124.632    18143964.701 6  14138128.711 4
  23647192.593    -5845056.257 6  -4554602.387 3
 91 11  5 16  8 30.0030000  0  5 16 20 17 24  3
  22074408.804   -11817577.876 8  -9208504.571 8
  21375455.584    -7582017.657 8  -5908077.051 9
  24387544.753    -2766572.801 5  -2155770.419 2
  23992539.408    18256483.250 6  14225805.285 5
  23641882.369    -5872955.743 6  -4576342.288 3
 91 11  5 16  9  0.0030000  0  5 16 20 17 24  3
  22077235.844   -11802699.919 7  -9196911.394 9
  21383341.922    -7540561.146 8  -5875773.340 9
  24377140.453    -2821275.195 5  -2198395.600 3
  24013980.866    18369187.727 6  14313626.735 4
  23636600.023    -5900702.804 6  -4597963.422 2
 91 11  5 16  9 30.0030000  0  5 16 20 17 24  3
  22080198.996   -11787115.412 7  -9184767.663 8
  21391372.757    -7498379.332 8  -5842904.452 9
  24366793.120    -2875628.393 5  -2240748.731 2
  24035459.798    18482075.786 6  14401591.235 4
  23631350.657    -5928297.972 6  -4619466.193 3
 91 11  5 16 10  0.0030000  0  5 16 20 17 24  3
  22083302.151   -11770835.590 7  -9172082.116 9
  21399532.810    -7455485.182 8  -5809480.493 9
  24356516.233    -2929644.875 5  -2282839.498 4
  24056978.900    18595132.779 6  14489687.356 3
  23626126.472    -5955753.784 6  -4640860.372 4
 91 11  5 16 10 30.0030000  0  5 16 20 17 24  3
  22086533.015   -11753855.885 7  -9158851.203 9
  21407832.867    -7411874.403 8  -5775498.120 9
  24346305.003    -2983319.286 5  -2324663.667 3
  24078524.388    18708361.909 6  14577918.122 4
  23620929.867    -5983065.685 6  -4662142.396 3
 91 11  5 16 11  0.0030000  0  5 16 20 17 24  3
  22089893.988   -11736184.795 7  -9145081.539 8
  21416267.229    -7367555.862 8  -5740964.256 9
  24336151.934    -3036659.673 5  -2366227.583 4
  24100105.543    18821752.856 6  14666274.461 5
  23615756.348    -6010242.351 6  -4683319.067 3
 91 11  5 16 11 30.0030000  0  5 16 20 17 24  3
  22093392.259   -11717819.946 7  -9130771.296 9
  21424836.193    -7322527.822 8  -5705877.526 9
  24326066.912    -3089663.778 5  -2407529.476 2
  24121711.286    18935306.119 6  14754757.290 5
  23610610.419    -6037281.717 6  -4704388.750 4
 91 11  5 16 12  0.0030000  0  5 16 20 17 24  3
  22097015.858   -11698765.998 7  -9115924.086 9
  21433537.674    -7276795.151 8  -5670241.735 9
  24316040.052    -3142335.290 5  -2448572.187 4
  24143356.004    19049016.049 6  14843362.191 4
  23605489.661    -6064188.537 6  -4725355.145 5
 91 11  5 16 12 30.0030000  0  5 16 20 17 24  3
  22100773.754   -11679019.720 7  -9100537.381 8
  21442376.750    -7230356.434 8  -5634055.779 9
  24306080.654    -3194672.028 5  -2489354.041 5
  24165016.305    19162882.294 6  14932088.918 2
  23600401.282    -6090961.149 6  -4746216.959 3
 91 11  5 16 13  0.0030000  0  5 16 20 17 24  3
  22104663.259   -11658591.118 7  -9084619.007 9
  21451345.046    -7183221.629 8  -5597327.411 9
  24296191.694    -3246683.082 5  -2529882.098 4
  24186711.689    19276894.094 6  15020929.031 4
  23595320.695    -6117608.788 6  -4766981.399 2
 91 11  5 16 13 30.0030000  0  5 16 20 17 24  3
  22108681.381   -11637484.824 7  -9068172.549 9
  21460446.146    -7135396.834 8  -5560061.394 9
  24286346.813    -3298373.291 5  -2570160.150 3
  24208442.742    19391044.373 6  15109877.052 4
  23590277.888    -6144136.821 6  -4787652.642 3
 91 11  5 16 14  0.0030000  0  5 16 20 17 24  3
  22112824.508   -11615693.333 7  -9051192.191 9
  21469679.152    -7086874.719 8  -5522252.026 9
  24276566.385    -3349734.884 5  -2610182.143 3
  24230187.886    19505339.197 6  15198938.196 5
  23585254.266    -6170537.877 6  -4808224.933 3
 91 11  5 16 14 30.0030000  0  5 16 20 17 24  3
  22117101.652   -11593215.244 7  -9033676.803 8
  21479043.767    -7037654.436 8  -5483898.616 9
  24266865.399    -3400765.701 5  -2649946.380 4
  24251963.917    19619778.631 6  15288112.004 4
  23580250.129    -6196810.156 6  -4828696.855 5
 91 11  5 16 15  0.0030000  0  5 16 20 17 24  3
  22121509.498   -11570046.392 8  -9015623.169 9
  21488544.190    -6987732.722 8  -5444998.638 9
  24257218.081    -3451461.509 5  -2689449.593 4
  24273765.119    19734364.783 6  15377400.131 4
  23575276.572    -6222950.002 6  -4849065.594 5
 91 11  5 16 15 30.0030000  0  5 16 20 17 24  3
  22126051.956   -11546180.800 7  -8997026.617 9
  21498179.816    -6937104.419 8  -5405548.076 9
  24247628.916    -3501816.548 5  -2728687.264 3
  24295600.804    19849101.702 6  15466805.274 4
  23570332.995    -6248952.140 6  -4869327.025 5
 91 11  5 16 16  0.0030000  0  5 16 20 17 24  3
  22130726.616   -11521621.210 7  -8977889.296 9
  21507946.755    -6885772.652 8  -5365549.381 9
  24238116.497    -3551833.035 5  -2767661.139 3
  24317463.475    19963985.414 6  15556325.278 5
  23565408.308    -6274818.453 6  -4889482.633 3
 91 11  5 16 16 30.0030000  0  5 16 20 17 24  3
  22135533.191   -11496359.243 7  -8958204.651 9
  21517852.502    -6833729.917 8  -5324996.670 9
  24228655.050    -3601501.993 5  -2806364.203 4
  24339357.015    20079022.343 6  15645964.673 3
  23560514.796    -6300541.000 6  -4909526.203 4
 91 11  5 16 17  0.0030000  0  5 16 20 17 24  3
  22140478.269   -11470378.247 8  -8937959.725 9
  21527890.155    -6780960.885 8  -5283878.012 9
  24219282.337    -3650807.258 5  -2844783.856 4
  24361273.939    20194227.433 6  15735735.104 4
  23555652.764    -6326103.665 6  -4929445.183 3
 91 11  5 16 17 30.0030000  0  5 16 20 17 24  3
  22145548.360   -11443700.202 7  -8917171.671 8
  21538067.803    -6727487.689 8  -5242210.652 9
  24209965.387    -3699769.998 5  -2882936.622 3
  24383226.243    20309577.666 6  15825618.142 3
  23550813.513    -6351527.890 6  -4949256.297 4
 91 11  5 16 18  0.0030000  0  5 16 20 17 24  3
  22150765.042   -11416326.529 7  -8895841.555 8
  21548377.365    -6673312.779 8  -5199996.518 9
  24200720.986    -3748391.052 5  -2920823.142 3
  24405205.831    20425070.068 6  15915612.432 3
  23546001.241    -6376814.866 6  -4968960.464 5
 91 11  5 16 18 30.0030000  0  5 16 20 17 24  3
  22156103.150   -11388264.928 8  -8873975.389 8
  21558819.436    -6618444.281 8  -5157241.923 9
  24191523.953    -3796678.035 5  -2958449.328 3
  24427211.192    20540695.303 6  16005710.237 2
  23541217.159    -6401972.405 6  -4988563.771 5
 91 11  5 16 19  0.0030000  0  5 16 20 17 24  3
  22161573.165   -11359518.007 8  -8851575.202 9
  21569389.521    -6562885.184 8  -5113949.187 9
  24182401.573    -3844632.459 5  -2995816.374 2
  24449241.141    20656449.872 5  16095908.835 3
  23536452.551    -6427002.523 6  -5008067.779 5
 91 11  5 16 19 30.0030000  0  5 16 20 17 24  3
  22167175.680   -11330081.892 8  -8828638.006 9
  21580095.108    -6506632.676 8  -5070116.129 9
  24173335.548    -3892250.601 5  -3032921.393 3
  24471281.586    20772335.649 5  16186209.673 4
  23531712.531    -6451901.750 6  -5027469.825 3
 91 11  5 16 20  0.0030000  0  5 16 20 17 24  3
  22172905.319   -11299970.400 8  -8805174.541 8
  21590928.709    -6449701.749 8  -5025754.448 9
  24164340.571    -3939545.697 5  -3069774.691 3
  24493358.904    20888337.473 5  16276600.927 4
  23526994.097    -6476683.474 6  -5046780.302 5
 91 11  5 16 20 30.0030000  0  5 16 20 17 24  3
  22178765.364   -11269173.511 7  -8781177.007 8
  21601893.623    -6392082.814 8  -4980856.652 9
  24155400.467    -3986507.293 5  -3106368.107 4
  24515462.902    21004464.023 6  16367089.384 2
  23522301.149    -6501337.505 6  -5065991.288 5
 91 11  5 16 21  0.0030000  0  5 16 20 17 24  3
  22184756.111   -11237685.549 7  -8756640.966 9
  21612988.341    -6333770.473 8  -4935418.529 9
  24146534.098    -4033129.022 6  -3142696.692 3
  24537581.882    21120720.056 6  16457678.738 3
  23517639.681    -6525857.579 6  -5085097.895 5
 91 11  5 16 21 30.0030000  0  5 16 20 17 24  3
  22190878.773   -11205504.300 8  -8731564.707 8
  21624221.264    -6274763.283 8  -4889438.974 9
  24137719.007    -4079407.930 5  -3178758.126 2
  24559728.756    21237106.586 6  16548369.790 3
  23513002.486    -6550241.183 6  -5104098.157 4
 91 11  5 16 22  0.0030000  0  5 16 20 17 24  3
  22197134.545   -11172637.168 8  -8705954.003 9
  21635578.302    -6215070.182 8  -4842924.942 9
  24128974.956    -4125352.145 5  -3214558.750 4
  24581910.095    21353614.093 6  16639154.625 3
  23508385.979    -6574496.229 6  -5122998.274 4
 91 11  5 16 22 30.0030000  0  5 16 20 17 24  3
  22203520.121   -11139074.927 7  -8679801.665 9
  21647066.950    -6154682.542 8  -4795869.726 9
  24120301.963    -4170951.566 5  -3250090.725 4
  24604097.436    21470251.553 6  16730041.180 4
  23503796.764    -6598612.843 6  -5141790.510 5
 91 11  5 16 23  0.0030000  0  5 16 20 17 24  3
  22210037.908   -11104813.280 7  -8653104.328 8
  21658693.794    -6093596.437 8  -4748270.221 9
  24111694.922    -4216200.821 5  -3285349.827 2
  24626321.352    21587021.872 5  16821031.285 3
  23499229.422    -6622585.509 6  -5160470.574 4
 91 11  5 16 23 30.0030000  0  5 16 20 17 24  3
  22216696.004   -11069849.223 8  -8625859.651 9
  21670449.561    -6031809.054 8  -4700124.285 9
  24103152.037    -4261096.535 5  -3320333.432 2
  24648564.752    21703927.562 5  16912126.863 3
  23494698.656    -6646410.632 6  -5179035.673 3
 91 11  5 16 24  0.0030000  0  5 16 20 17 24  3
  22223479.104   -11034194.579 8  -8598076.868 8
  21682342.626    -5969333.183 8  -4651441.858 9
  24094670.908    -4305649.202 5  -3355049.724 4
  24670831.841    21820955.350 5  17003317.577 3
  23490191.579    -6670099.704 6  -5197494.750 5
 91 11  5 16 24 30.0040000  0  5 16 20 17 24  3
  22230398.319   -10997848.357 8  -8569755.206 9
  21694359.207    -5906167.749 8  -4602222.122 9
  24086256.033    -4349860.710 5  -3389500.192 3
  24693131.303    21938107.702 5  17094605.345 4
  23485712.077    -6693653.721 6  -5215848.594 4
 91 11  5 16 25  0.0040000  0  5 16 20 17 24  3
  22237442.536   -10960814.948 7  -8540898.056 9
  21706509.497    -5842320.015 8  -4552470.711 9
  24077910.414    -4393729.711 5  -3423683.748 4
  24715449.346    22055373.310 5  17185980.889 2
  23481250.265    -6717072.347 6  -5234096.947 5
 91 11  5 16 25 30.0040000  0  5 16 20 17 24  3
  22244626.468   -10923097.949 8  -8511508.238 8
  21718786.597    -5777793.016 8  -4502189.996 9
  24069628.043    -4437261.539 5  -3457604.603 5
  24737785.389    22172750.809 6  17277444.120 4
  23476819.934    -6740360.524 6  -5252243.615 4
 91 11  5 16 26  0.0040000  0  5 16 20 17 24  3
  22251925.213   -10884704.690 7  -8481591.475 9
  21731197.707    -5712595.134 8  -4451386.523 9
  24061405.038    -4480462.704 5  -3491267.785 5
  24760133.115    22290231.828 5  17368988.005 3
  23472409.392    -6763524.676 6  -5270293.644 5
 91 11  5 16 26 30.0040000  0  5 16 20 17 24  3
  22259363.665   -10845632.549 8  -8451145.717 8
  21743730.226    -5646724.457 8  -4400058.793 9
  24053247.681    -4523329.737 5  -3524670.601 4
  24782516.518    22407818.149 5  17460613.926 3
  23468030.923    -6786561.786 7  -5288244.674 5
 91 11  5 16 27  0.0040000  0  5 16 20 17 24  3
  22266926.232   -10805887.312 8  -8420175.452 9
  21756394.364    -5580187.049 8  -4348211.536 9
  24045148.494    -4565867.400 5  -3557816.787 4
  24804902.321    22525503.848 5  17552317.311 4
  23463667.740    -6809476.317 7  -5306100.193 4
 91 11  5 16 27 30.0040000  0  5 16 20 17 24  3
  22274615.906   -10765466.225 7  -8388678.548 9
  21769184.109    -5512980.986 8  -4295843.238 9
  24037116.752    -4608073.073 6  -3590704.262 4
  24827320.205    22643290.079 5  17644098.976 3
  23459336.038    -6832265.488 6  -5323858.037 4
 91 11  5 16 28  0.0040000  0  5 16 20 17 24  3
  22282437.486   -10724369.558 8  -8356655.225 8
  21782097.968    -5445107.734 8  -4242955.053 9
  24029149.768    -4649946.920 6  -3623333.192 5
  24849756.072    22761175.433 5  17735957.931 4
  23455021.131    -6854928.899 6  -5341517.879 4
 91 11  5 16 28 30.0040000  0  5 16 20 17 24  3
  22290385.886   -10682604.875 8  -8324111.373 8
  21795138.036    -5376575.287 8  -4189553.221 9
  24021244.540    -4691495.241 6  -3655708.474 5
  24872205.132    22879151.877 5  17827887.816 4
  23450731.396    -6877473.025 7  -5359084.769 5
 91 11  5 16 29  0.0040000  0  5 16 20 17 24  3
  22298461.096   -10640171.975 7  -8291046.834 9
  21808305.822    -5307383.539 8  -4135637.658 9
  24013400.169    -4732715.975 6  -3687828.509 6
  24894681.169    22997219.803 5  17919888.987 4
  23446462.052    -6899896.012 7  -5376557.265 5
 91 11  5 16 29 30.0040000  0  5 16 20 17 24  3
  22306663.720   -10597055.404 7  -8257449.552 9
  21821600.724    -5237518.150 8  -4081197.157 9
  24005625.652    -4773593.107 6  -3719680.779 3
  24917162.311    23115393.660 5  18011972.678 4
  23442223.883    -6922181.620 7  -5393922.713 6
 91 11  5 16 30  0.0040000  0  5 16 20 17 24  3
  22314997.045   -10553249.295 7  -8223314.953 8
  21835023.632    -5166974.350 8  -4026228.034 9
  23997910.196    -4814120.819 6  -3751260.772 4
  24939662.334    23233677.706 5  18104142.248 4
  23438009.106    -6944324.256 7  -5411176.738 4
 91 11  5 16 30 30.0040000  0  5 16 20 17 24  3
  22323466.482   -10508766.410 8  -8188653.006 8
  21848577.844    -5095765.257 8  -3970740.498 9
  23990264.584    -4854310.894 6  -3782577.699 4
  24962192.031    23352059.003 5  18196387.634 2
  23433819.806    -6966334.741 6  -5428327.796 4
 91 11  5 16 31  0.0040000  0  5 16 20 17 24  3
  22332055.837   -10463629.432 7  -8153481.384 9
  21862248.676    -5023914.769 8  -3914753.193 9
  23982670.842    -4894185.256 6  -3813648.620 3
  24984734.929    23470514.214 6  18288690.619 2
  23429652.685    -6988235.664 7  -5445393.479 5
 91 11  5 16 31 30.0040000  0  5 16 20 17 24  3
  22340761.811   -10417862.212 7  -8117818.641 9
  21876041.232    -4951446.974 8  -3858284.853 9
  23975148.446    -4933766.516 6  -3844491.146 4
  25007293.410    23589018.967 6  18381032.182 2
  23425504.157    -7010048.936 7  -5462390.862 3
 91 11  5 16 32  0.0040000  0  5 16 20 17 24  3
  22349596.098   -10371467.490 7  -8081666.938 8
  21889945.304    -4878365.295 8  -3801338.167 9
  23967663.236    -4973056.438 5  -3875106.658 4
  25029851.594    23707570.131 6  18473409.908 4
  23421367.924    -7031776.335 7  -5479321.341 5
 91 11  5 16 32 30.0040000  0  5 16 20 17 24  3
  22358542.807   -10324445.310 8  -8045026.319 8
  21903968.997    -4804670.586 8  -3743913.801 9
  23960241.868    -5012054.481 6  -3905494.743 5
  25052421.470    23826167.603 5  18565823.710 2
  23417248.477    -7053416.387 7  -5496183.759 5
 91 11  5 16 33  0.0040000  0  5 16 20 17 24  3
  22367608.526   -10276797.845 7  -8007898.462 9
  21918110.811    -4730365.690 8  -3686013.967 9
  23952878.670    -5050761.683 6  -3935656.187 4
  25074991.948    23944808.395 5  18658271.266 2
  23413145.817    -7074970.718 7  -5512979.356 5
 91 11  5 16 33 30.0040000  0  5 16 20 17 24  3
  22376797.165   -10228518.098 7  -7970277.922 9
  21932366.836    -4655444.331 8  -3627633.770 9
  23945564.333    -5089170.392 6  -3965585.054 5
  25097581.002    24063498.860 5  18750757.505 2
  23409062.946    -7096431.363 6  -5529701.959 4
 91 11  5 16 34  0.0040000  0  5 16 20 17 24  3
  22386103.620   -10179597.078 7  -7932157.673 8
  21946739.193    -4579898.461 8  -3568766.935 9
  23938317.746    -5127270.654 6  -3995273.581 3
  25120180.265    24182247.989 5  18843289.468 4
  23404997.159    -7117787.756 7  -5546343.337 5
 91 11  5 16 34 30.0040000  0  5 16 20 17 24  3
  22395536.893   -10130034.294 7  -7893537.367 9
  21961234.757    -4503727.551 8  -3509413.066 9
  23931126.930    -5165060.443 6  -4024720.171 5
  25142787.606    24301056.070 5  18935867.356 2
  23400955.060    -7139037.644 7  -5562901.736 5
 91 11  5 16 35  0.0040000  0  5 16 20 17 24  3
  22405088.279   -10079832.764 7  -7854419.359 8
  21975853.232    -4426935.604 8  -3449575.265 9
  23923999.362    -5202541.974 6  -4053926.553 4
  25165399.755    24419919.223 5  19028488.148 2
  23396931.241    -7160183.291 6  -5579378.898 5
 91 11  5 16 35 30.0040000  0  5 16 20 17 24  3
  22414764.983   -10028992.524 7  -7814803.639 8
  21990580.239    -4349523.382 8  -3389254.139 9
  23916925.759    -5239714.326 6  -4082892.015 3
  25188037.984    24538838.051 5  19121152.327 4
  23392925.412    -7181223.164 7  -5595773.646 5
 91 11  5 16 36  0.0040000  0  5 16 20 17 24  3
  22424562.495    -9977507.927 7  -7774685.829 9
  22005431.055    -4271486.182 8  -3328446.010 9
  23909908.818    -5276571.414 6  -4111611.797 5
  25210681.308    24657816.817 5  19213863.253 2
  23388947.173    -7202150.113 7  -5612080.392 5
 91 11  5 16 36 30.0040000  0  5 16 20 17 24  3
  22434484.130    -9925359.632 7  -7734050.844 9
  22020405.086    -4192805.629 8  -3267136.576 9
  23902959.626    -5313093.107 6  -4140070.250 4
  25233336.027    24776874.711 5  19306635.854 2
  23384989.306    -7222944.104 7  -5628283.537 5
 91 11  5 16 37  0.0040000  0  5 16 20 17 24  3
  22444536.171    -9872520.504 7  -7692877.551 8
  22035506.234    -4113455.186 8  -3205305.132 9
  23896078.490    -5349250.423 6  -4168244.762 3
  25256007.533    24896039.524 5  19399491.722 3
  23381060.826    -7243576.079 6  -5644360.440 5
 91 11  5 16 37 30.0040000  0  5 16 20 17 24  3
  22454723.120    -9819009.391 7  -7651180.652 8
  22050725.800    -4033454.095 8  -3142966.705 9
  23889266.903    -5385061.416 6  -4196149.403 5
  25278706.017    25015291.675 5  19492415.659 2
  23377161.130    -7264063.349 6  -5660324.585 5
 91 11  5 16 38  0.0040000  0  5 16 20 17 24  3
  22465030.885    -9764836.397 7  -7608967.996 8
  22066071.277    -3952812.903 8  -3080129.482 9
  23882515.282    -5420535.024 6  -4223791.133 5
  25301412.293    25134621.433 5  19585400.030 2
  23373285.707    -7284414.048 7  -5676182.311 5
 91 11  5 16 38 30.0040000  0  5 16 20 17 24  3
  22475467.860    -9709994.628 7  -7566234.201 8
  22081541.471    -3871525.854 8  -3016789.014 9
  23875829.005    -5455663.071 6  -4251163.570 5
  25324138.959    25254035.308 5  19678450.001 2
  23369445.970    -7304620.247 7  -5691927.413 5
 91 11  5 16 39  0.0040000  0  5 16 20 17 24  3
  22486028.042    -9654492.303 7  -7522985.694 8
  22097133.371    -3789602.386 8  -2952952.619 9
  23869208.994    -5490453.586 6  -4278273.021 4
  25346871.925    25373524.405 5  19771558.553 2
  23365630.515    -7324688.968 7  -5707565.401 6
 91 11  5 16 39 30.0040000  0  5 16 20 17 24  3
  22496711.746    -9598349.382 7  -7479238.025 8
  22112839.797    -3707062.514 8  -2888635.929 9
  23862648.628    -5524924.704 6  -4305133.580 4
  25369630.368    25493069.383 5  19864710.680 1
  23361830.040    -7344638.376 7  -5723110.422 4
 91 11  5 16 40  0.0040000  0  5 16 20 17 24  3
  22507514.469    -9541573.894 7  -7434997.447 8
  22128659.851    -3623914.688 8  -2823845.493 9
  23856152.130    -5559083.271 6  -4331750.574 4
  25392387.014    25612662.033 5  19957899.919 2
  23358061.055    -7364474.168 7  -5738566.910 4
 91 11  5 16 40 30.0040000  0  5 16 20 17 24  3
  22518440.705    -9484163.877 7  -7390262.411 8
  22144599.516    -3540157.917 8  -2758580.556 9
  23849706.596    -5592926.345 6  -4358121.737 3
  25415158.353    25732304.695 5  20051128.078 3
  23354306.449    -7384193.103 7  -5753932.343 5
 91 11  5 16 41  0.0040000  0  5 16 20 17 24  3
  22529485.960    -9426133.693 7  -7345044.144 8
  22160651.300    -3455806.823 8  -2692852.513 9
  23843324.310    -5626466.258 6  -4384256.687 6
  25437915.600    25851983.150 4  20144384.187 2
  23350572.835    -7403807.686 7  -5769216.437 6
 91 11  5 16 41 30.0040000  0  5 16 20 17 24  3
  22540646.334    -9367481.296 7  -7299341.034 8
  22176818.211    -3370860.300 8  -2626660.499 9
  23837002.584    -5659700.485 6  -4410153.433 5
  25460703.124    25971699.370 5  20237669.683 2
  23346860.807    -7423314.137 7  -5784416.285 6
 91 11  5 16 42  0.0040000  0  5 16 20 17 24  3
  22551929.322    -9308180.280 7  -7253132.491 9
  22193101.131    -3285292.880 8  -2559984.675 9
  23830739.326    -5692601.256 6  -4435790.339 5
  25483497.838    26091479.835 5  20331005.264 4
  23343173.655    -7442684.351 7  -5799509.980 5
 91 11  5 16 42 30.0040000  0  5 16 20 17 24  3
  22563340.028    -9248221.706 7  -7206411.574 8
  22209501.282    -3199096.523 8  -2492818.752 9
  23824540.215    -5725159.100 6  -4461160.030 4
  25506308.448    26211333.477 5  20424397.878 3
  23339518.890    -7461907.760 7  -5814489.269 5
 91 11  5 16 43  0.0040000  0  5 16 20 17 24  3
  22574871.839    -9187621.080 7  -7159190.356 8
  22226021.046    -3112287.435 8  -2425175.399 9
  23818410.957    -5757388.270 6  -4486273.636 5
  25529125.655    26331244.916 6  20517835.544 4
  23335883.600    -7480998.182 7  -5829364.945 5
 91 11  5 16 43 30.0040000  0  5 16 20 17 24  3
  22586522.075    -9126396.451 7  -7111482.897 9
  22242650.231    -3024883.812 8  -2357068.764 9
  23812338.961    -5789305.104 6  -4511143.862 5
  25551952.154    26451196.655 6  20611304.601 4
  23332271.405    -7499970.975 7  -5844148.948 6
 91 11  5 16 44  0.0040000  0  5 16 20 17 24  3
  22598293.425    -9064552.086 7  -7063292.524 8
  22259397.842    -2936890.820 8  -2288502.884 9
  23806318.226    -5820912.255 6  -4535772.772 5
  25574786.148    26571184.855 5  20704802.088 4
  23328682.593    -7518828.984 7  -5858843.518 5
 91 11  5 16 44 30.0040000  0  5 16 20 17 24  3
  22610179.902    -9002092.078 7  -7014622.446 8
  22276252.771    -2848313.160 8  -2219481.413 9
  23800369.150    -5852212.606 6  -4560162.617 5
  25597621.031    26691205.540 5  20798324.893 3
  23325115.655    -7537573.988 7  -5873450.050 5
 91 11  5 16 45  0.0040000  0  5 16 20 17 24  3
  22622179.091    -8939028.752 7  -6965482.234 9
  22293217.725    -2759163.778 8  -2150014.454 9
  23794467.129    -5883217.837 6  -4584322.504 5
  25620464.021    26811246.981 5  20891863.818 2
  23321571.210    -7556216.460 7  -5887976.673 6
 91 11  5 16 45 30.0040000  0  5 16 20 17 24  3
  22634290.703    -8875373.283 7  -6915880.605 8
  22310291.803    -2669454.858 8  -2080111.489 9
  23788620.878    -5913937.708 6  -4608260.033 5
  25643311.809    26931297.487 5  20985409.825 2
  23318041.755    -7574766.108 7  -5902430.971 6
 91 11  5 16 46  0.0040000  0  5 16 20 17 24  3
  22646519.239    -8811119.067 7  -6865812.438 9
  22327472.310    -2579179.645 8  -2009767.274 9
  23782829.186    -5944363.145 6  -4631968.156 5
  25666167.083    27051365.399 5  21078969.380 3
  23314529.384    -7593213.322 7  -5916805.462 5
 91 11  5 16 46 30.0050000  0  5 16 20 17 24  3
  22658865.298    -8746238.848 7  -6815256.484 8
  22344763.141    -2488310.991 8  -1938960.623 9
  23777105.849    -5974469.169 6  -4655427.381 5
  25689016.960    27171479.548 5  21172564.999 2
  23311043.104    -7611531.738 7  -5931079.586 6
 91 11  5 16 47  0.0050000  0  5 16 20 17 24  3
  22671330.965    -8680744.325 7  -6764221.843 8
  22362162.500    -2396863.954 8  -1867703.284 9
  23771429.285    -6004260.615 6  -4678641.467 3
  25711879.136    27291624.287 4  21266184.442 2
  23307582.299    -7629726.059 7  -5945257.017 5
 91 11  5 16 47 30.0050000  0  5 16 20 17 24  3
  22683908.454    -8614641.664 7  -6712713.321 8
  22379671.874    -2304843.377 8  -1795999.023 9
  23765830.958    -6033744.589 6  -4701615.991 5
  25734754.504    27411796.933 4  21359825.656 1
  23304138.577    -7647802.056 7  -5959342.239 5
 91 11  5 16 48  0.0050000  0  5 16 20 17 24  3
  22696601.071    -8547934.678 7  -6660733.917 9
  22397290.382    -2212254.315 8  -1723851.815 9
  23760270.106    -6062923.656 6  -4724352.930 5
  25757620.868    27531994.014 4  21453485.816 2
  23300724.546    -7665761.834 7  -5973336.912 5
 91 11  5 16 48 30.0050000  0  4 16 20 17  3
  22709415.097    -8480612.588 8  -6608275.190 8
  22415021.906    -2119086.562 8  -1651253.645 9
  23754779.107    -6091785.811 6  -4746842.918 4
  23297328.795    -7683592.099 7  -5987230.648 5
 91 11  5 16 49  0.0050000  0  5 16 20 17 24  3
  22722345.150    -8412659.174 8  -6555324.540 9
  22432861.952    -2025324.950 8  -1578192.740 9
  23749349.568    -6120314.160 6  -4769072.803 5
  25803394.081       44111.45814     34356.298 2
  23293965.423    -7701275.112 7  -6001009.646 6
 91 11  5 16 49 30.0050000  0  5 16 20 17 24  3
  22735393.917    -8344073.303 7  -6501881.073 7
  22450819.823    -1930968.968 8  -1504668.682 9
  23743984.184    -6148505.665 6  -4791040.210 5
  25826303.023      164449.554 4    128126.375 3
  23290630.232    -7718807.451 7  -6014671.232 5
 91 11  5 16 50  0.0050000  0  5 16 20 17 24  3
  22748565.900    -8274865.468 7  -6447952.963 8
  22468884.411    -1836028.590 7  -1430689.278 9
  23738682.049    -6176368.031 6  -4812751.139 4
  25849201.469      284832.854 5    221931.673 2
  23287318.129    -7736195.837 7  -6028220.644 6
 91 11  5 16 50 30.0050000  0  5 16 20 17 24  3
  22761858.996    -8205013.234 7  -6393522.717 7
  22487068.323    -1740483.006 8  -1356238.265 9
  23733443.180    -6203878.899 6  -4834188.175 5
  25872125.698      405283.060 5    315789.052 2
  23284043.796    -7753416.531 7  -6041639.398 5
 91 11  5 16 51  0.0050000  0  5 16 20 17 24  3
  22775272.306    -8134505.595 7  -6338581.779 9
  22505370.356    -1644321.969 8  -1281307.683 9
  23728281.056    -6231025.385 6  -4855341.272 5
  25895051.131      525812.049 4    409707.989 2
  23280804.835    -7770456.108 7  -6054917.008 6
 91 11  5 16 51 30.0050000  0  5 16 20 17 24  3
  22788816.930    -8063345.303 7  -6283132.276 8
  22523783.014    -1547548.667 8  -1205899.996 9
  23723186.081    -6257808.188 6  -4876210.977 4
  25918009.240      646418.011 5    503686.799 1
  23277591.063    -7787315.028 7  -6068053.849 6
 91 11  5 16 52  0.0050000  0  5 16 20 17 24  3
  22802474.273    -7991567.462 7  -6227201.588 8
  22542309.884    -1450198.687 8  -1130042.967 9
  23718150.769    -6284261.532 6  -4896823.973 5
  25940971.842      767066.864 5    597699.004 3
  23274411.756    -7804025.567 7  -6081075.062 6
 91 11  5 16 52 30.0050000  0  5 16 20 17 24  3
  22816244.946    -7919207.348 7  -6170817.162 8
  22560934.789    -1352307.781 8  -1053764.435 9
  23713171.811    -6310418.762 6  -4917206.217 5
  25963931.442      887724.151 5    691717.868 2
  23271255.544    -7820620.124 7  -6094005.916 6
 91 11  5 16 53  0.0050000  0  5 16 20 17 24  3
  22830124.431    -7846268.228 7  -6113981.585 8
  22579667.624    -1253880.404 8   -977067.875 9
  23708251.618    -6336281.840 6  -4937359.240 5
  25986888.050     1008386.771 5    785740.841 2
  23268120.917    -7837100.177 7  -6106847.534 6
 91 11  5 16 53 30.0050000  0  5 16 20 17 24  3
  22844113.049    -7772752.843 8  -6056696.965 9
  22598497.884    -1154919.900 8   -899955.885 9
  23703381.489    -6361852.271 6  -4957284.231 5
  26009847.659     1129052.955 5    879766.630 3
  23265006.368    -7853465.722 7  -6119599.935 5
 91 11  5 16 54  0.0050000  0  5 16 20 17 24  3
  22858213.784    -7698658.592 8  -5998961.280 8
  22617430.079    -1055424.266 8   -822426.924 9
  23698574.914    -6387125.727 6  -4976977.820 5
  26032815.357     1249726.498 5    973798.050 2
  23261913.116    -7869711.474 7  -6132258.994 6
 91 11  5 16 54 30.0050000  0  5 16 20 17 24  3
  22872421.551    -7623992.141 7  -5940779.724 8
  22636461.801     -955400.505 7   -744486.440 9
  23693822.007    -6412106.983 6  -4996443.711 4
  26055779.162     1370401.264 5   1067830.487 2
  23258845.333    -7885841.342 7  -6144827.755 6
 91 11  5 16 55  0.0050000  0  5 16 20 17 24  3
  22886739.638    -7548734.234 7  -5882137.284 8
  22655607.150     -854829.995 8   -666119.910 9
  23689129.355    -6436774.720 6  -5015665.309 5
  26078744.757     1491098.227 5   1161880.264 1
  23255803.646    -7901833.143 7  -6157288.928 6
 91 11  5 16 55 30.0050000  0  5 16 20 17 24  3
  22901182.441    -7472872.072 7  -5823024.007 8
  22674844.235     -753700.969 7   -587318.167 9
  23684496.968    -6461115.551 6  -5034632.181 5
  26101728.648     1611830.123 5   1255957.218 3
  23252783.232    -7917672.131 7  -6169631.022 6
 91 11  5 16 56  0.0050000  0  5 16 20 17 24  3
  22915730.470    -7396418.447 8  -5763449.847 8
  22694194.633     -652026.611 8   -508091.500 9
  23679925.726    -6485140.496 6  -5053352.908 5
  26124689.750     1732585.441 4   1350052.428 2
  23249800.893    -7933367.631 7  -6181861.316 6
 91 11  5 16 56 30.0050000  0  5 16 20 17 24  3
  22930382.222    -7319397.281 7  -5703433.445 8
  22713643.076     -549831.173 7   -428458.807 9
  23675407.856    -6508871.275 6  -5071844.426 6
  26147678.143     1853341.502 5   1444148.234 4
  23246834.452    -7948941.191 7  -6193996.601 6
 91 11  5 16 57  0.0050000  0  5 16 20 17 24  3
  22945141.904    -7241841.280 7  -5643000.273 8
  22733183.541     -447148.335 7   -348446.305 8
  23670941.246    -6532339.072 6  -5090131.005 6
  26170656.031     1974066.518 4   1538219.810 2
  23243892.887    -7964422.572 7  -6206060.037 6
 91 11  5 16 57 30.0050000  0  5 16 20 17 24  3
  22960001.419    -7163745.502 7  -5582146.495 9
  22752816.651     -343974.787 7   -268051.447 8
  23666529.500    -6555537.823 6  -5108207.962 5
  26193623.432     2094765.908 4   1632271.474 2
  23240966.014    -7979804.973 7  -6218046.320 6
 91 11  5 16 58  0.0050000  0  5 16 20 17 24  3
  22974969.762    -7085097.820 7  -5520862.655 9
  22772548.694     -240297.750 8   -187264.238 8
  23662166.326    -6578453.311 6  -5126064.190 6
  26216592.927     2215454.382 4   1726314.575 3
  23238056.827    -7995072.303 7  -6229942.958 6
 91 11  5 16 58 30.0050000  0  5 16 20 17 24  3
  22990040.922    -7005906.940 7  -5459155.552 8
  22792367.970     -136126.721 7   -106092.131 9
  23657859.507    -6601092.720 6  -5143705.292 6
  26239546.542     2336123.362 3   1820342.427 2
  23235173.728    -8010230.763 7  -6241754.760 6
 91 11  5 16 59  0.0050000  0  4 16 20 17  3
  23005215.518    -6926151.470 7  -5397008.502 8
  22812286.487      -31441.039 7    -24518.974 9
  23653609.943    -6623433.308 6  -5161113.542 6
  23232315.505    -8025255.950 7  -6253462.724 6
 91 11  5 16 59 30.0050000  0  4 16 20 17  3
  23020504.038    -6845824.483 7  -5334416.123 8
  22832310.524       73764.633 7     57459.356 9
  23649416.150    -6645466.113 6  -5178281.940 6
  23229482.462    -8040138.310 7  -6265059.345 6
 91 11  5 17  0  0.0050000  0  4 16 20 17  3
  23035894.781    -6764933.196 7  -5271384.014 9
  22852424.491      179483.533 7    139837.606 8
  23645282.612    -6667196.602 6  -5195214.783 6
  23226677.907    -8054882.168 7  -6276548.073 6
 91 11  5 17  0 30.0050000  0  4 16 20 17  3
  23051399.448    -6683464.973 7  -5207902.347 9
  22872645.795      285727.877 8    222625.287 8
  23641210.228    -6688610.209 6  -5211900.697 6
  23223905.128    -8069471.494 7  -6287916.406 6
 91 11  5 17  1  0.0050000  0  4 16 20 17  3
  23067009.042    -6601428.207 7  -5143977.676 9
  22892955.240      392488.625 7    305815.371 9
  23637189.114    -6709713.549 6  -5228344.855 6
  23221153.630    -8083911.386 7  -6299168.293 6
 91 11  5 17  1 30.0050000  0  4 16 20 17  3
  23082731.654    -6518821.277 7  -5079608.717 8
  22913375.903      499766.032 8    389408.043 9
  23633236.351    -6730503.695 6  -5244544.958 5
  23218432.112    -8098198.090 7  -6310300.825 6
 91 11  5 17  2  0.0050000  0  4 16 20 17  3
  23098558.600    -6435642.548 7  -5014794.199 7
  22933886.497      607561.208 7    473404.153 9
  23629338.749    -6750977.373 6  -5260498.471 6
  23215742.379    -8112326.397 7  -6321309.907 7
 91 11  5 17  2 30.0050000  0  5 16 20 17 24  3
  23114490.771    -6351909.880 7  -4949548.063 8
  22954496.329      715855.719 8    557789.372 8
  23625496.011    -6771150.201 6  -5276217.542 6
  26423310.326       20126.01914     15669.468 1
  23213086.517    -8126311.308 7  -6332207.257 5
 91 11  5 17  3  0.0050000  0  4 16 20 17  3
  23130530.863    -6267628.702 7  -4883874.502 8
  22975194.600      824643.944 7    642559.286 8
  23621715.325    -6791025.949 6  -5291705.131 6
  23210453.436    -8140154.586 7  -6342994.262 6
 91 11  5 17  3 30.0050000  0  4 16 20 17  3
  23146673.195    -6182806.758 7  -4817779.567 7
  22995990.007      933917.351 7    727707.300 8
  23617989.808    -6810610.484 6  -5306965.778 6
  23207846.443    -8153861.170 7  -6353674.758 6
 91 11  5 17  4  0.0050000  0  4 16 20 17  3
  23162919.845    -6097435.455 7  -4751256.563 7
  23016878.048     1043684.384 7    813239.921 9
  23614317.951    -6829893.363 6  -5321991.388 6
  23205263.130    -8167418.881 7  -6364239.245 6
 91 11  5 17  4 30.0050000  0  4 16 20 17  3
  23179272.026    -6011505.817 7  -4684298.510 8
  23037862.319     1153952.575 7    899163.059 9
  23610707.248    -6848864.012 6  -5336773.702 6
  23202711.001    -8180815.794 7  -6374678.427 7
 91 11  5 17  5  0.0050000  0  4 16 20 17  3
  23195731.533    -5925019.367 7  -4616906.590 7
  23058942.522     1264720.023 7    985475.213 8
  23607158.004    -6867521.709 6  -5351312.176 6
  23200195.439    -8194050.107 7  -6384990.916 6
 91 11  5 17  5 30.0050000  0  4 16 20 17  3
  23212291.162    -5837988.525 7  -4549090.468 8
  23080108.773     1375973.536 7   1072166.132 9
  23603671.119    -6885877.889 7  -5365615.673 6
  23197703.268    -8207131.492 7  -6395184.238 7
 91 11  5 17  6  0.0050000  0  4 16 20 17  3
  23228953.930    -5750428.456 7  -4480861.950 7
  23101372.456     1487697.618 7   1159223.715 8
  23600230.102    -6903945.217 6  -5379694.103 6
  23195243.468    -8220071.120 7  -6405267.080 7
 91 11  5 17  6 30.0050000  0  4 16 20 17  3
  23245712.325    -5662342.936 7  -4412224.015 7
  23122719.770     1599887.951 7   1246644.628 8
  23596844.847    -6921725.516 7  -5393548.909 6
  23192810.053    -8232870.134 7  -6415240.355 6
 91 11  5 17  7  0.0060000  0  4 16 20 17  3
  23262571.760    -5573750.267 7  -4343190.904 8
  23144155.830     1712526.804 7   1334415.027 8
  23593510.253    -6939238.676 7  -5407195.554 6
  23190397.624    -8245545.859 7  -6425117.572 6
 91 11  5 17  7 30.0060000  0  4 16 20 17  3
  23279525.624    -5484656.243 7  -4273767.120 7
  23165673.737     1825605.773 7   1422528.361 8
  23590233.521    -6956481.793 6  -5420631.769 6
  23188007.076    -8258094.638 7  -6434895.889 7
 91 11  5 17  8  0.0060000  0  4 16 20 17  3
  23296578.718    -5395059.331 7  -4203951.498 7
  23187275.885     1939125.942 7   1510985.484 8
  23586999.062    -6973455.585 6  -5433858.134 6
  23185646.209    -8270515.502 7  -6444574.533 6
 91 11  5 17  8 30.0060000  0  4 16 20 17  3
  23313724.142    -5304948.992 7  -4133735.798 7
  23208965.869     2053098.043 7   1599794.771 8
  23583826.360    -6990146.981 7  -5446864.444 6
  23183311.126    -8282793.627 7  -6454141.925 6
 91 11  5 17  9  0.0060000  0  4 16 20 17  3
  23330968.508    -5214327.110 7  -4063121.491 8
  23230739.195     2167519.340 7   1688954.069 8
  23580703.416    -7006555.562 7  -5459650.391 6
  23180997.628    -8294927.764 7  -6463597.123 7
 91 11  5 17  9 30.0060000  0  4 16 20 17  3
  23348309.400    -5123187.806 7  -3992104.016 7
  23252600.060     2282395.011 7   1778467.419 7
  23577639.839    -7022674.313 7  -5472210.485 6
  23178717.705    -8306908.621 7  -6472932.870 7
 91 11  5 17 10  0.0060000  0  4 16 20 17  3
  23365756.128    -5031515.754 7  -3920671.393 7
  23274547.565     2397740.322 7   1868346.743 7
  23574622.731    -7038485.330 7  -5484530.776 6
  23176472.866    -8318716.914 7  -6482134.162 7
 91 11  5 17 10 30.0060000  0  4 16 20 17  3
  23383298.483    -4939322.672 7  -3848832.794 8
  23296585.611     2513542.516 7   1958582.050 7
  23571673.967    -7053998.865 6  -5496619.272 6
  23174254.995    -8330361.079 7  -6491207.569 7
 91 11  5 17 11  0.0060000  0  4 16 20 17  3
  23400935.269    -4846631.242 7  -3776605.877 8
  23318703.099     2629778.093 7   2049155.069 7
  23568777.676    -7069236.091 6  -5508492.464 6
  23172070.106    -8341860.957 7  -6500168.533 6
 91 11  5 17 11 30.0060000  0  4 16 20 17  3
  23418670.990    -4753442.295 7  -3703991.277 8
  23340905.726     2746445.697 7   2140064.733 7
  23565931.746    -7084195.350 6  -5520149.051 6
  23169907.108    -8353213.052 7  -6509014.354 6
 91 11  5 17 12  0.0060000  0  4 16 20 17  3
  23436508.646    -4659746.080 7  -3630981.392 7
  23363192.595     2863555.293 7   2231318.798 7
  23563137.975    -7098864.192 6  -5531579.340 6
  23167771.690    -8364403.521 7  -6517734.227 6
 91 11  5 17 12 30.0060000  0  4 16 20 17  3
  23454431.137    -4565524.343 7  -3557562.011 7
  23385564.315     2981124.215 7   2322930.792 7
  23560407.766    -7113222.654 7  -5542767.758 7
  23165680.935    -8375411.038 7  -6526311.557 7
 91 11  5 17 13  0.0060000  0  4 16 20 17  3
  23472460.353    -4470791.128 7  -3483744.087 6
  23408023.862     3099137.223 7   2414888.824 7
  23557726.723    -7127283.914 6  -5553724.609 6
  23163620.457    -8386246.186 7  -6534754.579 7
 91 11  5 17 13 30.0060000  0  4 16 20 17  3
  23490582.805    -4375553.742 7  -3409533.290 7
  23430559.858     3217586.470 7   2507186.769 7
  23555106.835    -7141053.129 6  -5564453.882 7
  23161592.960    -8396912.894 7  -6543066.345 7
 91 11  5 17 14  0.0060000  0  4 16 20 17  3
  23508801.199    -4279808.670 7  -3334926.887 7
  23453186.701     3336475.572 7   2599827.463 7
  23552539.716    -7154523.355 6  -5574950.167 6
  23159597.545    -8407403.294 7  -6551240.723 7
 91 11  5 17 14 30.0060000  0  4 16 20 17  3
  23527125.114    -4183551.567 7  -3259921.473 7
  23475892.976     3455807.414 7   2692813.144 7
  23550041.543    -7167689.779 6  -5585209.728 6
  23157635.704    -8417709.932 7  -6559271.910 6
 91 11  5 17 15  0.0060000  0  4 16 20 17  3
  23545530.269    -4086783.034 7  -3184517.554 8
  23498685.596     3575581.069 7   2786143.080 7
  23547593.740    -7180550.609 6  -5595231.173 7
  23155704.742    -8427829.616 7  -6567157.429 7
 91 11  5 17 15 30.0060000  0  4 16 20 17  3
  23564044.252    -3989518.823 7  -3108727.395 8
  23521558.565     3695780.268 7   2879804.620 8
  23545198.697    -7193119.792 6  -5605025.353 7
  23153816.044    -8437774.077 7  -6574906.399 7
 91 11  5 17 16  0.0060000  0  4 16 20 17  3
  23582641.874    -3891790.058 7  -3032575.240 8
  23544509.475     3816373.807 7   2973773.430 7
  23542859.417    -7205425.566 7  -5614614.276 7
  23151952.535    -8447570.476 7  -6582539.991 7
 91 11  5 17 16 30.0060000  0  4 16 20 17  3
  23601324.941    -3793602.484 7  -2956065.564 8
  23567530.535     3937355.407 7   3068044.626 7
  23540566.607    -7217471.798 7  -5624000.959 7
  23150115.411    -8457220.560 7  -6590059.573 7
 91 11  5 17 17  0.0060000  0  4 16 20 17  3
  23620096.751    -3694958.914 7  -2879200.560 7
  23590625.654     4058721.992 7   3162615.803 7
  23538321.758    -7229258.840 7  -5633185.681 7
  23148309.758    -8466723.350 7  -6597464.374 7
 91 11  5 17 17 30.0060000  0  4 16 20 17  3
  23638959.389    -3595848.802 7  -2801972.030 7
  23613798.409     4180482.553 7   3257493.959 7
  23536132.079    -7240775.254 7  -5642159.521 7
  23146531.093    -8476065.013 7  -6604743.619 7
 91 11  5 17 18  0.0060000  0  4 16 20 17  3
  23657903.276    -3496289.842 7  -2724393.740 7
  23637035.023     4302619.300 7   3352665.257 7
  23533993.057    -7252036.232 7  -5650934.316 7
  23144781.202    -8485258.683 7  -6611907.548 7
 91 11  5 17 18 30.0060000  0  4 16 20 17  3
  23676932.904    -3396273.438 7  -2646458.999 7
  23660352.579     4425140.203 7   3448135.903 8
  23531896.309    -7263031.281 7  -5659501.902 7
  23143060.995    -8494292.585 7  -6618946.982 7
 91 11  5 17 19  0.0060000  0  4 16 20 17  3
  23696056.362    -3295789.706 7  -2568160.097 7
  23683745.085     4548054.238 7   3543912.893 7
  23529861.317    -7273748.361 7  -5667852.882 7
  23141378.261    -8503152.918 7  -6625851.155 7
 91 11  5 17 19 30.0060000  0  4 16 20 17  3
  23715264.960    -3194838.400 7  -2489496.863 8
  23707203.544     4671361.312 7   3639996.132 7
  23527873.388    -7284184.917 7  -5675985.276 7
  23139721.302    -8511835.242 7  -6632616.631 8
 91 11  5 17 20  0.0060000  0  4 16 20 17  3
  23734564.106    -3093422.349 7  -2410471.506 8
  23730747.447     4795058.155 7   3736383.089 6
  23525942.129    -7294341.782 7  -5683899.745 8
  23138104.225    -8520338.206 7  -6639242.342 8
 91 11  5 17 20 30.0060000  0  4 16 20 17  3
  23753948.384    -2991557.347 7  -2331096.308 7
  23754354.006     4919129.010 7   3833061.500 7
  23524060.934    -7304232.009 7  -5691606.432 7
  23136518.620    -8528673.220 7  -6645737.187 7
 91 11  5 17 21  0.0060000  0  4 16 20 17  3
  23773414.207    -2889257.045 7  -2251381.918 7
  23778033.410     5043558.956 7   3930019.727 7
  23522225.904    -7313867.826 7  -5699114.868 7
  23134963.902    -8536850.682 7  -6652109.259 7
 91 11  5 17 21 30.0060000  0  4 16 20 17  3
  23792964.872    -2786527.103 7  -2171332.754 7
  23801776.674     5168341.799 7   4027252.933 6
  23520438.540    -7323252.560 7  -5706427.662 7
  23133435.254    -8544871.962 7  -6658359.627 7
 91 11  5 17 22  0.0060000  0  4 16 20 17  3
  23812600.381    -2683365.841 7  -2090947.514 7
  23825594.886     5293478.581 7   4124761.920 7
  23518698.840    -7332382.925 7  -5713542.259 7
  23131939.290    -8552731.880 7  -6664484.263 8
 91 11  5 17 22 30.0060000  0  4 16 20 17  3
  23832314.136    -2579767.058 7  -2010221.345 6
  23849471.557     5418974.900 7   4222551.060 6
  23517014.310    -7341250.514 7  -5720452.085 7
  23130475.409    -8560419.671 7  -6670474.770 8
 91 11  5 17 23  0.0060000  0  4 16 20 17  3
  23852114.226    -2475706.304 7  -1929135.208 6
  23873430.069     5544855.149 7   4320639.386 7
  23515380.742    -7349828.414 7  -5727136.182 8
  23129053.487    -8567906.822 7  -6676308.922 7
 91 11  5 17 23 30.0060000  0  4 16 20 17  3
  23872007.256    -2371176.208 7  -1847683.342 6
  23897457.535     5671125.785 7   4419031.867 6
  23513805.031    -7358107.434 7  -5733587.398 8
  23127665.749    -8575182.086 7  -6681977.971 7
 91 11  5 17 24  0.0060000  0  4 16 20 17  3
  23891988.122    -2266178.639 7  -1765867.233 7
  23921558.450     5797783.852 7   4517726.265 7
  23512287.482    -7366087.089 7  -5739805.342 8
  23126326.280    -8582243.355 7  -6687480.272 8
 91 11  5 17 24 30.0060000  0  4 16 20 17  3
  23912050.533    -2160735.373 7  -1683703.823 7
  23945732.812     5924807.614 7   4616705.615 6
  23510826.593    -7373787.293 7  -5745805.526 7
  23125020.078    -8589108.259 7  -6692829.556 7
 91 11  5 17 25  0.0060000  0  4 16 20 17  3
  23932195.090    -2054874.526 7  -1601215.020 7
  23969971.034     6052167.791 7   4715947.122 6
  23509403.476    -7381234.385 7  -5751608.481 6
  23123743.263    -8595800.758 7  -6698044.502 8
 91 11  5 17 25 30.0060000  0  4 16 20 17  3
  23952422.083    -1948585.286 7  -1518392.408 7
  23994266.213     6179875.530 7   4815459.469 6
  23508039.724    -7388414.852 7  -5757203.677 7
  23122510.519    -8602305.250 7  -6703112.936 7
 91 11  5 17 26  0.0060000  0  4 16 20 17  3
  23972734.817    -1841847.368 7  -1435220.199 7
  24018639.342     6307950.775 7   4915258.160 6
  23506728.427    -7395305.478 7  -5762573.032 7
  23121311.052    -8608597.620 7  -6708016.100 7
 91 11  5 17 26 30.0070000  0  4 16 20 17  3
  23993134.796    -1734643.885 7  -1351685.201 6
  24043086.516     6436410.521 7   5015356.462 6
  23505468.403    -7401891.651 7  -5767705.134 7
  23120158.346    -8614660.353 7  -6712740.308 7
 91 11  5 17 27  0.0070000  0  4 16 20 17  3
  24013626.508    -1626962.699 7  -1267777.951 6
  24067607.440     6565264.729 7   5115762.174 6
  23504283.027    -7408151.193 7  -5772582.704 7
  23119049.716    -8620469.321 7  -6717266.792 7
 91 11  5 17 27 30.0070000  0  4 16 20 17  3
  24034204.564    -1518823.692 7  -1183513.969 6
  24092203.617     6694493.228 7   5216459.509 5
  23503151.310    -7414106.598 7  -5777223.303 7
  23117991.745    -8626045.105 7  -6721611.576 7
 91 11  5 17 28  0.0070000  0  4 16 20 17  3
  24054866.861    -1410248.743 7  -1098910.292 6
  24116853.751     6824073.062 6   5317430.631 6
  23502074.152    -7419777.643 7  -5781642.314 7
  23116964.956    -8631405.215 7  -6725788.305 7
 91 11  5 17 28 30.0070000  0  4 16 20 17  3
  24075607.701    -1301238.752 7  -1013967.629 6
  24141581.233     6954003.920 7   5418675.257 6
  23501044.668    -7425162.179 7  -5785838.065 7
  23115989.131    -8636545.308 7  -6729793.592 7
 91 11  5 17 29  0.0070000  0  4 16 20 17  3
  24096434.283    -1191797.523 7   -928688.920 6
  24166366.572     7084281.347 7   5520189.957 6
  23500071.242    -7430261.589 7  -5789811.641 8
  23115056.182    -8641465.324 7  -6733627.398 8
 91 11  5 17 29 30.0070000  0  4 16 20 17  3
  24117338.213    -1081950.110 7   -843093.701 6
  24191225.663     7214880.068 6   5621955.004 6
  23499157.470    -7435099.045 7  -5793581.098 7
  23114156.501    -8646185.895 7  -6737305.780 7
 91 11  5 17 30  0.0070000  0  4 16 20 17  3
  24138314.692     -971727.187 7   -757205.880 7
  24216135.116     7345768.578 7   5723945.877 6
  23498280.283    -7439703.172 7  -5797168.737 6
  23113288.004    -8650733.553 7  -6740849.425 7
 91 11  5 17 30 30.0070000  0  4 16 20 17  3
  24159360.126     -861130.284 7   -671026.653 6
  24241091.344     7476943.933 7   5826160.231 6
  23497439.060    -7444073.816 7  -5800574.428 8
  23112462.975    -8655105.950 7  -6744256.520 8
 91 11  5 17 31  0.0070000  0  5 16 23 20 17  3
  24180476.303     -750139.038 7   -584540.136 7
  26007278.435     -139767.688 5   -108909.819 2
  24266114.416     7608426.280 6   5928613.812 7
  23496657.203    -7448188.455 7  -5803780.644 7
  23111667.629    -8659278.331 7  -6747507.751 7
 91 11  5 17 31 30.0070000  0  5 16 23 20 17  3
  24201677.026     -638744.429 7   -497739.302 7
  25995043.904     -204025.493 5   -158981.033 3
  24291195.352     7740224.073 6   6031313.228 6
  23495926.309    -7452035.565 7  -5806778.383 6
  23110912.148    -8663236.906 7  -6750592.379 6
 91 11  5 17 32  0.0070000  0  5 16 23 20 17  3
  24222946.102     -526960.469 7   -410635.076 7
  25982852.545     -268128.722 5   -208931.811 5
  24316333.856     7872323.403 6   6134247.567 6
  23495249.974    -7455625.927 7  -5809576.069 7
  23110196.846    -8666991.002 7  -6753517.665 7
 91 11  5 17 32 30.0070000  0  5 16 23 20 17  3
  24244298.520     -414796.268 7   -323234.567 6
  25970671.377     -332083.033 5   -258766.083 3
  24341525.409     8004714.317 6   6237409.125 6
  23494610.519    -7458967.576 7  -5812179.951 8
  23109522.308    -8670546.047 7  -6756287.846 7
 91 11  5 17 33  0.0070000  0  5 16 23 20 17  3
  24265713.000     -302233.085 7   -235523.150 7
  25958542.673     -395864.228 5   -308465.957 3
  24366779.932     8137415.007 6   6340812.083 6
  23494031.617    -7462039.393 7  -5814573.561 7
  23108887.949    -8673878.436 7  -6758884.529 7
 91 11  5 17 33 30.0070000  0  5 16 23 20 17  3
  24287210.813     -189267.626 6   -147498.264 6
  25946444.847     -459465.105 5   -358025.307 4
  24392089.605     8270428.306 6   6444458.604 6
  23493498.286    -7464836.304 7  -5816752.966 8
  23108295.557    -8676981.238 7  -6761302.313 8
 91 11  5 17 34  0.0070000  0  5 16 23 20 17  3
  24308786.279      -75906.229 7    -59164.881 7
  25934368.014     -522886.546 5   -407444.852 4
  24417461.044     8403747.741 6   6548343.683 5
  23493014.426    -7467361.354 7  -5818720.526 8
  23107752.035    -8679855.350 7  -6763541.889 7
 91 11  5 17 34 30.0070000  0  5 16 23 20 17  3
  24330433.990       37840.278 7     29468.586 6
  25922336.438     -586135.644 5   -456729.664 4
  24442890.636     8537361.596 6   6652458.172 6
  23492585.125    -7469623.533 7  -5820483.248 8
  23107245.988    -8682507.756 7  -6765608.713 7
 91 11  5 17 35  0.0070000  0  5 16 23 20 17  3
  24352144.364      151945.725 7    118381.740 6
  25910336.045     -649233.330 5   -505896.508 3
  24468357.710     8671243.105 6   6756781.219 5
  23492200.784    -7471646.628 7  -5822059.666 8
  23106776.813    -8684959.750 7  -6767519.371 7
 91 11  5 17 35 30.0070000  0  5 16 23 20 17  3
  24373927.881      266418.389 7    207581.054 6
  25898346.751     -712167.257 4   -554935.679 2
  24493888.330     8805400.202 6   6861319.021 5
  23491857.826    -7473420.919 7  -5823442.216 8
  23106354.107    -8687199.073 7  -6769264.301 7
 91 11  5 17 36  0.0070000  0  5 16 23 20 17  3
  24395784.846      381271.775 7    297077.032 6
  25886409.615     -774919.368 4   -603833.229 3
  24519481.020     8939845.775 6   6966081.604 7
  23491572.419    -7474930.216 7  -5824618.271 8
  23105970.674    -8689207.524 7  -6770829.338 8
 91 11  5 17 36 30.0070000  0  5 16 23 20 17  3
  24417710.774      496499.310 6    386864.551 6
  25874497.058     -837490.720 4   -652589.934 2
  24545119.866     9074573.087 6   7071063.696 6
  23491337.984    -7476178.438 7  -5825590.898 8
  23105631.904    -8690986.816 7  -6772215.806 8
 91 11  5 17 37  0.0070000  0  5 16 23 20 17  3
  24439709.845      612119.780 6    476958.245 5
  25862633.973     -899859.224 5   -701188.588 2
  24570807.284     9209599.444 6   7176278.835 6
  23491157.208    -7477145.493 7  -5826344.446 9
  23105341.105    -8692514.832 7  -6773406.478 8
 91 11  5 17 37 30.0070000  0  5 16 23 20 17  3
  24461788.960      728142.130 7    567365.091 5
  25850799.366     -962010.913 5   -749618.310 4
  24596560.952     9344933.436 6   7281733.690 5
  23491022.301    -7477819.851 7  -5826869.906 8
  23105099.768    -8693777.653 7  -6774390.502 7
 91 11  5 17 38  0.0070000  0  5 16 23 20 17  3
  24483943.320      844564.424 7    658083.587 6
  25839014.824    -1023942.597 5   -797876.619 2
  24622374.885     9480573.440 6   7387426.988 5
  23490953.948    -7478200.916 7  -5827166.838 8
  23104912.998    -8694772.098 7  -6775165.410 7
 91 11  5 17 38 30.0070000  0  5 16 23 20 17  3
  24506171.730      961374.593 7    749104.328 6
  25827280.347    -1085662.192 5   -845969.640 3
  24648240.976     9616506.491 6   7493348.639 5
  23490933.863    -7478298.708 7  -5827243.093 9
  23104774.496    -8695506.289 7  -6775737.518 8
 91 11  5 17 39  0.0070000  0  5 16 23 20 17  3
  24528473.292     1078563.123 7    840419.863 6
  25815570.753    -1147174.320 5   -893900.990 4
  24674160.134     9752722.909 6   7599491.063 6
  23490967.743    -7478120.569 7  -5827104.260 8
  23104682.760    -8695984.853 7  -6776110.450 8
 91 11  5 17 39 30.0070000  0  5 16 23 20 17  3
  24550844.706     1196123.269 7    932024.991 6
  25803902.831    -1208481.354 5   -941672.548 4
  24700137.749     9889214.580 6   7705847.981 5
  23491054.985    -7477671.231 7  -5826754.143 9
  23104638.690    -8696210.419 7  -6776286.237 8
 91 11  5 17 40  0.0070000  0  5 16 23 20 17  3
  24573280.573     1314038.783 7   1023907.023 6
  25792274.477    -1269595.131 5   -989293.505 3
  24726157.638    10025965.198 6   7812407.169 4
  23491187.493    -7476964.322 7  -5826203.314 8
  23104640.792    -8696194.259 8  -6776273.684 8
 91 11  5 17 40 30.0070000  0  5 16 23 20 17  3
  24595782.996     1432288.538 7   1116049.500 5
  25780683.004    -1330532.164 5  -1036776.759 3
  24752232.085    10162952.919 6   7919150.616 5
  23491364.063    -7476018.809 7  -5825466.568 9
  23104686.660    -8695953.350 7  -6776085.992 8
 91 11  5 17 41  0.0070000  0  5 16 23 20 17  3
  24618348.073     1550867.941 6   1208448.839 5
  25769113.414    -1391292.262 5  -1084122.158 2
  24778342.514    10300172.942 6   8026075.065 6
  23491591.012    -7474836.770 7  -5824545.540 9
  23104776.895    -8695487.183 7  -6775722.778 8
 91 11  5 17 41 30.0070000  0  5 16 23 20 17  3
  24640978.204     1669789.794 6   1301115.042 6
  25757595.991    -1451858.103 5  -1131316.178 2
  24804503.898    10437637.799 6   8133190.781 5
  23491865.923    -7473403.350 7  -5823428.604 9
  23104909.404    -8694778.708 7  -6775170.739 8
 91 11  5 17 42  0.0070000  0  5 16 23 20 17  3
  24663678.791     1789079.407 6   1394067.810 5
  25746105.842    -1512200.108 5  -1178335.800 4
  24830709.658    10575371.875 6   8240515.817 5
  23492189.694    -7471691.189 7  -5822094.468 9
  23105096.173    -8693798.040 7  -6774406.606 8
 91 11  5 17 42 30.0070000  0  5 16 23 20 17  3
  24686454.327     1908737.971 6   1487308.052 5
  25734660.367    -1572311.921 5  -1225176.042 5
  24856976.572    10713375.854 6   8348051.634 5
  23492571.330    -7469696.533 7  -5820540.215 8
  23105333.610    -8692539.226 7  -6773425.724 8
 91 11  5 17 43  0.0070000  0  5 16 23 20 17  3
  24709288.015     2028735.822 6   1580812.686 6
  25723271.552    -1632218.801 5  -1271856.590 3
  24883278.867    10851619.776 6   8455774.408 5
  23493000.937    -7467447.066 7  -5818787.396 9
  23105624.112    -8691027.442 7  -6772247.741 8
 91 11  5 17 43 30.0070000  0  5 16 23 20 17  3
  24732182.570     2149057.484 7   1674569.646 5
  25711914.514    -1691931.644 5  -1318385.973 4
  24909628.521    10990087.743 6   8563671.773 4
  23493473.411    -7464956.106 7  -5816846.404 9
  23105956.277    -8689273.562 7  -6770881.094 9
 91 11  5 17 44  0.0070000  0  5 16 23 20 17  3
  24755143.671     2269713.194 6   1768586.897 6
  25700585.353    -1751435.746 5  -1364752.690 4
  24936025.552    11128789.264 6   8671751.139 4
  23493994.143    -7462210.424 7  -5814706.918 8
  23106342.416    -8687262.939 7  -6769314.398 9
 91 11  5 17 44 30.0070000  0  5 16 23 20 17  3
  24778169.234     2390723.194 6   1862880.214 6
  25689297.269    -1810706.683 5  -1410937.684 3
  24962467.545    11267743.811 6   8780027.653 5
  23494570.349    -7459188.354 7  -5812352.056 9
  23106776.813    -8684970.750 8  -6767528.290 8
 91 11  5 17 45  0.0070000  0  5 16 23 20 17  3
  24801270.940     2512108.846 7   1957466.243 6
  25678076.640    -1869718.736 5  -1456920.993 4
  24988955.108    11406971.893 6   8888517.308 5
  23495201.707    -7455866.448 7  -5809763.558 9
  23107272.373    -8682371.173 7  -6765502.670 9
 91 11  5 17 45 30.0070000  0  5 16 23 20 17  3
  24824440.694     2633865.236 6   2052341.145 5
  25666891.382    -1928471.675 5  -1502702.381 3
  25015500.231    11546468.893 6   8997216.505 5
  23495893.634    -7452246.826 7  -5806943.088 9
  23107824.585    -8679463.970 7  -6763237.329 8
 91 11  5 17 46  0.0070000  0  5 16 23 20 17  3
  24847672.517     2755968.767 6   2147486.562 6
  25655757.689    -1986984.011 5  -1548296.300 5
  25042103.515    11686210.998 6   9106106.695 4
  23496628.724    -7448351.248 7  -5803907.576 9
  23108434.967    -8676268.296 7  -6760747.212 9
 91 11  5 17 46 30.0080000  0  5 16 23 20 17  3
  24870973.282     2878419.347 6   2242902.394 5
  25644665.671    -2045258.087 5  -1593704.558 4
  25068732.280    11826197.506 6   9215187.289 5
  23497424.676    -7444181.169 7  -5800658.161 9
  23109098.105    -8672783.444 7  -6758031.751 8
 91 11  5 17 47  0.0080000  0  5 16 23 20 17  3
  24894335.511     3001189.846 6   2338567.535 5
  25633622.213    -2103304.613 5  -1638935.493 4
  25095413.803    11966399.576 6   9324435.896 5
  23498267.687    -7439754.279 7  -5797208.639 9
  23109811.609    -8669024.553 7  -6755102.756 9
 91 11  5 17 47 30.0080000  0  5 16 23 20 17  3
  24917762.795     3124298.481 6   2434496.135 6
  25622624.030    -2161106.146 5  -1683975.521 4
  25122143.305    12106836.184 6   9433867.268 4
  23499162.569    -7435052.829 7  -5793545.173 9
  23110581.775    -8664971.757 7  -6751944.757 9
 91 11  5 17 48  0.0080000  0  5 16 23 20 17  3
  24941252.733     3247731.757 6   2530677.705 5
  25611671.113    -2218672.337 5  -1728832.178 4
  25148911.773    12247492.647 6   9543469.910 5
  23500107.516    -7430088.850 7  -5789677.131 9
  23111409.203    -8660634.721 7  -6748565.250 9
 91 11  5 17 48 30.0080000  0  5 16 23 20 17  3
  24964801.427     3371474.961 6   2627100.758 5
  25600756.569    -2276012.570 5  -1773512.759 4
  25175713.519    12388354.349 6   9653232.491 5
  23501102.527    -7424874.010 7  -5785613.606 9
  23112286.399    -8656022.523 8  -6744971.344 9
 91 11  5 17 49  0.0080000  0  5 16 23 20 17  3
  24988410.682     3495514.863 6   2723755.485 5
  25589887.291    -2333135.958 6  -1818024.354 2
  25202552.434    12529407.030 6   9763143.891 5
  23502139.506    -7419419.840 7  -5781363.604 9
  23113213.957    -8651144.452 7  -6741170.257 9
 91 11  5 17 49 30.0080000  0  5 16 23 20 17  3
  25012071.807     3619857.984 7   2820645.984 6
  25579056.089    -2390032.002 5  -1862358.764 4
  25229438.124    12670656.463 6   9873208.590 5
  23503225.355    -7413718.581 7  -5776921.075 8
  23114195.174    -8645989.851 8  -6737153.713 9
 91 11  5 17 50  0.0080000  0  5 16 23 20 17  3
  25035790.780     3744500.732 7   2917770.448 5
  25568267.457    -2446699.113 5  -1906514.831 3
  25256349.893    12812099.421 6   9983424.065 4
  23504354.375    -7407770.459 7  -5772286.187 9
  23115231.254    -8640556.573 7  -6732919.997 8
 91 11  5 17 50 30.0080000  0  5 16 23 20 17  3
  25059566.423     3869447.106 7   3015131.499 5
  25557533.087    -2503129.208 5  -1950486.205 4
  25283300.637    12953738.558 6  10093792.447 5
  23505537.352    -7401569.060 7  -5767453.932 9
  23116319.206    -8634836.195 7  -6728462.557 9
 91 11  5 17 51  0.0080000  0  5 16 23 20 17  3
  25083400.820     3994705.618 7   3112735.767 6
  25546848.187    -2559308.740 5  -1994262.271 4
  25310287.949    13095582.524 6  10204320.420 4
  23506765.603    -7395104.036 7  -5762416.254 9
  23117462.317    -8628815.569 7  -6723771.180 8
 91 11  5 17 51 30.0080000  0  5 16 23 20 17  3
  25107295.185     4120265.490 6   3210574.866 5
  25536198.660    -2615244.287 5  -2037848.254 3
  25337325.037    13237619.643 6  10314998.888 5
  23508038.823    -7388384.027 7  -5757179.900 9
  23118666.879    -8622501.348 7  -6718851.028 9
 91 11  5 17 52  0.0080000  0  5 16 23 20 17  3
  25131243.506     4246127.124 6   3308649.097 5
  25525610.286    -2670930.785 5  -2081240.168 4
  25364383.100    13379850.131 6  10425828.032 5
  23509373.197    -7381406.021 7  -5751742.514 9
  23119923.609    -8615887.959 7  -6713697.753 8
 91 11  5 17 52 30.0080000  0  5 16 23 20 17  3
  25155252.379     4372292.438 6   3406959.981 4
  25515056.395    -2726362.031 5  -2124433.190 5
  25391479.842    13522275.266 5  10536808.869 4
  23510747.751    -7374166.115 7  -5746101.051 9
  23121237.000    -8608968.683 7  -6708306.116 8
 91 11  5 17 53  0.0080000  0  5 16 23 20 17  3
  25179322.119     4498770.520 6   3505514.560 5
  25504556.162    -2781524.766 5  -2167416.992 4
  25418633.847    13664903.585 6  10647947.988 3
  23512179.855    -7366653.058 7  -5740246.751 8
  23122614.843    -8601730.090 7  -6702665.667 9
 91 11  5 17 53 30.0080000  0  5 16 23 20 17  3
  25203450.614     4625559.649 6   3604311.533 6
  25494117.093    -2836415.748 6  -2210189.010 4
  25445817.525    13807732.578 6  10759243.488 4
  23513660.533    -7358866.270 7  -5734179.149 9
  23124058.351    -8594169.059 7  -6696773.978 9
 91 11  5 17 54  0.0080000  0  5 16 23 20 17  3
  25227636.668     4752644.943 6   3703339.261 5
  25483719.992    -2891045.270 5  -2252757.305 5
  25473020.993    13950747.151 6  10870683.616 4
  23515192.173    -7350818.124 7  -5727907.891 9
  23125555.213    -8586295.620 7  -6690638.836 8
 91 11  5 17 54 30.0080000  0  5 16 23 20 17  3
  25251867.700     4880013.771 6   3802587.938 5
  25473366.655    -2945421.968 6  -2295128.620 5
  25500275.127    14093934.648 6  10982258.475 4
  23516769.079    -7342518.969 7  -5721441.037 8
  23127110.830    -8578117.529 7  -6684266.303 8
 91 11  5 17 55  0.0080000  0  5 16 23 20 17  3
  25276156.579     5007646.546 6   3902042.279 5
  25463063.087    -2999560.808 6  -2337314.542 2
  25527544.852    14237274.274 6  11093951.854 5
  23518395.754    -7333986.219 7  -5714792.155 8
  23128721.320    -8569650.235 7  -6677668.401 8
 91 11  5 17 55 30.0080000  0  5 16 23 20 17  3
  25300500.026     5135553.512 6   4001710.286 5
  25452819.478    -3053447.318 6  -2379303.870 4
  25554867.330    14380776.112 6  11205771.657 4
  23520063.497    -7325207.572 7  -5707951.665 8
  23130393.862    -8560878.575 7  -6670833.342 7
 91 11  5 17 56  0.0080000  0  5 16 23 20 17  3
  25324891.443     5263753.601 6   4101606.195 4
  25442612.444    -3107057.736 6  -2421078.051 4
  25582211.699    14524458.363 6  11317732.031 4
  23521785.511    -7316161.678 7  -5700902.927 9
  23132119.470    -8551778.692 7  -6663742.521 8
 91 11  5 17 56 30.0080000  0  5 16 23 20 17  3
  25349350.907     5392259.999 6   4201741.287 5
  25432461.469    -3160374.804 6  -2462623.673 5
  25609585.751    14668334.002 6  11429843.096 3
  23523563.871    -7306832.951 7  -5693633.796 9
  23133923.919    -8542333.068 7  -6656382.290 8
 91 11  5 17 57  0.0080000  0  5 16 23 20 17  3
  25373863.437     5521065.198 6   4302109.213 5
  25422377.957    -3213401.544 6  -2503943.061 5
  25636985.586    14812395.021 6  11542098.608 5
  23525388.108    -7297227.400 7  -5686148.928 9
  23135784.426    -8532544.476 7  -6648754.815 8
 91 11  5 17 57 30.0080000  0  5 16 23 20 17  3
  25398426.931     5650153.767 6   4402697.931 5
  25412337.904    -3266149.270 6  -2545045.002 4
  25664431.288    14956625.204 6  11654485.913 5
  23527268.710    -7287357.925 7  -5678458.428 9
  23137710.293    -8522423.768 7  -6640868.542 8
 91 11  5 17 58  0.0080000  0  5 16 23 20 17  3
  25423035.699     5779493.047 6   4503482.004 4
  25402345.526    -3318646.030 6  -2585951.411 4
  25691909.963    15100991.377 6  11766979.193 4
  23529191.279    -7277254.643 7  -5670585.735 9
  23139692.228    -8511998.527 7  -6632744.987 9
 91 11  5 17 58 30.0080000  0  5 16 23 20 17  3
  25447695.431     5909074.075 6   4604454.468 5
  25392405.306    -3370896.103 6  -2626665.590 4
  25719403.627    15245484.288 5  11879571.234 3
  23531157.918    -7266924.396 7  -5662536.174 9
  23141732.909    -8501272.901 7  -6624387.339 8
 91 11  5 17 59  0.0080000  0  5 16 23 20 17  3
  25472399.521     6038909.104 6   4705624.845 5
  25382514.548    -3422883.107 6  -2667174.791 4
  25746936.563    15390115.605 5  11992271.120 4
  23533168.628    -7256352.583 7  -5654298.366 9
  23143833.260    -8490230.275 7  -6615782.687 8
 91 11  5 17 59 30.0080000  0  5 16 23 20 17  3
  25497156.982     6169010.598 6   4807002.849 5
  25372674.467    -3474590.562 6  -2707466.162 3
  25774486.897    15534897.055 6  12105088.000 4
  23535229.403    -7245525.365 7  -5645861.575 9
  23146000.455    -8478853.521 7  -6606917.691 9
 91 11  5 18  0  0.0080000  0  5 16 23 20 17  3
  25521972.309     6299391.006 6   4908598.174 5
  25362890.435    -3526001.163 6  -2747526.238 5
  25802066.600    15679841.097 6  12218031.536 5
  23537336.944    -7234427.251 7  -5637213.678 9
  23148233.010    -8467125.522 7  -6597778.998 8
 91 11  5 18  0 30.0080000  0  5 16 23 20 17  3
  25546833.494     6430054.901 6   5010414.383 5
  25353165.472    -3577105.780 6  -2787347.894 4
  25829675.087    15824952.043 5  12331105.146 5
  23539506.835    -7223050.779 8  -5628348.885 9
  23150531.221    -8455036.497 7  -6588358.982 8
 91 11  5 18  1  0.0080000  0  5 16 23 20 17  3
  25571749.247     6560988.830 6   5112441.038 4
  25343493.864    -3627914.068 6  -2826938.649 5
  25857331.239    15970215.364 6  12444297.484 4
  23541719.008    -7211408.047 7  -5619276.609 9
  23152898.980    -8442595.613 7  -6578664.791 8
 91 11  5 18  1 30.0080000  0  5 16 23 20 17  3
  25596715.360     6692173.426 6   5214663.016 4
  25333884.317    -3678440.814 6  -2866310.012 4
  25884990.994    16115611.595 5  12557593.386 4
  23543986.036    -7199515.948 7  -5610010.031 9
  23155332.396    -8429817.299 7  -6568707.676 8
 91 11  5 18  2  0.0080000  0  5 16 23 20 17  3
  25621727.944     6823614.147 6   5317084.586 3
  25324321.536    -3728676.513 6  -2905454.587 3
  25912687.622    16261145.469 5  12670996.542 3
  23546294.438    -7187367.056 7  -5600543.351 7
  23157831.171    -8416691.711 7  -6558479.957 6
 91 11  5 18  2 30.0080000  0  5 16 23 20 17  3
  25646792.093     6955322.417 6   5419714.604 5
  25314817.816    -3778605.547 6  -2944360.213 5
  25940420.817    16406827.580 5  12784515.194 3
  23548656.203    -7174948.011 8  -5590866.173 9
  23160394.093    -8403202.995 7  -6547969.294 8
 91 11  5 18  3  0.0080000  0  5 16 23 20 17  3
  25671901.212     7087294.918 6   5522550.539 4
  25305374.055    -3828226.588 6  -2983025.869 4
  25968155.818    16552654.412 5  12898146.627 4
  23551072.831    -7162259.509 7  -5580979.030 9
  23163030.769    -8389349.461 7  -6537174.346 8
 91 11  5 18  3 30.0080000  0  5 16 23 20 17  3
  25697069.687     7219517.605 6   5625581.410 5
  25295992.050    -3877549.113 6  -3021458.898 4
  25995935.491    16698612.083 5  13011880.007 2
  23553537.727    -7149312.902 7  -5570890.775 9
  23165736.992    -8375139.949 7  -6526102.011 8
 91 11  5 18  4  0.0080000  0  5 16 23 20 17  3
  25722272.940     7351981.898 6   5728800.531 4
  25286665.205    -3926578.028 6  -3059663.155 5
  26023730.146    16844690.818 5  13125707.706 3
  23556048.490    -7136114.969 7  -5560606.663 9
  23168508.278    -8360579.252 7  -6514756.020 7
 91 11  5 18  4 30.0080000  0  5 16 23 20 17  3
  25747525.360     7484677.333 6   5832199.764 5
  25277392.029    -3975319.200 6  -3097643.204 6
  26051552.084    16990879.331 5  13239620.935 3
  23558607.512    -7122674.211 7  -5550133.357 9
  23171345.509    -8345672.611 7  -6503140.472 8
 91 11  5 18  5  0.0080000  0  5 16 23 20 17  3
  25772819.145     7617598.189 6   5935774.676 4
  25268169.807    -4023774.192 6  -3135400.229 4
  26079395.913    17137171.460 6  13353614.932 3
  23561210.317    -7108994.609 8  -5539473.923 9
  23174245.404    -8330421.609 7  -6491256.579 8
 91 11  5 18  5 30.0090000  0  5 16 23 20 17  3
  25798160.607     7750762.794 6   6039539.521 5
  25259000.959    -4071926.633 6  -3172921.521 5
  26107253.828    17283586.070 6  13467704.331 4
  23563862.579    -7095059.049 8  -5528615.052 9
  23177212.154    -8314806.928 7  -6479089.302 8
 91 11  5 18  6  0.0090000  0  5 16 23 20 17  3
  25823550.631     7884168.506 6   6143492.230 4
  25249898.655    -4119763.039 6  -3210196.553 4
  26135131.528    17430118.549 5  13581885.593 2
  23566564.605    -7080859.633 7  -5517550.593 9
  23180257.740    -8298818.964 7  -6466631.158 8
 91 11  5 18  6 30.0090000  0  5 16 23 20 17  3
  25848979.027     8017822.696 6   6247638.550 4
  25240855.717    -4167277.334 6  -3247220.578 5
  26163039.207    17576777.032 5  13696165.019 3
  23569318.503    -7066390.794 8  -5506276.189 9
  23183373.782    -8282448.929 7  -6453875.303 8
 91 11  5 18  7  0.0090000  0  5 16 23 20 17  3
  25874464.084     8151722.269 6   6351976.095 4
  25231877.833    -4214468.091 6  -3283992.499 5
  26190988.558    17723557.885 6  13810539.819 3
  23572121.557    -7051653.225 7  -5494792.374 9
  23186562.678    -8265695.113 7  -6440820.400 7
 91 11  5 18  7 30.0090000  0  5 16 23 20 17  3
  25899989.015     8285862.250 6   6456500.967 4
  25222955.415    -4261337.680 6  -3320514.148 5
  26218938.807    17870454.553 6  13925004.829 2
  23574979.484    -7036651.261 7  -5483102.540 9
  23189824.421    -8248559.322 7  -6427467.846 8
 91 11  5 18  8  0.0090000  0  5 16 23 20 17  3
  25925559.211     8420238.246 6   6561209.739 5
  25214104.341    -4307884.875 6  -3356784.584 3
  26246906.742    18017463.000 5  14039556.952 2
  23577880.871    -7021385.592 8  -5471207.231 9
  23193159.009    -8231040.198 7  -6413816.618 7
 91 11  5 18  8 30.0090000  0  5 16 23 20 17  3
  25951174.979     8554843.998 6   6666097.538 5
  25205307.233    -4354112.612 6  -3392806.066 6
  26274892.669    18164575.772 5  14154190.373 3
  23580837.130    -7005861.039 8  -5459110.174 9
  23196561.356    -8213140.105 7  -6399868.500 8
 91 11  5 18  9  0.0090000  0  5 16 23 20 17  3
  25976832.410     8689696.696 6   6771177.739 5
  25196575.772    -4399999.607 6  -3428562.064 4
  26302913.373    18311809.989 5  14268918.397 3
  23583843.444    -6990058.012 8  -5446796.146 9
  23200047.945    -8194836.720 7  -6385606.146 7
 91 11  5 18  9 30.0090000  0  5 16 23 20 17  3
  26002540.219     8824768.842 6   6876428.941 5
  25187898.285    -4445568.738 6  -3464070.353 5
  26330953.858    18459137.926 5  14383719.470 3
  23586898.934    -6974002.017 8  -5434284.977 9
  23203600.478    -8176152.780 7  -6371047.259 8
 91 11  5 18 10  0.0090000  0  5 16 23 20 17  3
  26028285.493     8960061.872 6   6981852.274 4
  25179293.041    -4490815.169 6  -3499327.183 5
  26359006.339    18606559.817 5  14498593.742 4
  23590004.479    -6957689.156 8  -5421573.672 9
  23207227.968    -8157083.163 7  -6356187.833 8
 91 11  5 18 10 30.0090000  0  5 16 23 20 17  3
  26054071.541     9095564.592 6   7087438.986 3
  25170741.458    -4535744.984 6  -3534337.281 5
  26387089.402    18754064.869 5  14613532.775 3
  23593157.699    -6941128.263 8  -5408669.102 9
  23210928.906    -8137633.354 7  -6341032.171 7
 91 11  5 18 11  0.0090000  0  5 16 23 20 17  3
  26079891.171     9231265.885 6   7193180.440 4
  25162248.341    -4580365.639 6  -3569106.487 5
  26415151.472    18901640.943 5  14728527.183 2
  23596354.980    -6924328.236 8  -5395578.181 9
  23214705.997    -8117810.432 7  -6325585.764 8
 91 11  5 18 11 30.0090000  0  5 16 23 20 17  3
  26105755.761     9367166.396 6   7299077.126 3
  25153814.581    -4624672.500 6  -3603631.188 5
  26443248.923    19049288.409 5  14843577.207 4
  23599597.239    -6907286.823 8  -5382299.186 9
  23218546.336    -8097609.054 7  -6309844.468 8
 91 11  5 18 12  0.0090000  0  5 16 23 20 17  3
  26131653.333     9503255.924 6   7405121.073 3
  25145444.968    -4668671.751 6  -3637916.171 4
  26471373.352    19196996.207 5  14958674.236 4
  23602883.264    -6890012.046 8  -5368838.328 9
  23222464.320    -8077034.983 7  -6293812.750 8
 91 11  5 18 12 30.0090000  0  5 16 23 20 17  3
  26157583.283     9639547.873 5   7511322.795 4
  25137132.626    -4712346.015 6  -3671947.931 5
  26499491.786    19344777.299 5  15073828.388 2
  23606216.656    -6872488.303 8  -5355183.492 9
  23226449.767    -8056070.448 7  -6277476.783 8
 91 11  5 18 13  0.0090000  0  5 16 23 20 17  3
  26183553.701     9776015.884 5   7617661.643 5
  25128876.344    -4755717.758 6  -3705743.962 4
  26527629.704    19492604.564 5  15189018.496 3
  23609594.417    -6854739.787 8  -5341353.516 9
  23230511.654    -8034737.260 7  -6260853.562 8
 91 11  5 18 13 30.0090000  0  5 16 23 20 17  3
  26209562.194     9912658.627 5   7724136.658 4
  25120684.513    -4798784.270 6  -3739302.151 6
  26555766.426    19640476.451 5  15304243.393 3
  23613010.253    -6836765.507 7  -5327347.612 9
  23234640.393    -8013032.045 7  -6243940.432 8
 91 11  5 18 14  0.0090000  0  5 16 23 20 17  3
  26235590.782    10049471.233 5   7830744.029 5
  25112548.149    -4841546.000 6  -3772622.840 6
  26583917.240    19788388.162 5  15419499.322 2
  23616475.858    -6818567.773 8  -5313167.593 9
  23238847.980    -7990954.637 7  -6226737.283 8
 91 11  5 18 14 30.0090000  0  5 16 23 20 17  3
  26261664.924    10186449.132 5   7937480.200 2
  25104464.239    -4884003.093 6  -3805706.160 5
  26612046.467    19936334.920 5  15534782.567 2
  23619981.624    -6800148.697 8  -5298815.090 9
  23243115.824    -7968505.126 7  -6209244.190 8
 91 11  5 18 15  0.0090000  0  5 16 23 20 17  3
  26287756.768    10323563.485 6   8044322.694 5
  25096439.696    -4926181.792 6  -3838572.563 6
  26640221.562    20084285.794 5  15650068.979 2
  23623522.177    -6781536.102 8  -5284311.812 9
  23247453.826    -7945708.763 7  -6191480.817 8
 91 11  5 18 15 30.0090000  0  5 16 23 20 17  3
  26313873.785    10460835.091 5   8151287.734 4
  25088474.509    -4968057.022 6  -3871202.496 5
  26668373.571    20232261.656 5  15765374.893 3
  23627106.199    -6762706.751 8  -5269639.641 9
  23251863.173    -7922540.038 7  -6173427.293 8
 91 11  5 18 16  0.0090000  0  5 16 23 20 17  3
  26340025.580    10598258.795 5   8258371.276 3
  25080558.488    -5009629.731 6  -3903596.692 6
  26696538.772    20380257.320 5  15880696.231 3
  23630731.586    -6743663.595 8  -5254800.839 9
  23256342.670    -7898999.274 7  -6155083.864 8
 91 11  5 18 16 30.0090000  0  5 16 23 20 17  3
  26366209.457    10735840.222 5   8365577.704 3
  25072708.726    -5050890.217 6  -3935747.606 6
  26724706.966    20528277.660 5  15996036.766 2
  23634395.652    -6724398.800 8  -5239789.350 9
  23260896.514    -7875076.556 7  -6136442.822 8
 91 11  5 18 17  0.0090000  0  5 16 23 20 17  3
  26392418.812    10873574.020 5   8472902.883 4
  25064915.624    -5091840.528 6  -3967656.808 6
  26752864.079    20676316.583 5  16111391.830 2
  23638106.476    -6704915.955 8  -5224607.955 9
  23265518.117    -7850773.029 7  -6117505.037 8
 91 11  5 18 17 30.0090000  0  5 16 23 20 17  3
  26418651.550    11011436.705 5   8580328.457 4
  25057178.878    -5132499.878 6  -3999339.325 6
  26781040.073    20824350.727 5  16226743.127 3
  23641850.289    -6685235.567 8  -5209272.621 9
  23270214.066    -7826107.315 7  -6098285.042 9
 91 11  5 18 18  0.0090000  0  5 16 23 20 17  3
  26444906.475    11149420.440 5   8687848.362 3
  25049497.894    -5172872.230 6  -4030798.190 5
  26809225.656    20972371.387 5  16342083.935 2
  23645628.270    -6665364.215 8  -5193788.480 9
  23274975.367    -7801082.624 7  -6078785.303 8
 91 11  5 18 18 30.0090000  0  5 16 23 20 17  3
  26471185.378    11287512.631 5   8795452.789 4
  25041867.272    -5212965.753 6  -4062039.794 5
  26837378.572    21120365.994 5  16457404.377 2
  23649447.625    -6645312.183 8  -5178163.557 9
  23279801.425    -7775707.125 7  -6059012.211 8
 91 11  5 18 19  0.0090000  0  5 16 23 20 17  3
  26497487.672    11425732.571 5   8903156.771 4
  25034288.520    -5252758.111 6  -4093046.728 6
  26865526.384    21268352.641 4  16572718.688 2
  23653304.760    -6625057.775 8  -5162380.933 9
  23284708.435    -7749957.731 7  -6038947.774 7
 91 11  5 18 19 30.0090000  0  5 16 23 20 17  3
  26523822.337    11564115.887 5   9010988.034 4
  25026784.115    -5292209.322 6  -4123787.846 5
  26893700.581    21416366.619 4  16688054.258 2
  23657198.166    -6604562.929 7  -5146410.965 9
  23289683.789    -7723793.965 7  -6018560.468 7
 91 11  5 18 20  0.0090000  0  5 16 23 20 17  3
  26550187.592    11702667.680 6   9118950.594 5
  25019346.867    -5331311.555 6  -4154257.009 6
  26921881.068    21564411.913 5  16803414.250 3
  23661149.130    -6583821.448 8  -5130248.803 9
  23294741.290    -7697207.127 7  -5997843.472 8
 91 11  5 18 20 30.0090000  0  5 16 23 20 17  3
  26576589.413    11841370.965 6   9227031.190 4
  25011969.273    -5370077.474 6  -4184464.122 6
  26950057.359    21712471.375 5  16918785.249 3
  23665139.664    -6562847.757 8  -5113905.681 9
  23299882.726    -7670209.405 7  -5976806.316 8
 91 11  5 18 21  0.0090000  0  5 16 23 20 17  3
  26603007.420    11980223.120 5   9335227.774 4
  25004656.140    -5408505.499 6  -4214407.948 5
  26978230.963    21860542.481 5  17034165.301 2
  23669174.870    -6541641.725 8  -5097381.533 9
  23305098.517    -7642798.588 7  -5955447.273 8
 91 11  5 18 21 30.0090000  0  5 16 23 20 17  3
  26629453.914    12119208.052 5   9443527.835 3
  24997402.058    -5446608.048 6  -4244098.162 5
  27006407.253    22008608.559 5  17149541.445 3
  23673252.951    -6520218.166 8  -5080687.887 9
  23310388.054    -7614986.236 7  -5933775.356 9
 91 11  5 18 22  0.0090000  0  5 16 23 20 17  3
  26655927.387    12258318.495 5   9551925.682 2
  24990214.837    -5484389.461 6  -4273538.132 6
  27034578.754    22156660.873 5  17264906.846 3
  23677368.802    -6498582.558 8  -5063828.985 9
  23315758.236    -7586776.764 7  -5911793.991 8
 91 11  5 18 22 30.0090000  0  5 16 23 20 17  3
  26682425.141    12397550.984 6   9660418.644 2
  24983086.371    -5521848.645 6  -4302727.004 5
  27062739.453    22304696.584 5  17380259.314 2
  23681524.519    -6476735.267 8  -5046805.150 9
  23321205.164    -7558167.686 7  -5889501.234 8
 91 11  5 18 23  0.0090000  0  5 16 23 20 17  3
  26708941.183    12536901.021 6   9769003.216 4
  24976019.957    -5558987.154 6  -4331666.012 6
  27090919.644    22452709.996 5  17495594.453 3
  23685725.816    -6454679.597 8  -5029618.928 9
  23326719.547    -7529160.326 7  -5866898.148 9
 91 11  5 18 23 30.0090000  0  5 16 23 20 17  3
  26735481.210    12676361.456 6   9877673.785 2
  24969018.904    -5595807.138 6  -4360356.831 6
  27119084.845    22600694.101 5  17610906.697 3
  23689960.382    -6432419.569 8  -5012273.475 9
  23332318.170    -7499756.378 7  -5843986.031 9
 91 11  5 18 24  0.0090000  0  5 16 23 20 17  3
  26762045.520    12815961.690 6   9986453.310 2
  24962073.019    -5632276.563 6  -4388774.462 6
  27147241.958    22748677.331 5  17726218.220 3
  23694238.417    -6409924.597 8  -4994744.935 9
  23337995.040    -7469922.817 7  -5820739.132 9
 91 11  5 18 24 30.0100000  0  5 16 23 20 17  3
  26788640.414    12955724.725 5  10095359.713 3
  24955204.774    -5668374.865 6  -4416902.914 6
  27175388.569    22896682.134 5  17841546.615 1
  23698568.325    -6387173.249 8  -4977016.611 9
  23343761.249    -7439636.344 7  -5797139.315 9
 91 11  5 18 25  0.0100000  0  5 16 23 20 17  3
  26815263.182    13095630.770 5  10204377.545 3
  24948404.581    -5704106.216 6  -4444745.418 6
  27203576.560    23044688.173 5  17956875.938 2
  23702944.691    -6364175.413 8  -4959096.225 9
  23349608.102    -7408904.910 7  -5773192.771 8
 91 11  5 18 25 30.0100000  0  5 16 23 20 17  3
  26841921.024    13235677.005 5  10313504.589 3
  24941671.842    -5739475.171 6  -4472305.560 6
  27231736.064    23192692.693 5  18072204.050 2
  23707366.332    -6340935.493 8  -4940987.198 9
  23355538.898    -7377730.469 7  -5748901.034 9
 91 11  5 18 26  0.0100000  0  5 16 23 20 17  3
  26868587.862    13375845.026 5  10422726.531 4
  24935010.753    -5774497.462 6  -4499595.566 6
  27259876.677    23340675.851 4  18187515.557 3
  23711833.535    -6317470.235 8  -4922702.593 9
  23361547.933    -7346127.977 7  -5724275.742 8
 91 11  5 18 26 30.0100000  0  5 16 23 20 17  3
  26895279.288    13516137.967 5  10532045.780 3
  24928412.617    -5809165.940 6  -4526609.871 7
  27288051.180    23488640.978 5  18302812.968 2
  23716340.918    -6293774.594 8  -4904238.455 9
  23367649.315    -7314089.637 7  -5699310.826 8
 91 11  5 18 27  0.0100000  0  5 16 23 20 17  3
  26922004.288    13656540.692 5  10641450.571 2
  24921882.239    -5843492.309 6  -4553357.603 6
  27316206.783    23636571.761 4  18418083.622 3
  23720893.863    -6269861.150 8  -4885604.604 9
  23373824.737    -7281626.671 7  -5674015.035 9
 91 11  5 18 27 30.0100000  0  5 16 23 20 17  3
  26948741.276    13797034.792 5  10750926.609 3
  24915414.517    -5877491.308 7  -4579850.231 7
  27344348.304    23784449.975 5  18533313.275 2
  23725480.993    -6245746.489 8  -4866813.957 9
  23380083.808    -7248752.993 7  -5648399.201 9
 91 11  5 18 28  0.0100000  0  5 16 23 20 17  3
  26975490.261    13937625.816 5  10860478.156 3
  24909005.252    -5911154.103 6  -4606080.912 6
  27372466.433    23932280.057 4  18648505.406 1
  23730108.285    -6221423.271 8  -4847860.803 9
  23386418.123    -7215459.256 7  -5622456.057 9
 91 11  5 18 28 30.0100000  0  5 16 23 20 17  3
  27002268.920    14078315.919 6  10970106.936 2
  24902664.044    -5944475.039 7  -4632045.194 6
  27400580.069    24080063.582 3  18763661.285 2
  23734776.052    -6196887.393 8  -4828741.938 9
  23392834.874    -7181739.166 7  -5596180.678 8
 91 11  5 18 29  0.0100000  0  4 16 23 17  3
  27029060.771    14219102.282 6  11079810.697 2
  24896389.085    -5977453.461 7  -4657742.581 6
  23739489.094    -6172139.031 8  -4809457.497 9
  23399334.382    -7147591.374 7  -5569572.021 9
 91 11  5 18 29 30.0100000  0  4 16 23 17  3
  27055864.917    14359969.243 5  11189577.275 4
  24890178.291    -6010101.629 7  -4683182.646 6
  23744233.608    -6147192.794 8  -4790018.869 9
  23405911.220    -7113027.572 7  -5542639.213 8
 91 11  5 18 30  0.0100000  0  4 16 23 17  3
  27082686.442    14500907.097 5  11299399.081 2
  24884026.243    -6042425.376 7  -4708369.910 6
  23749019.496    -6122055.096 8  -4770431.066 9
  23412563.619    -7078052.709 7  -5515386.104 9
 91 11  5 18 30 30.0100000  0  5 16 23 20 17  3
  27109526.867    14641943.814 5  11409297.945 4
  24877941.657    -6074393.907 7  -4733280.394 7
  27512953.974       24581.15414     19129.208 2
  23753843.757    -6096696.502 8  -4750671.122 9
  23419302.954    -7042635.687 7  -5487788.449 8
 91 11  5 18 31  0.0100000  0  5 16 23 20 17  3
  27136378.677    14783076.458 5  11519271.554 2
  24871924.229    -6106006.617 7  -4757913.618 7
  27541049.924      172073.400 5    134058.061 2
  23758712.385    -6071118.064 8  -4730739.877 9
  23426128.327    -7006774.738 7  -5459844.863 7
 91 11  5 18 31 30.0100000  0  5 16 23 20 17  3
  27163251.175    14924286.548 5  11629305.454 3
  24865973.042    -6137278.822 7  -4782281.508 6
  27569098.209      319494.294 5    248931.329 2
  23763616.690    -6045336.835 8  -4710650.615 9
  23433034.347    -6970484.860 7  -5431567.062 8
 91 11  5 18 32  0.0100000  0  5 16 23 20 17  3
  27190129.963    15065573.474 5  11739399.243 3
  24860086.621    -6168207.409 7  -4806381.661 7
  27597132.106      466843.275 5    363748.537 2
  23768562.963    -6019350.246 8  -4690401.355 9
  23440024.904    -6933761.977 7  -5402951.867 8
 91 11  5 18 32 30.0100000  0  5 16 23 20 17  3
  27217042.038    15206937.040 5  11849552.751 3
  24854269.146    -6198788.982 7  -4830211.410 6
  27625168.097      614119.784 5    478509.284 3
  23773548.516    -5993156.732 8  -4669990.841 9
  23447090.419    -6896602.604 7  -5373996.536 8
 91 11  5 18 33  0.0100000  0  5 16 23 20 17  3
  27243948.407    15348368.544 5  11959759.245 3
  24848516.428    -6229029.341 7  -4853775.273 6
  27653177.101      761314.190 5    593206.054 2
  23778568.543    -5966763.308 8  -4649424.552 9
  23454245.261    -6859011.953 7  -5344705.153 9
 91 11  5 18 33 30.0100000  0  5 16 23 20 17  3
  27270879.659    15489871.961 5  12070021.730 3
  24842821.271    -6258921.722 7  -4877068.008 6
  27681160.628      908429.808 5    707841.414 3
  23783632.038    -5940164.157 8  -4628697.953 9
  23461482.852    -6820981.692 7  -5315071.210 8
 91 11  5 18 34  0.0100000  0  5 16 23 20 17  3
  27297814.515    15631457.928 5  12180348.551 3
  24837208.556    -6288451.234 7  -4900077.982 7
  27709146.860     1055477.328 4    822423.692 2
  23788733.007    -5913346.247 8  -4607800.919 9
  23468805.880    -6782496.920 7  -5285083.107 9
 91 11  5 18 34 30.0100000  0  5 16 23 20 17  3
  27324786.540    15773143.826 5  12290753.243 3
  24831662.101    -6317598.212 7  -4922789.851 6
  27737121.688     1202473.260 4    936965.790 4
  23793883.438    -5886290.474 8  -4586718.529 9
  23476220.949    -6743536.899 7  -5254724.674 8
 91 11  5 18 35  0.0100000  0  5 16 23 20 17  3
  27351757.073    15914908.520 4  12401219.324 3
  24826180.394    -6346380.521 7  -4945217.574 7
  27765096.821     1349395.614 4   1051450.495 4
  23799073.142    -5859016.519 8  -4565466.115 9
  23483721.462    -6704119.340 7  -5224009.709 8
 91 11  5 18 35 30.0100000  0  5 16 23 20 17  3
  27378742.893    16056720.474 4  12511722.251 2
  24820772.135    -6374826.484 7  -4967383.216 7
  27793026.392     1496211.885 5   1165853.025 3
  23804298.828    -5831553.995 8  -4544066.771 9
  23491305.309    -6664272.041 7  -5192959.902 8
 91 11  5 18 36  0.0100000  0  5 16 23 20 17  3
  27405732.604    16198561.781 4  12622248.047 1
  24815417.545    -6402950.545 7  -4989298.023 6
  27820931.672     1642904.227 4   1280158.514 3
  23809558.986    -5803917.766 8  -4522532.083 9
  23498967.700    -6624008.579 7  -5161585.804 8
 91 11  5 18 36 30.0100000  0  5 16 23 20 17  3
  27432736.711    16340435.118 4  12732798.726 1
  24810129.509    -6430746.694 7  -5010957.307 7
  27848817.766     1789475.083 4   1394369.340 2
  23814852.719    -5776103.674 8  -4500858.795 9
  23506710.440    -6583322.157 7  -5129882.139 8
 91 11  5 18 37  0.0100000  0  4 16 23 17  3
  27459737.520    16482315.353 4  12843354.911 2
  24804899.024    -6458237.125 7  -5032378.350 7
  23820171.040    -5748135.067 8  -4479065.100 9
  23514524.534    -6542234.198 7  -5097865.567 8
 91 11  5 18 37 30.0100000  0  4 16 23 17  3
  27486734.429    16624172.001 5  12953892.599 2
  24799718.910    -6485449.113 7  -5053582.453 7
  23825521.730    -5720040.492 8  -4457173.240 9
  23522418.070    -6500771.458 7  -5065556.951 8
 91 11  5 18 38  0.0100000  0  4 16 23 17  3
  27513727.141    16766035.903 5  13064435.997 1
  24794602.358    -6512348.761 7  -5074543.151 7
  23830895.813    -5691786.521 8  -4435157.174 9
  23530384.758    -6458899.074 7  -5032929.169 8
 91 11  5 18 38 30.0100000  0  4 16 23 17  3
  27540736.641    16907951.871 5  13175019.979 2
  24789548.748    -6538888.585 7  -5095223.477 6
  23836311.863    -5663327.011 8  -4412980.957 9
  23538439.578    -6416569.297 7  -4999944.952 8
 91 11  5 18 39  0.0100000  0  4 16 23 17  3
  27567755.738    17049936.644 5  13285657.527 2
  24784572.199    -6565048.267 7  -5115607.577 7
  23841769.890    -5634643.606 8  -4390630.262 9
  23546586.439    -6373761.373 7  -4966588.155 8
 91 11  5 18 39 30.0100000  0  4 16 23 17  3
  27594787.425    17191997.894 5  13396354.715 2
  24779668.496    -6590816.948 7  -5135686.995 7
  23847274.971    -5605725.711 8  -4368096.845 9
  23554828.927    -6330463.637 7  -4932849.671 8
 91 11  5 18 40  0.0100000  0  4 16 23 17  3
  27621837.103    17334143.319 6  13507117.477 4
  24774842.735    -6616184.745 7  -5155454.043 7
  23852824.437    -5576564.701 8  -4345373.992 9
  23563159.862    -6286665.208 7  -4898721.042 8
 91 11  5 18 40 30.0100000  0  4 16 23 17  3
  27648904.162    17476350.649 5  13617928.472 3
  24770087.725    -6641170.533 7  -5174923.413 7
  23858415.565    -5547180.200 8  -4322476.996 9
  23571587.627    -6242384.309 7  -4864216.483 8
 91 11  5 18 41  0.0100000  0  4 16 23 17  3
  27675965.524    17618610.822 5  13728780.635 2
  24765403.763    -6665780.482 7  -5194099.925 7
  23864047.160    -5517579.911 8  -4299411.830 9
  23580105.628    -6197627.142 7  -4829340.784 8
 91 11  5 18 41 30.0100000  0  4 16 23 17  3
  27703049.082    17760913.706 5  13839666.065 4
  24760791.165    -6690021.757 7  -5212989.158 7
  23869719.537    -5487771.643 8  -4276184.633 9
  23588712.678    -6152399.686 7  -4794098.637 8
 91 11  5 18 42  0.0100000  0  4 16 23 17  3
  27730139.524    17903272.661 5  13950595.201 4
  24756251.700    -6713877.791 7  -5231578.193 7
  23875433.585    -5457740.109 8  -4252783.435 9
  23597410.556    -6106685.021 7  -4758476.841 8
 91 11  5 18 42 30.0100000  0  4 16 23 17  3
  27757250.051    18045713.407 5  14061588.091 3
  24751789.889    -6737320.142 7  -5249844.900 7
  23881198.587    -5427457.746 8  -4229186.802 9
  23606205.265    -6060453.349 7  -4722452.203 8
 91 11  5 18 43  0.0100000  0  4 16 23 17  3
  27784357.892    18188224.678 5  14172635.899 2
  24747404.832    -6760357.223 7  -5267795.801 7
  23887003.768    -5396933.763 8  -4205401.892 9
  23615101.002    -6013713.128 7  -4686031.291 7
 91 11  5 18 43 30.0100000  0  4 16 23 17  3
  27811490.904    18330773.443 5  14283712.938 3
  24743094.114    -6783019.039 7  -5285454.280 8
  23892852.121    -5366199.505 8  -4181453.113 9
  23624086.983    -5966493.561 7  -4649236.845 8
 91 11  5 18 44  0.0110000  0  4 16 23 17  3
  27838622.427    18473336.437 4  14394801.039 5
  24738847.554    -6805332.095 7  -5302841.018 9
  23898734.951    -5335280.122 8  -4157360.097 9
  23633157.801    -5918817.838 7  -4612086.970 8
 91 11  5 18 44 30.0110000  0  4 16 23 17  3
  27865760.534    18615894.633 4  14505885.412 4
  24734666.944    -6827301.598 7  -5319960.044 7
  23904655.853    -5304186.030 8  -4133130.934 9
  23642317.961    -5870695.583 7  -4574589.141 8
 91 11  5 18 45  0.0110000  0  4 16 23 17  3
  27892883.661    18758464.082 4  14616978.578 4
  24730551.991    -6848914.054 7  -5336800.857 8
  23910608.533    -5272902.184 8  -4108753.918 9
  23651562.964    -5822110.044 7  -4536730.316 8
 91 11  5 18 45 30.0110000  0  4 16 23 17  3
  27920019.369    18901082.587 5  14728109.944 2
  24726515.293    -6870128.924 7  -5353331.857 8
  23916604.375    -5241388.940 8  -4084198.135 9
  23660906.893    -5773020.243 7  -4498478.564 8
 91 11  5 18 46  0.0110000  0  4 16 23 17  3
  27947180.266    19043776.262 4  14839299.926 2
  24722559.826    -6890917.495 7  -5369530.691 8
  23922646.993    -5209619.011 8  -4059442.345 9
  23670346.161    -5723397.092 7  -4459811.203 8
 91 11  5 18 46 30.0110000  0  4 16 23 17  3
  27974350.159    19186566.658 4  14950565.238 2
  24718688.906    -6911255.211 7  -5385378.203 8
  23928749.875    -5177568.030 8  -4034467.556 9
  23679898.750    -5673214.940 7  -4420708.271 8
 91 11  5 18 47  0.0110000  0  4 16 23 17  3
  28001535.042    19329453.639 4  15061905.866 2
  24714904.931    -6931139.751 7  -5400872.597 8
  23934905.212    -5145234.396 8  -4009272.523 9
  23689549.663    -5622471.252 7  -4381167.769 7
 91 11  5 18 47 30.0110000  0  3 23 17  3
  24711198.897    -6950610.360 7  -5416044.444 8
  23941103.722    -5112659.113 8  -3983889.196 9
  23699310.608    -5571204.621 7  -4341219.790 8
 91 11  5 18 48  0.0110000  0  3 23 17  3
  24707572.000    -6969685.724 7  -5430908.312 8
  23947338.807    -5079861.399 8  -3958332.539 9
  23709161.491    -5519433.059 7  -4300878.353 8
 91 11  5 18 48 30.0110000  0  3 23 17  3
  24704013.770    -6988380.930 7  -5445475.948 8
  23953623.354    -5046856.894 8  -3932614.751 9
  23719103.805    -5467170.692 7  -4260154.461 8
 91 11  5 18 49  0.0110000  0  3 23 17  3
  24700530.479    -7006685.787 7  -5459739.411 7
  23959941.179    -5013635.984 8  -3906728.358 9
  23729145.952    -5414407.302 7  -4219040.177 8
 91 11  5 18 49 30.0110000  0  3 23 17  3
  24697123.639    -7024585.307 7  -5473687.041 8
  23966309.968    -4980184.071 8  -3880661.940 9
  23739285.532    -5361126.656 7  -4177522.832 7
 91 11  5 18 50  0.0110000  0  3 23 17  3
  24693794.442    -7042081.603 7  -5487320.451 8
  23972719.834    -4946504.430 8  -3854418.091 9
  23749521.646    -5307330.456 7  -4135603.749 8
 91 11  5 18 50 30.0110000  0  3 23 17  3
  24690539.296    -7059182.968 7  -5500646.146 8
  23979172.567    -4912606.242 8  -3828003.938 9
  23759856.992    -5253026.532 7  -4093289.055 7
 91 11  5 18 51  0.0110000  0  3 23 17  3
  24687359.395    -7075895.739 7  -5513669.027 8
  23985659.476    -4878496.286 8  -3801424.781 9
  23770282.877    -5198220.606 7  -4050583.184 8
 91 11  5 18 51 30.0110000  0  3 23 17  3
  24684254.147    -7092218.772 7  -5526388.236 8
  23992192.550    -4844174.117 8  -3774680.263 9
  23780811.885    -5142911.154 7  -4007484.953 8
 91 11  5 18 52  0.0110000  0  3 23 17  3
  24681223.846    -7108142.941 7  -5538796.624 8
  23998766.701    -4809631.322 8  -3747763.810 9
  23791433.536    -5087088.001 7  -3963986.434 7
 91 11  5 18 52 30.0110000  0  3 23 17  3
  24678267.291    -7123672.251 7  -5550897.337 7
  24005379.226    -4774872.641 8  -3720679.151 9
  23802155.011    -5030754.933 7  -3920090.567 8
 91 11  5 18 53  0.0110000  0  3 23 17  3
  24675379.690    -7138844.149 7  -5562719.525 8
  24012029.818    -4739935.899 8  -3693455.736 9
  23812963.126    -4973948.846 7  -3875826.130 8
 91 11  5 18 53 30.0110000  0  3 23 17  3
  24672565.240    -7153653.041 7  -5574258.878 7
  24018709.194    -4704816.172 8  -3666089.753 9
  23823864.181    -4916663.101 7  -3831187.933 7
 91 11  5 18 54  0.0110000  0  3 23 17  3
  24669820.339    -7168078.287 7  -5585499.265 8
  24025434.141    -4669493.780 8  -3638565.838 9
  23834859.668    -4858877.125 7  -3786159.936 8
 91 11  5 18 54 30.0110000  0  3 23 17  3
  24667148.588    -7182101.565 7  -5596426.428 7
  24032197.758    -4633950.209 8  -3610869.573 9
  23845956.488    -4800571.243 7  -3740726.825 7
 91 11  5 18 55  0.0110000  0  4 23 17 21  3
  24664561.375    -7195703.332 7  -5607025.147 8
  24039006.938    -4598166.860 8  -3582986.477 9
  28144699.726     -126349.496 4    -98454.277 2
  23857152.539    -4741725.719 7  -3694873.218 7
 91 11  5 18 55 30.0110000  0  4 23 17 21  3
  24662047.322    -7208902.000 7  -5617309.762 8
  24045858.400    -4562162.735 8  -3554931.344 9
  28133642.788     -184442.289 3   -143721.219 1
  23868448.719    -4682358.855 7  -3648613.383 7
 91 11  5 18 56  0.0110000  0  4 23 17 21  3
  24659604.309    -7221748.661 7  -5627320.083 7
  24052740.434    -4525989.532 8  -3526744.458 9
  28122597.533     -242450.521 3   -188922.630 2
  23879840.230    -4622520.776 7  -3601986.365 7
 91 11  5 18 56 30.0110000  0  3 23 17  3
  24657226.953    -7234257.081 7  -5637066.836 8
  24059652.448    -4489661.123 8  -3498436.637 9
  23891312.989    -4562224.577 7  -3555002.349 7
 91 11  5 18 57  0.0110000  0  3 23 17  3
  24654912.862    -7246401.867 7  -5646530.239 9
  24066600.435    -4453152.514 8  -3469988.388 9
  23902878.679    -4501444.858 7  -3507641.569 7
 91 11  5 18 57 30.0110000  0  3 23 17  3
  24652676.407    -7258169.929 7  -5655700.103 8
  24073584.108    -4416451.315 8  -3441390.091 9
  23914540.311    -4440167.549 7  -3459893.070 7
 91 11  5 18 58  0.0110000  0  3 23 17  3
  24650505.312    -7269567.773 7  -5664581.461 8
  24080606.146    -4379564.872 8  -3412647.429 9
  23926293.373    -4378398.872 7  -3411761.666 8
 91 11  5 18 58 30.0110000  0  3 23 17  3
  24648413.057    -7280575.450 7  -5673158.825 8
  24087660.859    -4342473.359 8  -3383744.983 9
  23938142.367    -4316118.115 7  -3363231.243 7
 91 11  5 18 59  0.0110000  0  3 23 17  3
  24646398.150    -7291155.579 7  -5681402.999 8
  24094766.840    -4305139.734 8  -3354653.859 9
  23950101.988    -4253287.627 7  -3314272.457 7
 91 11  5 18 59 30.0110000  0  3 23 17  3
  24644469.892    -7301285.463 7  -5689296.355 8
  24101921.988    -4267541.651 8  -3325356.674 9
  23962167.435    -4189884.062 7  -3264867.122 7
 91 11  5 19  0  0.0110000  0  3 23 17  3
  24642625.867    -7310970.887 7  -5696843.371 9
  24109125.403    -4229684.970 8  -3295857.986 9
  23974338.115    -4125912.872 7  -3215019.480 7
 91 11  5 19  0 30.0110000  0  3 23 17  3
  24640868.185    -7320204.137 7  -5704038.040 9
  24116380.977    -4191562.425 8  -3266152.113 9
  23986622.405    -4061365.450 7  -3164722.831 8
 91 11  5 19  1  0.0110000  0  3 23 17  3
  24639197.135    -7328993.030 7  -5710886.479 9
  24123686.022    -4153181.917 8  -3236245.236 9
  23999014.032    -3996249.449 7  -3113983.142 7
 91 11  5 19  1 30.0110000  0  4 23 17 21  3
  24637604.043    -7337366.823 7  -5717411.447 9
  24131031.237    -4114573.484 8  -3206160.751 9
  28002750.101       -9392.25214     -7319.080 4
  24011505.177    -3930593.428 7  -3062822.656 7
 91 11  5 19  2  0.0110000  0  4 23 17 21  3
  24636091.293    -7345309.831 7  -5723600.750 9
  24138422.321    -4075721.607 8  -3175886.581 9
  27992048.711      -65637.156 5    -51146.330 3
  24024107.558    -3864381.272 7  -3011228.825 7
 91 11  5 19  2 30.0110000  0  4 23 17 21  3
  24634659.476    -7352819.379 7  -5729452.291 9
  24145865.266    -4036623.825 8  -3145420.777 9
  27981382.693     -121704.132 4    -94834.913 3
  24036811.858    -3797609.767 7  -2959199.150 7
 91 11  5 19  3  0.0120000  0  4 23 17 21  3
  24633313.710    -7359902.959 7  -5734971.903 9
  24153349.284    -3997286.503 8  -3114768.331 9
  27970751.151     -177601.962 4   -138391.701 2
  24049624.395    -3730283.892 7  -2906737.484 7
 91 11  5 19  3 30.0120000  0  4 23 17 21  3
  24632038.395    -7366593.348 7  -5740185.147 8
  24160875.275    -3957745.473 8  -3083957.146 9
  27960139.700     -233359.073 5   -181838.838 2
  24062537.356    -3662440.642 7  -2853872.669 7
 91 11  5 19  4  0.0120000  0  4 23 17 21  3
  24630845.525    -7372868.766 7  -5745075.040 8
  24168441.733    -3917978.275 8  -3052969.732 9
  27949553.429     -288954.378 5   -225159.940 3
  24075548.945    -3594055.627 7  -2800585.721 7
 91 11  5 19  4 30.0120000  0  4 23 17 21  3
  24629736.886    -7378703.714 7  -5749621.708 9
  24176058.561    -3877959.215 8  -3021786.040 9
  27939015.121     -344361.233 5   -268334.125 3
  24088670.558    -3525102.646 7  -2746856.199 6
 91 11  5 19  5  0.0120000  0  4 23 17 21  3
  24628709.496    -7384091.149 7  -5753819.667 9
  24183724.258    -3837680.781 8  -2990400.260 9
  27928497.805     -399571.401 4   -311355.092 2
  24101899.201    -3455573.786 7  -2692677.927 7
 91 11  5 19  5 30.0120000  0  4 23 17 21  3
  24627769.950    -7389039.597 7  -5757675.569 9
  24191433.415    -3797152.355 8  -2958819.681 9
  27918034.148     -454592.910 5   -354229.079 2
  24115240.870    -3385477.577 7  -2638057.573 7
 91 11  5 19  6  0.0120000  0  4 23 17 21  3
  24626912.839    -7393537.356 7  -5761180.282 9
  24199196.843    -3756362.122 8  -2927035.102 9
  27907610.060     -509413.086 5   -396946.141 2
  24128688.060    -3314801.935 7  -2582985.730 7
 91 11  5 19  6 30.0120000  0  4 23 17 21  3
  24626147.769    -7397555.921 7  -5764311.597 9
  24207009.436    -3715282.188 8  -2895024.761 9
  27897218.961     -564001.881 4   -439482.989 3
  24142256.966    -3243517.799 7  -2527439.721 7
 91 11  5 19  7  0.0120000  0  4 23 17 21  3
  24625470.840    -7401105.166 7  -5767077.205 9
  24214885.583    -3673921.643 8  -2862795.774 9
  27886876.121     -618368.366 4   -481846.625 2
  24155931.698    -3171634.526 7  -2471426.834 7
 91 11  5 19  7 30.0120000  0  4 23 17 21  3
  24624881.747    -7404208.126 7  -5769495.070 9
  24222803.401    -3632303.614 8  -2830366.151 9
  27876559.064     -672534.616 3   -524054.212 2
  24169719.150    -3099174.950 7  -2414964.902 7
 91 11  5 19  8  0.0120000  0  4 23 17 21  3
  24624374.199    -7406881.239 7  -5771577.983 9
  24230767.087    -3590445.174 8  -2797749.201 9
  27866293.266     -726516.108 3   -566117.879 2
  24183617.227    -3026154.856 7  -2358066.191 7
 91 11  5 19  8 30.0120000  0  4 23 17 21  3
  24623943.100    -7409144.863 7  -5773341.811 9
  24238776.048    -3548366.676 8  -2764960.768 9
  27856041.264     -780332.247 4   -608052.752 1
  24197613.340    -2952594.516 7  -2300746.511 6
 91 11  5 19  9  0.0120000  0  4 23 17 21  3
  24623586.644    -7411011.187 7  -5774796.054 9
  24246823.076    -3506080.151 8  -2732010.232 9
  27845828.838     -833994.270 4   -649867.531 3
  24211712.584    -2878505.657 7  -2243014.995 7
 91 11  5 19  9 30.0120000  0  4 23 17 21  3
  24623310.538    -7412462.129 7  -5775926.634 9
  24254915.667    -3463567.541 8  -2698883.531 9
  27835664.967     -887482.628 4   -691546.985 1
  24225916.747    -2803869.740 7  -2184857.209 7
 91 11  5 19 10  0.0120000  0  4 23 17 21  3
  24623113.569    -7413495.021 7  -5776731.444 9
  24263046.640    -3420826.884 8  -2665579.139 9
  27825523.886     -940794.306 4   -733088.299 2
  24240224.643    -2728684.094 7  -2126271.042 7
 91 11  5 19 10 30.0120000  0  4 23 17 21  3
  24622996.652    -7414106.790 7  -5777208.113 9
  24271224.684    -3377854.687 8  -2632094.334 9
  27815394.506     -993924.683 4   -774488.851 2
  24254637.162    -2652945.126 7  -2067253.730 7
 91 11  5 19 11  0.0120000  0  4 23 17 21  3
  24622970.276    -7414285.606 7  -5777347.438 9
  24279450.987    -3334638.359 8  -2598419.286 9
  27805333.164    -1046860.725 5   -815737.468 2
  24269156.109    -2576640.297 7  -2007795.467 7
 91 11  5 19 11 30.0120000  0  4 23 17 21  3
  24623008.344    -7414053.498 7  -5777166.509 9
  24287713.570    -3291200.195 8  -2564571.389 9
  27795283.523    -1099623.479 5   -856851.130 2
  24283779.392    -2499791.677 7  -1947913.470 6
 91 11  5 19 12  0.0120000  0  4 23 17 21  3
  24623129.466    -7413409.831 7  -5776664.912 9
  24296019.917    -3247539.784 8  -2530550.309 9
  27785278.851    -1152211.247 5   -897828.866 3
  24298507.297    -2422398.244 7  -1887606.941 7
 91 11  5 19 12 30.0120000  0  4 23 17 21  3
  24623335.117    -7412347.008 7  -5775836.692 9
  24304373.929    -3203649.138 8  -2496349.839 9
  27775303.556    -1204615.621 5   -938663.251 2
  24313341.928    -2344452.013 7  -1826869.671 7
 91 11  5 19 13  0.0120000  0  4 23 17 21  3
  24623613.029    -7410875.155 7  -5774689.756 9
  24312766.324    -3159538.251 8  -2461977.738 9
  27765372.628    -1256845.425 5   -979361.550 2
  24328273.687    -2265962.884 7  -1765709.359 7
 91 11  5 19 13 30.0120000  0  4 23 17 21  3
  24623968.577    -7409008.150 7  -5773234.904 9
  24321201.584    -3115221.353 8  -2427445.116 9
  27755460.590    -1308913.396 5  -1019933.770 2
  24343312.773    -2186944.794 7  -1704136.862 6
 91 11  5 19 14  0.0120000  0  4 23 17 21  3
  24624397.285    -7406757.762 7  -5771481.312 9
  24329673.115    -3070709.659 8  -2392760.708 9
  27745575.539    -1360830.118 5  -1060388.150 2
  24358451.098    -2107408.466 7  -1642160.557 7
 91 11  5 19 14 30.0120000  0  4 23 17 21  3
  24624897.635    -7404119.589 7  -5769425.559 9
  24338177.933    -3025998.762 8  -2357921.074 9
  27735739.646    -1412590.059 5  -1100720.361 2
  24373681.753    -2027349.774 7  -1579777.230 6
 91 11  5 19 15  0.0120000  0  4 23 17 21  3
  24625482.235    -7401063.438 7  -5767044.096 9
  24346729.508    -2981057.984 8  -2322902.307 9
  27725913.053    -1464161.790 5  -1140905.895 3
  24389023.932    -1946737.950 7  -1516962.869 7
 91 11  5 19 15 30.0120000  0  4 23 17 21  3
  24626149.270    -7397550.285 7  -5764306.531 9
  24355334.751    -2935848.215 8  -2287673.936 9
  27716141.611    -1515505.490 5  -1180913.715 3
  24404476.432    -1865533.554 7  -1453686.780 6
 91 11  5 19 16  0.0120000  0  4 23 17 21  3
  24626905.649    -7393579.328 7  -5761212.230 9
  24363988.559    -2890368.382 8  -2252235.144 9
  27706421.142    -1566618.847 5  -1220742.097 2
  24420041.057    -1783736.116 7  -1389948.566 7
 91 11  5 19 16 30.0120000  0  4 23 17 21  3
  24627740.573    -7389194.332 7  -5757795.323 9
  24372687.038    -2844662.404 8  -2216620.137 9
  27696729.457    -1617544.806 5  -1260424.896 4
  24435711.213    -1701388.889 7  -1325781.964 7
 91 11  5 19 17  0.0120000  0  4 23 17 21  3
  24628649.842    -7384408.980 7  -5754066.434 9
  24381424.493    -2798743.764 8  -2180839.407 9
  27687071.939    -1668295.619 5  -1299971.190 4
  24451483.287    -1618505.581 7  -1261197.623 7
 91 11  5 19 17 30.0120000  0  4 23 17 21  3
  24629638.860    -7379199.211 7  -5750006.819 9
  24390206.010    -2752587.689 8  -2144873.648 9
  27677451.896    -1718845.915 5  -1339361.280 3
  24467366.894    -1535061.318 7  -1196176.164 6
 91 11  5 19 18  0.0120000  0  4 23 17 21  3
  24630717.807    -7373543.465 7  -5745599.702 9
  24399042.696    -2706172.239 8  -2108705.793 9
  27667873.227    -1769173.299 5  -1378577.166 4
  24483353.327    -1451034.560 7  -1130700.824 6
 91 11  5 19 18 30.0120000  0  4 23 17 21  3
  24631881.902    -7367428.123 7  -5740834.457 9
  24407923.748    -2659483.731 8  -2072325.171 9
  27658345.827    -1819263.178 5  -1417608.404 2
  24499459.677    -1366411.816 7  -1064761.095 6
 91 11  5 19 19  0.0120000  0  4 23 17 21  3
  24633129.941    -7360868.192 7  -5735722.782 9
  24416859.961    -2612536.690 8  -2035743.086 9
  27648849.899    -1869129.159 5  -1456465.262 2
  24515670.659    -1281207.473 7   -998368.151 6
 91 11  5 19 19 30.0120000  0  4 23 17 21  3
  24634453.820    -7353908.629 7  -5730299.708 9
  24425833.046    -2565375.858 8  -1998994.409 9
  27639398.041    -1918814.712 5  -1495181.054 2
  24531983.262    -1195466.248 7   -931556.865 6
 91 11  5 19 20  0.0120000  0  4 23 17 21  3
  24635847.857    -7346588.263 7  -5724595.492 9
  24434842.411    -2518040.075 8  -1962109.404 9
  27629969.574    -1968357.861 5  -1533786.262 3
  24548397.495    -1109227.326 7   -864357.769 6
 91 11  5 19 20 30.0120000  0  4 23 17 21  3
  24637314.739    -7338875.741 7  -5718585.694 9
  24443888.647    -2470496.600 8  -1925062.567 9
  27620575.573    -2017725.187 5  -1572254.528 3
  24564911.264    -1022458.386 7   -796745.675 6
 91 11  5 19 21  0.0120000  0  4 23 17 21  3
  24638868.568    -7330712.382 7  -5712224.614 9
  24452987.051    -2422687.221 8  -1887808.535 9
  27611217.256    -2066857.211 5  -1610539.451 2
  24581533.862     -935101.015 7   -728675.073 6
 91 11  5 19 21 30.0120000  0  4 23 17 21  3
  24640511.427    -7322076.948 7  -5705495.678 9
  24462139.716    -2374590.033 8  -1850330.227 9
  27601928.785    -2115732.104 5  -1648623.996 3
  24598269.476     -847134.086 7   -660129.487 6
 91 11  5 19 22  0.0130000  0  4 23 17 21  3
  24642240.328    -7312986.925 7  -5698412.522 9
  24471341.839    -2326220.973 7  -1812640.080 9
  27592671.788    -2164367.920 5  -1686522.229 2
  24615124.103     -758572.362 7   -591120.433 6
 91 11  5 19 22 30.0130000  0  4 23 17 21  3
  24644051.678    -7303463.844 7  -5690991.909 9
  24480596.736    -2277603.586 8  -1774756.422 9
  27583445.980    -2212780.822 5  -1724246.377 1
  24632085.165     -669442.470 7   -521668.656 6
 91 11  5 19 23  0.0130000  0  4 23 17 21  3
  24645940.071    -7293545.724 7  -5683263.491 9
  24489885.505    -2228774.027 7  -1736707.437 9
  27574278.028    -2261009.668 5  -1761827.515 2
  24649150.850     -579779.047 7   -451801.132 6
 91 11  5 19 23 30.0130000  0  4 23 17 21  3
  24647901.615    -7283238.648 7  -5675231.985 9
  24499216.843    -2179737.959 8  -1698497.531 9
  27565136.452    -2309059.013 5  -1799268.790 3
  24666310.670     -489588.539 7   -381522.917 6
 91 11  5 19 24  0.0130000  0  4 23 17 21  3
  24649935.106    -7272553.775 7  -5666906.083 9
  24508588.360    -2130505.736 8  -1660134.785 9
  27556026.959    -2356938.650 5  -1836577.369 3
  24683570.619     -398881.884 7   -310842.498 6
 91 11  5 19 24 30.0130000  0  4 23 17 21  3
  24652042.944    -7261476.518 7  -5658274.433 9
  24517995.249    -2081062.941 8  -1621607.955 9
  27546944.443    -2404633.099 5  -1873741.603 3
  24700931.597     -307644.743 7   -239748.714 5
 91 11  5 19 25  0.0130000  0  4 23 17 21  3
  24654230.233    -7249980.633 7  -5649316.574 9
  24527449.498    -2031382.503 8  -1582895.949 9
  27537912.298    -2452114.742 5  -1910740.073 3
  24718402.606     -215850.588 7   -168220.906 5
 91 11  5 19 25 30.0130000  0  4 23 17 21  3
  24656498.762    -7238064.013 7  -5640030.884 9
  24536950.819    -1981461.686 8  -1543996.634 9
  27528918.525    -2499380.275 5  -1947570.131 3
  24735976.738     -123497.341 7    -96257.447 6
 91 11  5 19 26  0.0130000  0  4 23 17 21  3
  24658848.538    -7225720.762 7  -5630412.724 9
  24546496.219    -1931294.227 8  -1504905.123 9
  27519959.531    -2546422.540 5  -1984226.698 2
  24753657.002      -30579.017 7    -23853.641 6
 91 11  5 19 26 30.0130000  0  4 23 17 21  3
  24661274.459    -7212941.734 7  -5620455.012 9
  24556091.674    -1880870.395 8  -1465613.853 9
  27511049.398    -2593231.257 5  -2020700.789 2
  24771449.986       62913.588 7     48997.638 6
 91 11  5 19 27  0.0130000  0  4 23 17 21  3
  24663789.113    -7199730.284 7  -5610160.350 9
  24565735.398    -1830192.376 8  -1426124.510 9
  27502194.730    -2639808.053 5  -2056994.161 2
  24789349.991      156977.358 7    122293.970 6
 91 11  5 19 27 30.0130000  0  4 23 17 21  3
  24666382.321    -7186115.651 7  -5599551.510 9
  24575420.792    -1779289.315 8  -1386459.818 9
  27493372.432    -2686181.193 5  -2093128.882 3
  24807351.025      251582.859 7    196012.426 6
 91 11  5 19 28  0.0130000  0  4 23 17 21  3
  24669057.962    -7172074.548 7  -5588610.362 9
  24585156.853    -1728137.323 8  -1346601.139 9
  27484589.414    -2732326.320 5  -2129085.900 3
  24825465.992      346753.382 7    270171.167 6
 91 11  5 19 28 30.0130000  0  4 23 17 21  3
  24671813.055    -7157590.229 7  -5577323.848 9
  24594941.173    -1676719.038 8  -1306534.968 9
  27475853.460    -2778224.933 5  -2164850.838 2
  24843684.979      442505.614 7    344783.181 6
 91 11  5 19 29  0.0130000  0  4 23 17 21  3
  24674652.092    -7142650.280 7  -5565682.302 9
  24604778.271    -1625021.523 8  -1266251.215 9
  27467173.268    -2823863.410 5  -2200413.053 3
  24862019.678      538852.041 7    419858.214 6
 91 11  5 19 29 30.0130000  0  4 23 17 21  3
  24677581.364    -7127280.781 7  -5553706.042 9
  24614662.720    -1573069.722 7  -1225769.325 9
  27458529.652    -2869266.412 5  -2235791.784 3
  24880461.112      635766.590 7    495375.929 6
 91 11  5 19 30  0.0130000  0  4 23 17 21  3
  24680584.084    -7111485.343 7  -5541397.892 9
  24624595.750    -1520866.571 8  -1185091.580 9
  27449932.505    -2914436.125 5  -2270988.734 3
  24899008.974      733245.661 7    571333.537 6
 91 11  5 19 30 30.0130000  0  4 23 17 21  3
  24683669.248    -7095274.156 7  -5528765.775 9
  24634576.437    -1468421.888 8  -1144225.620 9
  27441387.823    -2959381.752 5  -2306011.068 2
  24917664.461      831278.724 7    647722.833 6
 91 11  5 19 31  0.0130000  0  4 23 17 21  3
  24686839.856    -7078626.709 7  -5515793.717 9
  24644606.892    -1415714.862 7  -1103155.242 9
  27432871.017    -3004081.497 5  -2340841.809 3
  24936428.166      929886.323 7    724559.815 5
 91 11  5 19 31 30.0130000  0  4 23 17 21  3
  24690089.907    -7061534.276 7  -5502474.942 9
  24654688.310    -1362735.071 7  -1061872.324 9
  27424414.476    -3048524.940 5  -2375472.839 3
  24955306.998     1029077.547 7    801851.570 6
 91 11  5 19 32  0.0130000  0  4 23 17 21  3
  24693422.698    -7044011.824 7  -5488821.083 9
  24664821.896    -1309496.868 8  -1020388.042 9
  27416004.099    -3092725.688 5  -2409914.747 3
  24974288.961     1128837.122 7    879586.185 6
 91 11  5 19 32 30.0130000  0  4 23 17 21  3
  24696842.435    -7026054.792 7  -5474828.577 9
  24674999.552    -1255995.781 8   -978698.916 9
  27407643.185    -3136678.082 5  -2444163.143 2
  24993380.939     1229169.082 7    957766.830 6
 91 11  5 19 33  0.0130000  0  4 23 17 21  3
  24700343.707    -7007652.419 7  -5460489.056 9
  24685235.370    -1202219.534 7   -936795.374 9
  27399332.039    -3180369.779 6  -2478208.872 4
  25012585.052     1330084.905 7   1036402.427 6
 91 11  5 19 33 30.0130000  0  4 23 17 21  3
  24703926.228    -6988815.792 7  -5445811.184 9
  24695518.251    -1148178.186 7   -894685.272 9
  27391061.665    -3223810.384 5  -2512058.479 2
  25031900.078     1431573.216 7   1115484.118 6
 91 11  5 19 34  0.0130000  0  4 23 17 21  3
  24707585.199    -6969581.382 7  -5430823.336 9
  24705843.999    -1093908.103 8   -852396.921 9
  27382829.961    -3267035.800 5  -2545740.430 3
  25051311.936     1533596.833 7   1194982.933 5
 91 11  5 19 34 30.0130000  0  4 23 17 21  3
  24711314.310    -6950003.872 7  -5415568.124 9
  24716203.329    -1039462.921 7   -809972.137 9
  27374641.133    -3310098.891 5  -2579295.842 3
  25070818.836     1636100.900 7   1274856.132 5
 91 11  5 19 35  0.0130000  0  4 23 17 21  3
  24715108.188    -6930074.200 7  -5400038.511 9
  24726600.134     -984832.421 7   -767402.944 9
  27366484.377    -3352989.109 6  -2612716.607 3
  25090418.066     1739094.673 7   1355110.911 6
 91 11  5 19 35 30.0130000  0  4 23 17 21  3
  24718967.417    -6909782.060 7  -5384226.446 9
  24737034.404     -930006.187 7   -724681.231 9
  27358351.904    -3395694.933 5  -2645993.631 3
  25110110.235     1842588.208 7   1435755.115 6
 91 11  5 19 36  0.0130000  0  4 23 17 21  3
  24722890.802    -6889167.889 7  -5368163.459 9
  24747498.366     -875023.332 8   -681837.482 9
  27350248.215    -3438255.263 5  -2679157.345 3
  25129893.233     1946540.988 7   1516757.156 5
 91 11  5 19 36 30.0130000  0  4 23 17 21  3
  24726862.149    -6868274.815 7  -5351883.128 9
  24757983.007     -819925.914 7   -638904.442 9
  27342168.511    -3480711.971 5  -2712240.297 3
  25149752.392     2050909.758 7   1598083.366 5
 91 11  5 19 37  0.0130000  0  4 23 17 21  3
  24730895.854    -6847105.992 7  -5335387.923 9
  24768490.132     -764716.482 7   -595884.128 9
  27334114.590    -3523067.132 6  -2745244.101 4
  25169692.485     2155690.812 7   1679730.831 6
 91 11  5 19 37 30.0130000  0  4 23 17 21  3
  24734981.133    -6825635.778 7  -5318657.880 9
  24779020.937     -709368.287 7   -552755.690 9
  27326075.353    -3565293.323 5  -2778147.438 3
  25189718.617     2260910.064 7   1761719.746 6
 91 11  5 19 38  0.0130000  0  4 23 17 21  3
  24739129.059    -6803833.976 7  -5301669.447 9
  24789584.130     -653850.263 7   -509494.924 9
  27318068.792    -3607359.077 5  -2810925.777 3
  25209827.498     2366597.199 7   1844073.252 5
 91 11  5 19 38 30.0130000  0  4 23 17 21  3
  24743348.940    -6781658.792 7  -5284390.067 9
  24800193.487     -598119.974 8   -466068.745 9
  27310102.706    -3649221.062 5  -2843545.319 5
  25230035.906     2472793.757 7   1926823.700 6
 91 11  5 19 39  0.0130000  0  4 23 17 21  3
  24747648.857    -6759048.891 7  -5266771.936 9
  24810847.805     -542114.674 7   -422428.286 9
  27302186.686    -3690816.319 5  -2875957.003 3
  25250351.641     2579561.220 7   2010019.024 6
 91 11  5 19 39 30.0130000  0  4 23 17 21  3
  24752032.422    -6736012.913 7  -5248821.810 9
  24821555.197     -485842.161 7   -378579.594 9
  27294322.832    -3732152.235 5  -2908166.611 4
  25270774.704     2686890.526 7   2093652.137 5
 91 11  5 19 40  0.0130000  0  4 23 17 21  3
  24756497.234    -6712555.468 7  -5230543.265 9
  24832315.342     -429306.084 7   -334525.544 9
  27286506.941    -3773232.471 6  -2940177.017 4
  25291305.697     2794776.550 6   2177719.044 6
 91 11  5 19 40 30.0130000  0  4 23 17 21  3
  24761046.881    -6688652.049 7  -5211917.205 9
  24843129.460     -372481.161 7   -290246.409 9
  27278740.521    -3814030.661 6  -2971967.651 4
  25311947.899     2903243.598 7   2262238.707 6
 91 11  5 19 41  0.0140000  0  4 23 17 21  3
  24765681.671    -6664305.896 7  -5192946.149 9
  24853995.740     -315368.813 7   -245743.292 9
  27271035.258    -3854550.924 5  -3003541.685 4
  25332702.537     3012290.914 7   2347210.520 4
 91 11  5 19 41 30.0140000  0  4 23 17 21  3
  24770395.010    -6639532.265 7  -5173642.010 9
  24864916.278     -257985.084 7   -201028.722 9
  27263363.270    -3894802.831 5  -3034906.650 4
  25353561.193     3121897.177 7   2432617.878 6
 91 11  5 19 42  0.0140000  0  4 23 17 21  3
  24775193.191    -6614316.268 7  -5153993.175 9
  24875891.078     -200313.016 7   -156089.479 9
  27255763.831    -3934772.008 6  -3066051.294 4
  25374524.785     3232080.045 7   2518474.523 6
 91 11  5 19 42 30.0140000  0  4 23 17 21  3
  24780073.808    -6588669.553 7  -5134008.705 9
  24886917.443     -142362.934 7   -110933.600 9
  27248206.656    -3974468.785 5  -3096983.666 4
  25395595.993     3342827.549 7   2604771.169 5
 91 11  5 19 43  0.0140000  0  4 23 17 21  3
  24785029.678    -6562622.211 7  -5113712.066 9
  24897993.279      -84164.291 7    -65584.024 9
  27240699.259    -4013921.745 6  -3127726.053 3
  25416778.733     3454109.298 7   2691484.087 4
 91 11  5 19 43 30.0140000  0  4 23 17 21  3
  24790057.200    -6536197.485 7  -5093121.363 9
  24909109.583      -25738.948 7    -20057.807 9
  27233238.924    -4053152.648 6  -3158295.392 4
  25438050.209     3565901.758 7   2778594.972 6
 91 11  5 19 44  0.0140000  0  4 23 17 21  3
  24795156.075    -6509400.590 7  -5072240.659 9
  24920269.058       32908.738 7     25641.664 9
  27225807.068    -4092165.570 5  -3188694.890 3
  25459417.014     3678198.985 7   2866099.175 5
 91 11  5 19 44 30.0140000  0  4 23 17 21  3
  24800327.194    -6482235.281 7  -5051072.883 9
  24931473.197       91775.953 7     71512.183 9
  27218428.270    -4130962.683 6  -3218926.264 4
  25480880.058     3790997.083 7   2953993.664 5
 91 11  5 19 45  0.0140000  0  4 23 17 21  3
  24805566.360    -6454701.999 7  -5029618.380 9
  24942718.719      150862.937 7    117553.967 9
  27211088.752    -4169543.423 6  -3248988.993 3
  25502445.927     3904294.992 7   3042277.632 4
 91 11  5 19 45 30.0140000  0  4 23 17 21  3
  24810877.185    -6426795.474 7  -5007873.028 9
  24954004.403      210177.200 7    163772.859 9
  27203788.506    -4207900.469 6  -3278877.422 4
  25524100.836     4018097.948 7   3130955.132 5
 91 11  5 19 46  0.0140000  0  4 23 17 21  3
  24816261.162    -6398495.657 7  -4985821.227 9
  24965338.058      269739.652 7    210185.119 9
  27196533.229    -4246011.973 6  -3308574.556 4
  25545854.975     4132425.823 6   3220041.675 5
 91 11  5 19 46 30.0140000  0  4 23 17 21  3
  24821731.770    -6369767.764 7  -4963435.861 9
  24976729.866      329586.095 7    256818.682 9
  27189338.809    -4283842.672 6  -3338052.857 5
  25567717.341     4247312.410 7   3309563.554 6
 91 11  5 19 47  0.0140000  0  4 23 17 21  3
  24827274.937    -6340635.151 7  -4940735.129 9
  24988166.651      389693.911 7    303655.913 9
  27182185.468    -4321414.319 6  -3367329.300 3
  25589682.829     4362734.079 6   3399502.384 5
 91 11  5 19 47 30.0140000  0  4 23 17 21  3
  24832895.146    -6311101.395 7  -4917721.815 9
  24999653.501      450060.711 8    350694.949 9
  27175087.278    -4358728.630 6  -3396405.219 5
  25611744.258     4478686.657 6   3489854.907 5
 91 11  5 19 48  0.0140000  0  4 23 17 21  3
  24838590.304    -6281161.727 7  -4894392.214 9
  25011190.111      510692.871 7    397940.748 9
  27168036.159    -4395779.372 6  -3425275.801 4
  25633911.810     4595174.885 6   3580624.830 6
 91 11  5 19 48 30.0140000  0  4 23 17 21  3
  24844363.106    -6250821.514 7  -4870750.498 9
  25022779.786      571586.139 7    445389.998 9
  27161037.209    -4432570.387 6  -3453943.963 5
  25656175.897     4712192.780 6   3671807.478 5
 91 11  5 19 49  0.0140000  0  4 23 17 21  3
  24850215.656    -6220069.676 7  -4846788.042 9
  25034417.729      632752.136 7    493051.771 9
  27154085.016    -4469089.451 6  -3482400.235 3
  25678554.510     4829750.696 6   3763410.916 5
 91 11  5 19 49 30.0140000  0  4 23 17 21  3
  24856144.952    -6188907.385 7  -4822505.738 9
  25046110.535      694190.977 7    540926.156 9
  27147184.694    -4505336.295 6  -3510644.352 2
  25701023.053     4947846.867 6   3855433.792 4
 91 11  5 19 50  0.0140000  0  4 23 17 21  3
  24862150.096    -6157350.157 7  -4797915.707 9
  25057850.414      755889.429 7    589002.836 9
  27140335.937    -4541325.105 6  -3538687.476 3
  25723598.321     5066465.423 6   3947863.691 5
 91 11  5 19 50 30.0140000  0  4 23 17 21  3
  24868225.389    -6125417.846 7  -4773033.396 9
  25069638.550      817828.233 7    637266.790 9
  27133536.041    -4577074.016 6  -3566543.620 3
  25746267.428     5185586.373 6   4040685.065 5
 91 11  5 19 51  0.0140000  0  4 23 17 21  3
  24874373.528    -6093113.345 7  -4747861.078 9
  25081467.460      880005.909 7    685716.885 9
  27126780.224    -4612583.928 6  -3594213.557 5
  25769030.670     5305206.222 6   4133895.188 5
 91 11  5 19 51 30.0140000  0  4 23 17 21  3
  24880591.826    -6060448.186 7  -4722407.718 9
  25093345.238      942411.964 7    734344.946 9
  27120063.068    -4647865.186 6  -3621705.299 4
  25791882.655     5425312.863 6   4227484.634 5
 91 11  5 19 52  0.0140000  0  4 23 17 21  3
  24886875.178    -6027415.976 7  -4696668.338 9
  25105267.986     1005054.351 7    783157.158 9
  27113399.283    -4682910.262 6  -3649013.011 4
  25814835.362     5545912.089 6   4321457.898 5
 91 11  5 19 52 30.0140000  0  4 23 17 21  3
  24893230.478    -5994010.130 7  -4670637.827 9
  25117232.702     1067940.350 7    832159.185 9
  27106772.668    -4717711.211 6  -3676130.507 4
  25837868.716     5667009.623 6   4415819.479 4
 91 11  5 19 53  0.0140000  0  4 23 17 21  3
  24899655.927    -5960260.475 7  -4644339.405 9
  25129240.293     1131041.419 7    881328.811 9
  27100196.728    -4752296.358 6  -3703079.825 5
  25861010.296     5788575.341 6   4510545.851 5
 91 11  5 19 53 30.0140000  0  4 23 17 21  3
  24906142.539    -5926172.903 7  -4617777.658 9
  25141288.350     1194353.154 7    930662.601 9
  27093650.453    -4786670.041 6  -3729864.388 5
  25884237.016     5910602.670 6   4605631.929 5
 91 11  5 19 54  0.0140000  0  4 23 17 21  3
  24912685.804    -5891765.946 7  -4590967.039 9
  25153373.281     1257857.880 7    980146.778 9
  27087145.562    -4820849.109 6  -3756497.290 5
  25907538.388     6033072.410 6   4701062.742 5
 91 11  5 19 54 30.0140000  0  4 23 17 21  3
  24919292.029    -5857067.450 7  -4563929.246 9
  25165487.894     1321529.354 7   1029760.873 9
  27080672.438    -4854860.037 6  -3782999.176 5
  25930918.303     6155956.181 6   4796816.165 5
 91 11  5 19 55  0.0140000  0  4 23 17 21  3
  24925951.023    -5822076.945 7  -4536663.919 9
  25177636.988     1385369.456 7   1079506.366 9
  27074231.703    -4888700.935 6  -3809368.597 5
  25954381.857     6279253.903 6   4892892.148 4
 91 11  5 19 55 30.0140000  0  4 23 17 21  3
  24932672.969    -5786756.938 7  -4509141.837 9
  25189824.447     1449416.896 7   1129413.431 9
  27067837.725    -4922333.253 6  -3835575.466 5
  25977929.957     6403002.280 6   4989319.285 4
 91 11  5 19 56  0.0140000  0  4 23 17 21  3
  24939465.667    -5751049.720 7  -4481318.021 9
  25202062.276     1513731.275 7   1179528.509 9
  27061482.722    -4955697.162 6  -3861573.207 5
  26001582.375     6527258.763 6   5086142.357 4
 91 11  5 19 56 30.0140000  0  4 23 17 21  3
  24946343.505    -5714905.199 7  -4453153.451 9
  25214359.165     1578363.245 7   1229891.043 9
  27055198.480    -4988741.328 6  -3887321.807 4
  26025328.343     6652072.323 6   5183399.529 4
 91 11  5 19 57  0.0140000  0  4 23 17 21  3
  24953306.185    -5678310.519 7  -4424638.120 9
  25226724.704     1643327.080 7   1280512.159 9
  27048976.587    -5021451.669 6  -3912810.264 4
  26049187.625     6777455.278 6   5281100.358 4
 91 11  5 19 57 30.0140000  0  4 23 17 21  3
  24960349.207    -5641303.278 7  -4395801.303 9
  25239144.800     1708586.609 7   1331363.709 9
  27042801.156    -5053863.816 6  -3938066.383 5
  26073147.637     6903369.463 6   5379215.134 3
 91 11  5 19 58  0.0140000  0  4 23 17 21  3
  24967474.078    -5603884.024 7  -4366643.441 9
  25251617.972     1774142.817 7   1382446.424 9
  27036694.687    -5085976.745 6  -3963089.327 4
  26097212.578     7029813.468 6   5477742.765 4
 91 11  5 19 58 30.0140000  0  4 23 17 21  3
  24974675.390    -5566027.511 7  -4337144.854 9
  25264154.086     1840022.787 7   1433781.427 9
  27030643.074    -5117763.838 6  -3987858.385 4
  26121377.945     7156812.198 6   5576702.650 5
 91 11  5 19 59  0.0140000  0  4 23 17 21  3
  24981964.844    -5527724.401 7  -4307298.284 9
  25276755.865     1906236.506 7   1485376.484 9
  27024659.517    -5149215.025 6  -4012365.716 4
  26145653.641     7284373.936 6   5676101.226 4
 91 11  5 19 59 30.0150000  0  4 23 17 21  3
  24989334.641    -5488988.648 7  -4277114.583 9
  25289417.005     1972772.670 7   1537222.805 9
  27018740.711    -5180344.512 6  -4036622.345 5
  26170032.462     7412487.203 6   5775929.550 4
 91 11  5 20  0  0.0150000  0  4 23 17 21  3
  24996785.989    -5449841.674 7  -4246610.459 9
  25302135.692     2039609.287 7   1589303.251 9
  27012871.680    -5211167.766 6  -4060640.342 5
  26194510.214     7541123.610 6   5876165.542 5
 91 11  5 20  0 30.0150000  0  4 23 17 21  3
  25004312.573    -5410286.485 7  -4215788.234 9
  25314908.955     2106746.296 7   1641617.769 9
  27007070.992    -5241688.237 6  -4084422.410 4
  26219092.301     7670282.549 6   5976808.716 4
 91 11  5 20  1  0.0150000  0  4 23 17 21  3
  25011914.115    -5370337.479 7  -4184659.153 9
  25327740.370     2174169.598 7   1694155.371 9
  27001313.781    -5271918.933 6  -4107978.675 3
  26243764.021     7799949.206 6   6077847.478 5
 91 11  5 20  1 30.0150000  0  4 23 17 21  3
  25019582.499    -5330037.763 7  -4153256.793 9
  25340617.654     2241837.513 7   1746883.562 9
  26995606.626    -5301902.081 6  -4131342.046 5
  26268527.180     7930079.137 6   6179247.257 4
 91 11  5 20  2  0.0150000  0  4 23 17 21  3
  25027306.952    -5289424.240 7  -4121609.906 9
  25353533.912     2309715.351 7   1799775.347 9
  26989942.050    -5331672.744 6  -4154539.822 3
  26293377.573     8060634.766 6   6280978.732 4
 91 11  5 20  2 30.0150000  0  4 23 17 21  3
  25035098.858    -5248506.928 7  -4089726.286 9
  25366490.943     2377794.507 7   1852824.019 9
  26984312.549    -5361239.451 6  -4177578.688 5
  26318298.124     8191605.415 6   6383033.590 5
 91 11  5 20  3  0.0150000  0  4 23 17 21  3
  25042945.331    -5207272.630 7  -4057595.671 9
  25379483.948     2446089.245 7   1906040.663 9
  26978728.915    -5390587.568 6  -4200447.221 5
  26343302.009     8323003.720 6   6485421.705 3
 91 11  5 20  3 30.0150000  0  4 23 17 21  3
  25050855.951    -5165708.369 7  -4025207.946 9
  25392524.025     2514614.084 7   1959436.601 9
  26973187.555    -5419702.618 6  -4223134.131 5
  26368384.149     8454841.498 6   6588152.240 4
 91 11  5 20  4  0.0150000  0  4 23 17 21  3
  25058824.741    -5123801.206 7  -3992553.021 9
  25405613.258     2583382.763 7   2013022.547 9
  26967692.656    -5448570.265 6  -4245628.273 5
  26393566.410     8587130.667 6   6691234.551 3
 91 11  5 20  4 30.0150000  0  4 23 17 21  3
  25066873.863    -5081525.252 7  -3959610.721 9
  25418748.665     2652422.989 7   2066820.103 9
  26962252.620    -5477162.786 6  -4267908.019 5
  26418823.628     8719896.771 6   6794688.467 4
 91 11  5 20  5  0.0150000  0  4 23 17 21  3
  25074991.041    -5038873.535 7  -3926375.623 9
  25431940.131     2721743.333 7   2120835.920 9
  26956865.651    -5505472.374 6  -4289967.333 4
  26444184.274     8853145.542 6   6898518.472 4
 91 11  5 20  5 30.0150000  0  4 23 17 21  3
  25083182.872    -4995828.788 7  -3892834.277 9
  25445189.462     2791363.264 7   2175085.175 9
  26951539.539    -5533479.674 6  -4311791.077 2
  26469632.153     8986893.944 6   7002737.794 5
 91 11  5 20  6  0.0150000  0  4 23 17 21  3
  25091443.351    -4952406.095 7  -3858998.420 9
  25458492.453     2861268.763 7   2229556.962 9
  26946263.186    -5561198.479 6  -4333390.030 5
  26495180.467     9121125.734 6   7107333.788 4
 91 11  5 20  6 30.0150000  0  4 23 17 21  3
  25099775.786    -4908627.895 7  -3824885.545 9
  25471845.804     2931438.391 7   2284234.549 9
  26941036.305    -5588649.974 6  -4354780.695 5
  26520804.332     9255817.622 6   7212288.294 4
 91 11  5 20  7  0.0150000  0  4 23 17 21  3
  25108173.869    -4864489.606 7  -3790492.078 9
  25485250.424     3001878.364 7   2339122.796 9
  26935866.085    -5615828.208 6  -4375958.431 5
  26546529.818     9390972.987 6   7317603.957 4
 91 11  5 20  7 30.0150000  0  4 23 17 21  3
  25116634.014    -4820024.261 7  -3755843.781 9
  25498696.716     3072556.912 7   2394196.934 9
  26930739.935    -5642764.660 6  -4396947.767 6
  26572332.059     9526557.873 6   7423254.303 3
 91 11  5 20  8  0.0150000  0  4 23 17 21  3
  25125148.124    -4775286.935 7  -3720983.541 9
  25512183.780     3143420.269 7   2449415.100 9
  26925647.063    -5669512.898 6  -4417790.439 4
  26598202.347     9662516.601 6   7529195.943 4
 91 11  5 20  8 30.0150000  0  4 23 17 21  3
  25133720.692    -4730239.089 7  -3685881.334 9
  25525708.318     3214509.257 7   2504809.079 9
  26920604.552    -5696032.645 6  -4438455.064 5
  26624151.781     9798886.613 6   7635458.075 5
 91 11  5 20  9  0.0150000  0  4 23 17 21  3
  25142352.608    -4684874.551 7  -3650532.362 9
  25539286.821     3285831.190 7   2560384.565 9
  26915601.915    -5722316.453 6  -4458935.872 5
  26650180.962     9935673.432 6   7742044.979 4
 91 11  5 20  9 30.0150000  0  4 23 17 21  3
  25151045.992    -4639193.796 7  -3614936.990 9
  25552896.499     3357386.807 7   2616142.148 9
  26910649.648    -5748363.225 6  -4479231.951 5
  26676294.689    10072875.335 6   7848955.321 3
 91 11  5 20 10  0.0150000  0  4 23 17 21  3
  25159800.234    -4593193.303 7  -3579092.471 9
  25566562.838     3429181.465 7   2672085.980 8
  26905733.948    -5774168.085 6  -4499339.528 5
  26702478.558    10210495.142 6   7956191.315 5
 91 11  5 20 10 30.0150000  0  4 23 17 21  3
  25168616.529    -4546865.058 7  -3542992.559 9
  25580271.144     3501224.565 7   2728223.421 9
  26900870.118    -5799721.674 6  -4519251.316 6
  26728744.879    10348539.660 6   8063758.244 4
 91 11  5 20 11  0.0150000  0  4 23 17 21  3
  25177492.486    -4500223.836 7  -3506648.761 9
  25594026.828     3573502.971 7   2784544.222 8
  26896050.351    -5825037.481 6  -4538977.816 5
  26755098.128    10486993.199 6   8171643.908 3
 91 11  5 20 11 30.0150000  0  4 23 17 21  3
  25186421.806    -4453291.792 7  -3470078.350 9
  25607820.876     3645995.655 7   2841031.974 9
  26891277.358    -5850136.270 6  -4558535.220 6
  26781518.543    10625832.338 6   8279830.016 4
 91 11  5 20 12  0.0150000  0  4 23 17 21  3
  25195410.483    -4406055.732 7  -3433271.051 9
  25621660.190     3718717.909 7   2897698.612 9
  26886548.428    -5875003.010 6  -4577911.816 6
  26808017.195    10765069.711 6   8388326.465 3
 91 11  5 20 12 30.0150000  0  4 23 17 21  3
  25204462.714    -4358491.715 7  -3396208.188 9
  25635548.679     3791694.396 7   2954563.352 8
  26881860.872    -5899612.457 6  -4597087.905 5
  26834589.602    10904728.059 6   8497150.931 4
 91 11  5 20 13  0.0150000  0  4 23 17 21  3
  25213580.898    -4310567.494 7  -3358864.650 9
  25649488.427     3864959.757 7   3011653.219 8
  26877231.783    -5923930.644 6  -4616037.048 5
  26861251.039    11044838.603 6   8606328.248 5
 91 11  5 20 13 30.0150000  0  4 23 17 21  3
  25222775.234    -4262254.372 7  -3321218.062 9
  25663490.831     3938543.980 7   3068991.521 9
  26872666.544    -5947927.935 6  -4634736.154 5
  26888006.018    11185428.979 6   8715878.980 3
 91 11  5 20 14  0.0150000  0  4 23 17 21  3
  25232036.422    -4213573.604 7  -3283285.011 9
  25677553.203     4012427.486 7   3126563.021 9
  26868158.559    -5971623.856 6  -4653200.425 5
  26914839.244    11326477.053 6   8825786.835 5
 91 11  5 20 14 30.0150000  0  4 23 17 21  3
  25241370.465    -4164537.195 7  -3245074.859 9
  25691664.129     4086599.185 7   3184359.104 9
  26863705.142    -5995029.270 6  -4671438.320 6
  26941770.497    11467969.564 6   8936040.993 3
 91 11  5 20 15  0.0150000  0  4 23 17 21  3
  25250768.053    -4115156.538 7  -3206596.404 9
  25705833.226     4161049.471 7   3242372.271 8
  26859307.486    -6018153.976 6  -4689457.483 5
  26968776.402    11609894.154 6   9046631.366 2
 91 11  5 20 15 30.0150000  0  4 23 17 21  3
  25260225.312    -4065451.708 7  -3167865.374 9
  25720053.278     4235760.185 7   3300588.368 8
  26854951.807    -6041016.722 6  -4707272.530 5
  26995867.446    11752229.613 6   9157541.903 3
 91 11  5 20 16  0.0150000  0  4 23 17 21  3
  25269737.129    -4015463.008 7  -3128913.164 9
  25734308.413     4310692.615 7   3358977.214 9
  26850644.683    -6063655.842 6  -4724913.309 6
  27023018.754    11894934.914 6   9268741.102 3
 91 11  5 20 16 30.0150000  0  4 23 17 21  3
  25279300.808    -3965209.041 7  -3089754.251 9
  25748608.805     4385829.162 7   3417525.118 8
  26846378.341    -6086088.946 6  -4742393.574 5
  27050240.204    12037989.971 6   9380212.346 3
 91 11  5 20 17  0.0150000  0  4 23 17 21  3
  25288914.552    -3914688.005 7  -3050387.225 9
  25762943.985     4461173.623 7   3476235.047 8
  26842145.267    -6108312.569 6  -4759710.597 6
  27077534.517    12181395.467 6   9491957.135 4
 91 11  5 20 17 30.0150000  0  4 23 17 21  3
  25298581.057    -3863889.880 7  -3010804.285 9
  25777325.032     4536737.234 7   3535115.721 9
  26837958.672    -6130315.746 6  -4776855.839 6
  27104889.374    12325160.541 6   9603981.638 3
 91 11  5 20 18  0.0160000  0  4 23 17 21  3
  25308300.325    -3812807.735 7  -2971000.052 9
  25791748.041     4612529.768 7   3594174.777 8
  26833818.236    -6152092.303 7  -4793824.521 6
  27132314.087    12469294.266 6   9716293.849 3
 91 11  5 20 18 30.0160000  0  4 23 17 21  3
  25318079.261    -3761436.213 7  -2930970.324 9
  25806213.033     4688555.921 7   3653415.884 9
  26829722.765    -6173630.322 7  -4810607.309 5
  27159815.255    12613794.303 6   9828891.519 3
 91 11  5 20 19  0.0160000  0  4 23 17 21  3
  25327912.154    -3709761.221 7  -2890704.123 9
  25820728.979     4764832.578 7   3712852.191 9
  26825668.679    -6194917.374 7  -4827194.539 5
  27187382.664    12758676.614 6   9941786.586 2
 91 11  5 20 19 30.0160000  0  4 23 17 21  3
  25337801.401    -3657793.773 7  -2850210.039 9
  25835289.005     4841349.882 7   3772476.005 8
  26821661.951    -6215962.715 7  -4843593.427 6
  27215025.030    12903929.122 6  10054970.627 3
 91 11  5 20 20  0.0160000  0  4 23 17 21  3
  25347749.421    -3605525.799 7  -2809481.780 9
  25849897.289     4918117.858 7   3832295.142 7
  26817707.689    -6236756.647 7  -4859796.419 5
  27242740.845    13049558.962 6  10168448.190 2
 91 11  5 20 20 30.0160000  0  4 23 17 21  3
  25357745.997    -3552968.819 7  -2768528.329 9
  25864551.746     4995126.242 7   3892301.607 8
  26813791.197    -6257309.376 7  -4875811.446 5
  27270522.010    13195553.233 6  10282210.201 4
 91 11  5 20 21  0.0160000  0  4 23 17 21  3
  25367798.936    -3500133.061 7  -2727357.644 9
  25879252.664     5072366.409 7   3952488.693 7
  26809928.373    -6277629.844 7  -4891645.508 5
  27298363.737    13341900.625 5  10396247.343 3
 91 11  5 20 21 30.0160000  0  4 23 17 21  3
  25377913.336    -3447001.878 7  -2685956.755 9
  25893997.959     5149856.967 7   4012870.880 9
  26806106.321    -6297699.887 7  -4907284.426 5
  27326287.008    13488616.859 5  10510571.928 4
 91 11  5 20 22  0.0160000  0  4 23 17 21  3
  25388083.192    -3393560.073 7  -2644313.816 9
  25908795.412     5227614.953 7   4073461.441 8
  26802340.625    -6317502.971 7  -4922715.322 5
  27354279.530    13635715.449 6  10625194.444 2
 91 11  5 20 22 30.0160000  0  4 23 17 21  3
  25398315.109    -3339790.397 7  -2602415.404 9
  25923641.438     5305657.706 7   4134273.901 8
  26798627.394    -6337020.758 7  -4937923.929 5
  27382351.190    13783212.344 6  10740127.315 3
 91 11  5 20 23  0.0160000  0  4 23 17 21  3
  25408613.286    -3285678.206 7  -2560250.100 9
  25938554.010     5384002.341 7   4195321.615 8
  26794968.432    -6356237.359 7  -4952897.819 5
  27410493.007    13931121.075 6  10855381.099 3
 91 11  5 20 23 30.0160000  0  4 23 17 21  3
  25418976.507    -3231215.025 7  -2517811.276 9
  25953525.049     5462659.116 7   4256612.554 8
  26791369.717    -6375142.639 7  -4967629.133 6
  27438724.764    14079449.146 6  10970961.190 2
 91 11  5 20 24  0.0160000  0  4 23 17 21  3
  25429404.190    -3176417.204 7  -2475111.707 9
  25968544.050     5541613.083 7   4318135.074 8
  26787830.673    -6393751.625 7  -4982129.567 6
  27467023.372    14228179.064 5  11086854.869 2
 91 11  5 20 24 30.0160000  0  4 23 17 21  3
  25439894.825    -3121293.428 7  -2432158.141 9
  25983629.004     5620856.948 7   4379883.477 8
  26784341.389    -6412071.512 7  -4996404.737 6
  27495404.432    14377300.707 6  11203053.741 3
 91 11  5 20 25  0.0160000  0  4 23 17 21  3
  25450441.824    -3065867.823 7  -2388969.386 9
  25998757.139     5700368.599 7   4441840.547 8
  26780909.961    -6430124.658 7  -5010472.042 6
  27523848.732    14526788.449 5  11319537.904 4
 91 11  5 20 25 30.0160000  0  4 23 17 21  3
  25461038.591    -3010175.879 7  -2345573.091 9
  26013933.227     5780113.317 7   4503979.223 8
  26777516.609    -6447945.727 7  -5024358.515 6
  27552359.901    14676605.894 5  11436278.984 3
 91 11  5 20 26  0.0160000  0  4 23 17 21  3
  25471684.218    -2954234.368 7  -2301982.334 9
  26029145.899     5860075.947 7   4566287.719 8
  26774165.233    -6465550.772 7  -5038076.674 6
  27580930.418    14826734.472 5  11553262.498 4
 91 11  5 20 26 30.0160000  0  4 23 17 21  3
  25482379.317    -2898036.798 7  -2258192.040 9
  26044405.329     5940265.180 7   4628772.778 8
  26770860.319    -6482930.935 7  -5051619.588 6
  27609551.908    14977180.078 5  11670493.041 4
 91 11  5 20 27  0.0160000  0  4 23 17 21  3
  25493127.177    -2841545.598 7  -2214172.954 9
  26059719.335     6020719.677 7   4691464.539 7
  26767602.477    -6500047.755 7  -5064957.307 6
  27638250.440    15127978.522 5  11787998.521 4
 91 11  5 20 27 30.0160000  0  4 23 17 21  3
  25503939.489    -2784726.300 7  -2169898.201 9
  26075085.491     6101475.643 7   4754391.214 8
  26764401.889    -6516865.501 7  -5078061.981 6
  27667018.520    15279162.850 5  11905804.679 2
 91 11  5 20 28  0.0160000  0  4 23 17 21  3
  25514809.962    -2727597.471 7  -2125382.238 9
  26090509.520     6182516.002 7   4817539.488 8
  26761249.874    -6533401.064 7  -5090946.773 6
  27695860.955    15430713.679 5  12023896.449 2
 91 11  5 20 28 30.0160000  0  4 23 17 21  3
  25525732.001    -2670205.628 7  -2080661.338 9
  26105970.709     6263795.304 7   4880873.959 8
  26758153.612    -6549700.122 7  -5103647.272 6
  27724760.950    15582582.881 5  12142236.266 3
 91 11  5 20 29  0.0160000  0  4 23 17 21  3
  25536694.211    -2612597.819 7  -2035772.161 9
  26121477.174     6345269.003 7   4944359.884 9
  26755086.143    -6565808.011 7  -5116198.816 6
  27753709.203    15734722.154 5  12260786.559 3
 91 11  5 20 29 30.0160000  0  4 23 17 21  3
  25547704.094    -2554752.624 7  -1990698.007 9
  26137023.817     6426959.710 7   5008014.926 8
  26752060.336    -6581701.987 7  -5128583.671 6
  27782713.524    15887151.572 5  12379562.938 3
 91 11  5 20 30  0.0160000  0  4 23 17 21  3
  25558765.237    -2496622.950 7  -1945402.166 9
  26152618.117     6508916.303 7   5071877.148 7
  26749088.189    -6597333.346 7  -5140763.881 7
  27811794.592    16039916.941 5  12498601.068 2
 91 11  5 20 30 30.0160000  0  4 23 17 21  3
  25569881.541    -2438200.777 7  -1899878.425 9
  26168265.186     6591148.017 7   5135953.746 8
  26746163.113    -6612693.084 7  -5152732.434 6
  27840925.732    16193024.997 5  12617906.267 3
 91 11  5 20 31  0.0160000  0  4 23 17 21  3
  25581051.809    -2379494.057 7  -1854132.952 9
  26183967.415     6673648.123 7   5200239.468 8
  26743297.404    -6627788.224 7  -5164494.831 7
  27870128.811    16346465.808 5  12737470.685 2
 91 11  5 20 31 30.0160000  0  4 23 17 21  3
  25592280.535    -2320499.289 7  -1808163.026 9
  26199717.615     6756421.630 7   5264738.241 8
  26740466.158    -6642613.524 7  -5176046.936 6
  27899386.753    16500242.017 5  12857296.482 3
 91 11  5 20 32  0.0160000  0  4 23 17 21  3
  25603553.926    -2261246.219 7  -1761991.825 9
  26215514.573     6839440.763 7   5329428.424 7
  26737698.178    -6657197.888 7  -5187411.301 6
  27928710.954    16654322.072 5  12977359.052 4
 91 11  5 20 32 30.0160000  0  4 23 17 21  3
  25614869.598    -2201787.646 7  -1715660.502 9
  26231350.210     6922654.359 7   5394270.129 7
  26734955.074    -6671592.077 7  -5198627.487 7
  27958077.428    16808652.204 5  13097616.471 2
 91 11  5 20 33  0.0160000  0  4 23 17 21  3
  25626218.539    -2142152.916 7  -1669191.913 9
  26247219.726     7006034.484 7   5459241.589 7
  26732249.147    -6685824.452 7  -5209717.585 6
  27987489.168    16963201.883 5  13218044.968 3
 91 11  5 20 33 30.0160000  0  4 23 17 21  3
  25637600.461    -2082336.311 7  -1622581.607 9
  26263118.619     7089588.491 7   5524348.533 8
  26729571.106    -6699887.991 7  -5220676.118 6
  28016935.975    17117975.033 5  13338647.572 3
 91 11  5 20 34  0.0160000  0  4 23 17 21  3
  25649028.548    -2022290.108 7  -1575792.396 9
  26279057.386     7173365.199 7   5589629.019 7
  26726935.626    -6713733.896 7  -5231465.060 7
  28046440.052    17273017.826 5  13459460.303 4
 91 11  5 20 34 30.0160000  0  4 23 17 21  3
  25660504.901    -1961972.928 7  -1528792.033 9
  26295052.518     7257407.811 7   5655116.700 8
  26724349.914    -6727319.793 7  -5242051.409 6
  28076001.986    17428370.426 5  13580514.442 2
 91 11  5 20 35  0.0160000  0  4 23 17 21  3
  25672039.713    -1901359.001 7  -1481560.448 9
  26311099.206     7341743.327 7   5720832.604 7
  26721819.667    -6740618.859 7  -5252414.257 7
  28105638.276    17584057.021 5  13701828.807 3
 91 11  5 20 35 30.0160000  0  4 23 17 21  3
  25683629.092    -1840439.653 7  -1434090.866 9
  26327207.057     7426382.465 7   5786785.101 6
  26719347.276    -6753620.153 7  -5262545.070 6
  28135325.520    17740085.040 5  13823409.243 2
 91 11  5 20 36  0.0160000  0  5 11 23 17 21  3
  30204819.539     -955203.988 3   -744314.968 3
  25695285.026    -1779205.565 7  -1386376.030 9
  26343376.359     7511335.760 7   5852982.409 7
  26716931.250    -6766313.473 7  -5272435.908 7
  28165075.428    17896462.162 5  13945261.725 2
 91 11  5 20 36 30.0160000  0  4 23 17 21  3
  25706996.714    -1717654.062 7  -1338413.865 9
  26359597.828     7596607.226 7   5919427.634 7
  26714574.581    -6778694.987 7  -5282083.780 6
  28194903.870    18053189.933 5  14067387.403 2
 91 11  5 20 37  0.0170000  0  4 23 17 21  3
  25718768.067    -1655793.593 7  -1290210.944 9
  26375884.058     7682190.557 7   5986115.863 7
  26712274.881    -6790774.457 7  -5291496.286 6
  28224797.675    18210261.384 5  14189780.892 3
 91 11  5 20 37 30.0170000  0  4 23 17 21  3
  25730600.274    -1593623.574 7  -1241766.827 9
  26392231.736     7768086.897 7   6053047.982 7
  26710038.723    -6802544.775 7  -5300667.910 7
  28254751.445    18367669.225 5  14312436.508 2
 91 11  5 20 38  0.0170000  0  5 11 23 17 21  3
  30150549.313      -26101.13214    -20338.472 2
  25742488.549    -1531154.478 7  -1193089.644 9
  26408634.287     7854287.670 7   6120217.333 7
  26707850.841    -6814018.016 7  -5309608.035 6
  28284764.869    18525404.618 5  14435347.334 2
 91 11  5 20 38 30.0170000  0  5 11 23 17 21  3
  30137011.582      -97229.618 5    -75763.031 5
  25754432.281    -1468377.044 7  -1144172.194 9
  26425097.389     7940803.890 7   6187632.478 6
  26705730.709    -6825183.525 7  -5318308.371 6
  28314844.245    18683475.744 5  14558519.772 3
 91 11  5 20 39  0.0170000  0  5 11 23 17 21  3
  30123488.841     -168294.959 5   -131138.856 2
  25766433.267    -1405309.044 7  -1095028.332 9
  26441616.847     8027618.305 7   6255279.975 7
  26703659.743    -6836058.195 7  -5326782.080 7
  28344984.776    18841862.594 5  14681938.222 3
 91 11  5 20 39 30.0170000  0  5 11 23 17 21  3
  30109967.601     -239303.671 5   -186470.096 2
  25778490.922    -1341960.907 7  -1045666.181 9
  26458190.575     8114722.516 7   6323153.292 7
  26701643.039    -6846651.412 7  -5335036.485 6
  28375187.665    19000553.572 5  14805593.659 2
 91 11  5 20 40  0.0170000  0  5 11 23 17 21  3
  30096467.345     -310261.935 5   -241762.469 2
  25790595.039    -1278343.147 7   -996093.935 9
  26474823.058     8202107.885 7   6391245.690 7
  26699678.197    -6856972.122 7  -5343078.528 7
  28405447.818    19159536.695 5  14929476.736 2
 91 11  5 20 40 30.0170000  0  5 11 23 17 21  3
  30082965.300     -381190.438 5   -297031.204 2
  25802749.526    -1214480.217 7   -946330.639 9
  26491499.612     8289751.317 7   6459539.191 7
  26697764.623    -6867043.078 7  -5350925.961 6
  28435746.343    19318786.302 5  15053567.463 3
 91 11  5 20 41  0.0170000  0  5 11 23 17 21  3
  30069484.832     -452056.448 5   -352251.703 2
  25814953.780    -1150343.451 7   -896353.967 9
  26508231.937     8377682.590 7   6528056.974 7
  26695895.121    -6876834.470 7  -5358555.562 6
  28466107.523    19478329.461 5  15177886.908 2
 91 11  5 20 41 30.0170000  0  5 11 23 17 21  3
  30056020.846     -522822.838 5   -407394.577 3
  25827217.087    -1085899.258 7   -846137.759 9
  26525030.502     8465936.822 7   6596826.405 6
  26694095.462    -6886312.105 7  -5365940.669 7
  28496515.470    19638197.545 5  15302459.549 2
 91 11  5 20 42  0.0170000  0  5 11 23 17 21  3
  30042570.358     -593475.662 5   -462448.485 1
  25839541.861    -1021137.954 7   -795674.432 9
  26541883.940     8554525.120 7   6665856.151 6
  26692356.068    -6895465.150 7  -5373072.853 7
  28527016.662    19798398.701 5  15427291.770 2
 91 11  5 20 42 30.0170000  0  5 11 23 17 21  3
  30029145.059     -664037.530 5   -517431.523 1
  25851918.489     -956086.653 7   -744985.137 9
  26558801.228     8643421.938 7   6735126.312 7
  26690670.333    -6904319.316 7  -5379972.131 7
  28557556.514    19958905.033 5  15552361.689 2
 91 11  5 20 43  0.0170000  0  5 11 23 17 21  3
  30015735.937     -734535.839 5   -572365.098 3
  25864348.786     -890776.051 7   -694093.781 9
  26575770.081     8732598.308 7   6804614.306 7
  26689035.868    -6912904.191 7  -5386661.586 7
  28588148.535    20119684.239 5  15677644.287 2
 91 11  5 20 43 30.0170000  0  5 11 23 17 21  3
  30002325.924     -804984.597 5   -627260.454 1
  25876821.346     -825224.390 7   -643014.613 9
  26592791.390     8822036.807 7   6874306.540 7
  26687448.761    -6921236.681 7  -5393154.370 7
  28618791.527    20280716.110 5  15803123.792 3
 91 11  5 20 44  0.0170000  0  5 11 23 17 21  3
  29988928.197     -875373.303 5   -682108.594 2
  25889345.175     -759425.404 7   -591742.724 9
  26609864.570     8911745.719 7   6944209.495 7
  26685911.432    -6929309.452 7  -5399444.771 7
  28649489.069    20442005.357 5  15928803.811 3
 91 11  5 20 44 30.0170000  0  5 11 23 17 21  3
  29975555.057     -945681.609 4   -736894.038 3
  25901914.881     -693362.801 7   -540265.413 9
  26626988.416     9001742.646 7   7014336.886 6
  26684429.551    -6937105.206 7  -5405519.316 7
  28680227.689    20603566.729 5  16054695.866 2
 91 11  5 20 45  0.0170000  0  5 11 23 17 21  3
  29962174.116    -1015905.922 4   -791614.508 3
  25914536.144     -627036.866 7   -488582.893 9
  26644170.424     9092028.566 7   7084689.452 6
  26682998.642    -6944623.062 7  -5411377.316 8
  28711027.166    20765398.700 5  16180798.778 1
 91 11  5 20 45 30.0170000  0  5 11 23 17 21  3
  29948838.451    -1086044.150 4   -846267.909 2
  25927208.065     -560449.325 7   -436696.533 9
  26661404.591     9182603.005 7   7155266.845 7
  26681621.994    -6951863.837 7  -5417019.409 7
  28741869.222    20927497.315 5  16307109.444 2
 91 11  5 20 46  0.0170000  0  5 11 23 17 21  3
  29935517.172    -1156073.545 4   -900836.499 2
  25939933.357     -493581.455 7   -384591.741 9
  26678698.123     9273486.171 7   7226084.797 6
  26680298.413    -6958807.354 7  -5422429.887 8
  28772773.025    21089879.865 5  16433641.382 2
 91 11  5 20 46 30.0170000  0  5 11 23 17 21  3
  29922207.586    -1225992.769 5   -955319.211 2
  25952705.415     -426436.673 7   -332271.169 9
  26696054.005     9364675.857 7   7297141.606 7
  26679036.587    -6965455.740 7  -5427610.377 7
  28803720.000    21252541.768 5  16560390.955 3
 91 11  5 20 47  0.0170000  0  5 11 23 17 21  3
  29908928.878    -1295789.700 5  -1009706.631 3
  25965541.630     -359006.462 7   -279728.181 9
  26713465.954     9456182.226 7   7368445.184 6
  26677826.022    -6971799.634 7  -5432553.605 7
  28834734.429    21415489.474 5  16687363.256 2
 91 11  5 20 47 30.0170000  0  5 11 23 17 21  3
  29895670.560    -1365455.728 5  -1063992.063 2
  25978429.104     -291285.899 7   -226958.941 9
  26730939.355     9548011.190 7   7440000.137 6
  26676679.316    -6977833.096 7  -5437254.948 7
  28865800.424    21578726.156 5  16814560.699 1
 91 11  5 20 48  0.0170000  0  5 11 23 17 21  3
  29882438.016    -1434998.961 5  -1118181.788 2
  25991366.050     -223287.461 7   -173973.183 9
  26748470.917     9640152.368 7   7511798.359 6
  26675588.372    -6983567.284 7  -5441723.093 7
  28896920.374    21742237.938 5  16941972.564 3
 91 11  5 20 48 30.0170000  0  5 11 23 17 21  3
  29869227.364    -1504417.476 5  -1172274.311 2
  26004359.360     -155013.289 7   -120772.570 9
  26766066.940     9732604.211 7   7583838.675 6
  26674552.588    -6989003.176 7  -5445958.791 7
  28928087.100    21906020.696 4  17069595.504 2
 91 11  5 20 49  0.0170000  0  5 11 23 17 21  3
  29856036.500    -1573722.397 5  -1226278.325 2
  26017399.428      -86479.263 7    -67369.462 9
  26783719.021     9825352.816 7   7656110.224 7
  26673577.069    -6994155.012 7  -5449973.158 7
  28959303.289    22070057.692 4  17197416.560 2
 91 11  5 20 49 30.0170000  0  5 11 23 17 21  3
  29842860.015    -1642925.702 5  -1280203.163 2
  26030488.365      -17700.847 7    -13775.931 9
  26801422.660     9918383.878 7   7728601.877 6
  26672646.213    -6999037.678 7  -5453777.790 8
  28990562.954    22234331.474 4  17325422.154 2
 91 11  5 20 50  0.0170000  0  5 11 23 17 21  3
  29829706.320    -1712048.122 5  -1334064.980 4
  26043616.582       51297.036 7     39988.614 9
  26819174.574    10011673.447 7   7801294.954 6
  26671763.319    -7003675.421 7  -5457391.562 7
  29021849.293    22398815.443 4  17453591.477 2
 91 11  5 20 50 30.0170000  0  5 11 23 17 21  3
  29816573.914    -1781091.195 5  -1387864.917 2
  26056787.361      120508.845 7     93919.852 9
  26836977.749    10105217.342 7   7874186.210 6
  26670928.099    -7008072.636 7  -5460817.924 8
  29053198.591    22563501.763 4  17581918.481 1
 91 11  5 20 51  0.0170000  0  5 11 23 17 21  3
  29803446.604    -1850081.633 5  -1441623.910 3
  26069994.122      189903.541 7    147993.609 9
  26854820.492    10198986.023 7   7947252.629 7
  26670125.259    -7012259.227 7  -5464080.153 8
  29084565.270    22728358.803 4  17710378.526 3
 91 11  5 20 51 30.0170000  0  5 11 23 17 21  3
  29790328.281    -1919013.128 5  -1495336.982 2
  26083237.154      259483.380 7    202211.630 9
  26872701.913    10292983.506 7   8020497.322 6
  26669371.278    -7016231.669 7  -5467175.532 7
  29115973.935    22893385.801 5  17838970.993 2
 91 11  5 20 52  0.0170000  0  5 11 23 17 21  3
  29777226.753    -1987886.697 5  -1549004.853 2
  26096510.758      329242.897 7    256569.659 9
  26890631.899    10387205.418 7   8093916.912 6
  26668654.476    -7019994.422 7  -5470107.493 8
  29147414.961    23058576.701 5  17967691.178 3
 91 11  5 20 52 30.0170000  0  5 11 23 17 21  3
  29764128.821    -2056700.011 5  -1602625.784 2
  26109821.243      399180.495 7    311066.446 9
  26908607.761    10481650.980 7   8167510.756 6
  26667978.742    -7023548.044 7  -5472876.505 8
  29178873.088    23223927.895 5  18096536.215 2
 91 11  5 20 53  0.0170000  0  5 11 23 17 21  3
  29751046.776    -2125449.946 5  -1656197.420 2
  26123161.707      469295.137 7    365701.187 9
  26926621.690    10576320.743 7   8241279.310 6
  26667342.882    -7026892.539 7  -5475482.558 8
  29210365.687    23389436.426 5  18225503.868 2
 91 11  5 20 53 30.0170000  0  5 11 23 17 21  3
  29737984.817    -2194080.314 4  -1709675.770 2
  26136548.345      539639.002 7    420514.538 9
  26944691.382    10671267.588 6   8315263.762 6
  26666760.089    -7029974.762 7  -5477884.247 7
  29241900.255    23555153.036 5  18354633.649 2
 91 11  5 20 54  0.0170000  0  5 11 23 17 21  3
  29724951.948    -2262577.422 5  -1763050.316 2
  26149979.647      610221.296 7    475513.677 9
  26962812.037    10766503.223 7   8389473.262 6
  26666224.655    -7032784.425 7  -5480073.543 8
  29273481.886    23721085.182 5  18483931.398 2
 91 11  5 20 54 30.0170000  0  5 11 23 17 21  3
  29711937.654    -2330961.118 5  -1816336.499 2
  26163450.517      681018.177 7    530680.023 9
  26980990.845    10862004.132 6   8463889.465 7
  26665732.698    -7035344.499 7  -5482068.353 8
  29305095.608    23887207.292 5  18613377.117 3
 91 11  5 20 55  0.0170000  0  5 11 23 17 21  3
  29698943.148    -2399251.339 5  -1869549.846 3
  26176961.270      752005.525 7    585994.807 9
  26999208.637    10957747.681 6   8538494.722 6
  26665290.807    -7037677.925 7  -5483886.551 7
  29336744.091    24053493.196 5  18742950.491 2
 91 11  5 20 55 30.0180000  0  5 11 23 17 21  3
  29685961.533    -2467441.158 5  -1922684.934 2
  26190507.092      823190.184 7    641463.326 9
  27017474.996    11053743.020 7   8613296.201 6
  26664888.478    -7039779.291 7  -5485523.920 8
  29368418.970    24219951.954 5  18872658.568 2
 91 11  5 20 56  0.0180000  0  5 11 23 17 21  3
  29673011.404    -2535497.660 5  -1975716.197 2
  26204090.987      894592.166 7    697101.184 9
  27035793.213    11150009.161 7   8688308.698 6
  26664539.526    -7041623.025 7  -5486960.540 8
  29400134.008    24386594.740 5  19002510.023 2
 91 11  5 20 56 30.0180000  0  5 11 23 17 21  3
  29660092.746    -2603390.660 5  -2028619.996 3
  26217727.948      966242.011 7    752932.185 9
  27054171.983    11246579.137 7   8763557.937 6
  26664243.029    -7043179.693 7  -5488173.466 8
  29431878.432    24553453.831 4  19132530.008 2
 91 11  5 20 57  0.0180000  0  5 11 23 17 21  3
  29647202.270    -2671129.296 5  -2081403.562 3
  26231405.978     1038126.162 7    808945.754 9
  27072599.326    11343440.810 6   8839034.460 6
  26663999.598    -7044461.846 7  -5489172.496 8
  29463666.028    24720513.934 4  19262706.603 2
 91 11  5 20 57 30.0180000  0  5 11 23 17 21  3
  29634341.774    -2738724.063 5  -2134074.991 3
  26245125.374     1110230.121 7    865130.620 9
  27091085.432    11440580.346 7   8914727.525 6
  26663802.332    -7045483.276 7  -5489968.358 8
  29495492.599    24887758.927 4  19393027.333 1
 91 11  5 20 58  0.0180000  0  5 11 23 17 21  3
  29621504.355    -2806183.665 6  -2186641.109 4
  26258885.848     1182541.105 7    921476.803 9
  27109621.603    11537986.724 6   8990628.500 6
  26663660.532    -7046255.683 7  -5490570.177 8
  29527355.736    25055173.692 4  19523480.296 2
 91 11  5 20 58 30.0180000  0  5 11 23 17 21  3
  29608688.828    -2873500.117 5  -2239095.695 2
  26272687.095     1255062.733 7    977987.120 9
  27128210.832    11635664.312 6   9066740.808 6
  26663561.005    -7046774.086 7  -5490974.093 8
  29559238.968    25222760.581 4  19654067.370 2
 91 11  5 20 59  0.0180000  0  5 11 23 17 21  3
  29595908.681    -2940662.921 5  -2291430.095 3
  26286528.817     1327801.174 7   1034666.384 9
  27146848.929    11733620.596 6   9143070.282 6
  26663512.135    -7047031.528 7  -5491174.643 8
  29591175.257    25390524.143 4  19784792.091 3
 91 11  5 20 59 30.0180000  0  5 11 23 17 21  3
  29583154.605    -3007669.868 5  -2343643.018 5
  26300412.201     1400754.407 7   1091513.026 9
  27165547.579    11831854.604 6   9219616.193 6
  26663509.439    -7047029.138 7  -5491172.743 8
  29623138.228    25558459.957 5  19915651.081 2
 91 11  5 21  0  0.0180000  0  5 11 23 17 21  3
  29570430.517    -3074528.085 5  -2395740.552 2
  26314333.662     1473910.989 7   1148518.122 9
  27184287.612    11930356.182 6   9296370.593 6
  26663556.206    -7046777.539 7  -5490976.643 8
  29655120.088    25726555.062 4  20046634.123 2
 91 11  5 21  0 30.0180000  0  5 11 23 17 21  3
  29557748.999    -3141209.779 5  -2447700.097 2
  26328296.201     1547294.467 7   1205700.014 9
  27203084.298    12029149.659 6   9373352.428 6
  26663656.632    -7046252.101 7  -5490567.171 8
  29687133.725    25894831.803 4  20177758.713 1
 91 11  5 21  1  0.0180000  0  5 11 23 17 21  3
  29545098.350    -3207662.591 5  -2499481.725 5
  26342315.994     1620953.317 7   1263096.488 9
  27221952.930    12128284.854 6   9450600.540 6
  26663821.222    -7045403.838 7  -5489906.155 9
  29719195.028    26063336.064 4  20309060.606 1
 91 11  5 21  1 30.0180000  0  5 11 23 17 21  3
  29532497.181    -3273907.606 5  -2551101.469 4
  26356381.061     1694862.169 7   1320687.767 9
  27240874.035    12227737.433 6   9528095.975 6
  26664038.573    -7044256.926 7  -5489012.419 8
  29751307.896    26232040.891 4  20440518.806 2
 91 11  5 21  2  0.0180000  0  5 11 23 17 21  3
  29519931.978    -3339956.465 5  -2602568.363 4
  26370487.494     1769004.727 7   1378461.160 9
  27259863.493    12327492.491 6   9605827.109 5
  26664310.779    -7042826.581 7  -5487897.826 8
  29783454.940    26400928.466 4  20572119.391 1
 91 11  5 21  2 30.0180000  0  5 11 23 17 21  3
  29507393.455    -3405818.739 5  -2653889.847 3
  26384638.591     1843367.299 7   1436405.977 9
  27278900.311    12427537.827 6   9683784.418 6
  26664636.357    -7041125.487 7  -5486572.256 8
  29815621.476    26569982.826 4  20703849.874 1
 91 11  5 21  3  0.0180000  0  5 11 23 17 21  3
  29494899.309    -3471505.266 5  -2705073.889 2
  26398830.470     1917934.853 7   1494510.515 9
  27297990.195    12527858.748 6   9761956.472 6
  26665004.801    -7039168.234 7  -5485047.086 8
  29847813.786    26739187.433 4  20835697.451 2
 91 11  5 21  3 30.0180000  0  5 11 23 17 21  3
  29482433.632    -3537013.480 5  -2756119.017 3
  26413055.922     1992705.531 7   1552773.342 9
  27317131.042    12628454.959 6   9840343.043 5
  26665426.607    -7036955.523 7  -5483322.853 8
  29880030.989    26908538.465 4  20967659.139 2
 91 11  5 21  4  0.0180000  0  5 11 23 17 21  3
  29470002.141    -3602329.648 6  -2807014.956 3
  26427324.546     2067688.797 7   1611201.819 9
  27336331.255    12729337.038 6   9918952.364 5
  26665900.581    -7034476.715 7  -5481391.266 8
  29912300.944    27078043.994 5  21099741.198 1
 91 11  5 21  4 30.0180000  0  5 11 23 17 21  3
  29457612.617    -3667447.033 6  -2857755.572 4
  26441634.536     2142887.338 7   1669798.043 9
  27355578.828    12830508.094 6   9997786.854 6
  26666423.416    -7031728.868 7  -5479250.046 8
  29944586.193    27247704.087 5  21231943.682 2
 91 11  5 21  5  0.0180000  0  5 11 23 17 21  3
  29445253.378    -3732355.143 5  -2908333.555 2
  26455990.403     2218307.410 7   1728566.878 9
  27374890.861    12931976.190 6  10076852.793 6
  26666996.621    -7028704.509 7  -5476893.360 8
  29976902.924    27417523.901 4  21364270.649 2
 91 11  5 21  5 30.0180000  0  5 11 23 17 21  3
  29432947.493    -3797009.553 5  -2958713.848 2
  26470391.832     2293988.992 7   1787539.486 9
  27394264.050    13033781.871 6  10156181.782 6
  26667634.880    -7025362.560 7  -5474289.181 9
  30009252.626    27587541.336 4  21496751.577 2
 91 11  5 21  6  0.0180000  0  5 11 23 17 21  3
  29420694.980    -3861424.323 5  -3008907.400 3
  26484837.026     2369913.604 7   1846701.470 9
  27413696.595    13135907.440 6  10235760.050 6
  26668324.705    -7021720.872 7  -5471451.451 8
  30041641.608    27757735.961 4  21629371.041 2
 91 11  5 21  6 30.0180000  0  5 11 23 17 21  3
  29408482.628    -3925613.922 6  -3058925.006 3
  26499325.401     2446062.843 7   1906038.489 9
  27433186.699    13238335.794 6  10315574.249 5
  26669073.886    -7017797.248 7  -5468394.026 9
  30074058.459    27928087.558 4  21762112.356 1
 91 11  5 21  7  0.0180000  0  5 11 23 17 21  3
  29396304.758    -3989573.424 6  -3108763.338 3
  26513865.935     2522437.454 7   1965551.120 9
  27452737.365    13341068.482 6  10395625.588 5
  26669875.828    -7013590.129 7  -5465115.700 9
  30106509.495    28098594.635 4  21894975.225 2
 91 11  5 21  7 30.0180000  0  5 11 23 17 21  3
  29384180.556    -4053306.540 6  -3158425.260 2
  26528439.440     2599028.827 7   2025232.659 9
  27472342.894    13444098.339 6  10475908.464 5
  26670727.539    -7009106.743 7  -5461622.113 8
  30138983.312    28269247.257 4  22027951.512 1
 91 11  5 21  8  0.0180000  0  5 11 23 17 21  3
  29372093.523    -4116824.066 6  -3207919.635 4
  26543050.726     2675821.917 7   2085071.379 9
  27492004.778    13547410.869 6  10556411.630 5
  26671630.212    -7004361.217 7  -5457924.250 8
  30171473.924    28440028.614 3  22161027.675 2
 91 11  5 21  8 30.0180000  0  4 11 23 17 21
  29360053.257    -4180115.337 6  -3257237.263 3
  26557705.183     2752823.592 7   2145072.646 9
  27511719.729    13651014.315 6  10637141.468 5
  26672584.451    -6999346.461 7  -5454016.590 8
 91 11  5 21  9  0.0180000  0  4 11 23 17 21
  29348048.964    -4243196.257 6  -3306391.453 3
  26572392.316     2830013.701 7   2205220.732 9
  27531483.252    13754889.056 6  10718082.687 6
  26673585.762    -6994081.772 7  -5449914.199 9
 91 11  5 21  9 30.0180000  0  4 11 23 17 21
  29336083.350    -4306068.708 6  -3355382.707 5
  26587117.822     2907386.007 7   2265510.802 9
  27551303.733    13859029.920 6  10799231.287 6
  26674636.230    -6988572.329 8  -5445621.077 9
 91 11  5 21 10  0.0180000  0  4 11 23 17 21
  29324156.711    -4368698.210 6  -3404184.683 4
  26601878.402     2984970.501 7   2325966.219 9
  27571180.273    13963468.010 6  10880611.495 6
  26675734.974    -6982787.128 7  -5441113.083 8
 91 11  5 21 10 30.0180000  0  4 11 23 17 21
  29312289.725    -4431073.915 6  -3452788.883 4
  26616688.446     3062773.627 7   2386592.001 9
  27591113.770    14068210.637 6  10962228.997 6
  26676890.371    -6976719.203 7  -5436384.794 9
 91 11  5 21 11  0.0180000  0  4 11 23 17 21
  29300471.007    -4493187.711 5  -3501189.477 5
  26631534.472     3140799.381 7   2447391.265 9
  27611101.834    14173262.998 6  11044087.845 6
  26678100.639    -6970363.447 7  -5431432.205 9
 91 11  5 21 11 30.0180000  0  4 11 23 17 21
  29288696.359    -4555056.791 5  -3549398.944 4
  26646421.566     3219026.319 7   2508347.276 9
  27631148.653    14278604.001 6  11126171.628 5
  26679360.667    -6963740.995 7  -5426271.824 9
 91 11  5 21 12  0.0180000  0  4 11 23 17 21
  29276970.572    -4616685.697 6  -3597421.208 4
  26661341.939     3297445.435 7   2569453.045 9
  27651241.941    14384225.854 6  11208474.239 5
  26680667.462    -6956859.971 7  -5420909.952 9
 91 11  5 21 12 30.0180000  0  4 11 23 17 21
  29265293.061    -4678079.809 6  -3645260.571 3
  26676299.184     3376047.220 7   2630701.156 9
  27671393.697    14490119.444 6  11290988.610 5
  26682029.713    -6949729.015 8  -5415353.313 8
 91 11  5 21 13  0.0180000  0  4 11 23 17 21
  29253654.219    -4739223.235 6  -3692904.548 4
  26691292.699     3454842.942 7   2692100.388 9
  27691599.104    14596297.294 6  11373724.479 5
  26683434.543    -6942335.767 8  -5409592.293 9
 91 11  5 21 13 30.0180000  0  4 11 23 17 21
  29242065.739    -4800123.391 6  -3740358.997 4
  26706322.501     3533821.328 7   2753641.952 9
  27711857.576    14702748.752 6  11456673.548 6
  26684888.835    -6934691.075 7  -5403635.355 9
 91 11  5 21 14  0.0190000  0  4 11 23 17 21
  29230519.230    -4860808.898 6  -3787646.672 4
  26721382.871     3612953.600 7   2815303.419 9
  27732166.422    14809447.721 6  11539815.473 5
  26686382.403    -6926824.575 7  -5397505.563 8
 91 11  5 21 14 30.0190000  0  4 11 23 17 21
  29219005.401    -4921298.470 6  -3834781.154 5
  26736463.934     3692207.823 7   2877059.908 9
  27752505.837    14916360.001 6  11623123.634 6
  26687920.936    -6918763.571 8  -5391224.208 9
 91 11  5 21 15  0.0190000  0  4 11 23 17 21
  29207533.244    -4981590.045 6  -3881761.371 2
  26751568.677     3771586.489 7   2938913.347 9
  27772895.326    15023490.222 6  11706601.630 5
  26689485.557    -6910507.544 8  -5384790.887 9
 91 11  5 21 15 30.0190000  0  4 11 23 17 21
  29196101.258    -5041649.488 6  -3928560.722 4
  26766703.094     3851119.222 7   3000886.847 9
  27793326.477    15130868.902 6  11790273.184 5
  26691106.534    -6902025.843 8  -5378181.717 9
 91 11  5 21 16  0.0190000  0  4 11 23 17 21
  29184723.838    -5101445.291 6  -3975154.671 4
  26781872.594     3930833.333 7   3063001.678 9
  27813815.799    15238523.984 6  11874160.139 6
  26692765.282    -6893290.075 8  -5371374.574 9
 91 11  5 21 16 30.0190000  0  4 11 23 17 21
  29173400.374    -5160951.388 6  -4021522.835 5
  26797079.272     4010750.838 7   3125274.997 9
  27834355.176    15346478.344 6  11958280.290 5
  26694478.597    -6884278.034 7  -5364352.150 9
 91 11  5 21 17  0.0190000  0  4 11 23 17 21
  29162133.877    -5220161.312 6  -4067660.204 4
  26812328.511     4090873.700 7   3187708.344 9
  27854957.811    15454734.932 6  12042635.940 5
  26696248.869    -6874986.671 7  -5357112.068 9
 91 11  5 21 17 30.0190000  0  4 11 23 17 21
  29150922.836    -5279069.455 6  -4113562.459 5
  26827614.632     4171202.988 7   3250302.524 9
  27875618.013    15563295.253 6  12127228.248 4
  26698070.410    -6865414.068 8  -5349652.847 9
 91 11  5 21 18  0.0190000  0  4 11 23 17 21
  29139766.057    -5337684.824 6  -4159236.543 4
  26842938.820     4251725.403 7   3313047.191 9
  27896331.570    15672146.763 6  12212047.450 5
  26699942.914    -6855572.669 7  -5341984.186 9
 91 11  5 21 18 30.0190000  0  4 11 23 17 21
  29128669.245    -5396018.380 6  -4204691.047 4
  26858293.589     4332426.194 7   3375930.863 9
  27917096.396    15781275.396 6  12297082.591 5
  26701867.577    -6845477.044 8  -5334117.412 9
 91 11  5 21 19  0.0190000  0  4 11 23 17 21
  29117617.097    -5454082.225 6  -4249935.379 4
  26873682.840     4413288.777 7   3438940.609 9
  27937910.684    15890665.463 6  12382321.446 4
  26703834.217    -6835142.991 8  -5326064.856 9
 91 11  5 21 19 30.0190000  0  4 11 23 17 21
  29106618.304    -5511882.601 6  -4294974.438 4
  26889099.366     4494302.570 7   3502068.178 9
  27958779.539    16000307.273 6  12467756.471 5
  26705839.832    -6824580.100 8  -5317833.989 9
 91 11  5 21 20  0.0190000  0  4 11 23 17 21
  29095674.984    -5569399.641 6  -4339792.693 3
  26904545.871     4575483.272 7   3565325.809 9
  27979693.058    16110216.422 6  12553399.796 4
  26707897.012    -6813772.279 8  -5309412.267 9
 91 11  5 21 20 30.0190000  0  4 11 23 17 21
  29084786.223    -5626597.826 6  -4384362.496 4
  26920029.851     4656862.264 7   3628737.946 9
  28000662.644    16220425.112 6  12639276.552 4
  26710004.850    -6802687.616 8  -5300774.822 9
 91 11  5 21 21  0.0190000  0  4 11 23 17 21
  29073958.014    -5683488.803 6  -4428692.928 6
  26935552.805     4738423.886 7   3692292.401 8
  28021693.088    16330918.488 6  12725375.151 4
  26712163.956    -6791341.050 8  -5291933.298 9
 91 11  5 21 21 30.0190000  0  4 11 23 17 21
  29063190.069    -5740088.528 6  -4472796.403 5
  26951103.637     4820147.278 7   3755972.914 9
  28042767.594    16441676.868 6  12811680.218 5
  26714370.126    -6779752.586 8  -5282903.265 8
 91 11  5 21 22  0.0190000  0  4 11 23 17 21
  29052470.697    -5796417.699 6  -4516689.062 4
  26966680.853     4902007.588 7   3819760.113 8
  28063890.376    16552675.331 6  12898172.364 4
  26716617.069    -6767946.293 8  -5273703.541 9
 91 11  5 21 22 30.0190000  0  4 11 23 17 21
  29041798.379    -5852508.346 6  -4560395.852 4
  26982279.053     4983968.870 7   3883626.009 8
  28085051.827    16663878.992 6  12984824.421 4
  26718896.093    -6755957.989 8  -5264361.959 9
 91 11  5 21 23  0.0190000  0  4 11 23 17 21
  29031178.831    -5908313.499 6  -4603880.216 4
  26997900.645     5066073.604 7   3947603.667 9
  28106260.045    16775330.886 6  13071669.908 4
  26721222.783    -6743744.143 8  -5254844.628 9
 91 11  5 21 23 30.0190000  0  4 11 23 17 21
  29020623.744    -5963790.801 6  -4647109.076 5
  27013563.297     5148359.818 7   4011722.754 8
  28127522.822    16887069.285 6  13158738.646 5
  26723597.435    -6731266.328 8  -5245121.618 9
 91 11  5 21 24  0.0190000  0  4 11 23 17 21
  29010130.405    -6018931.087 6  -4690075.339 6
  27029256.531     5230832.385 7   4075987.054 8
  28148841.360    16999099.753 6  13246034.950 5
  26726023.059    -6718518.753 8  -5235188.402 9
 91 11  5 21 24 30.0190000  0  4 11 23 17 21
  28999698.525    -6073762.629 6  -4732801.012 4
  27044977.048     5313459.047 7   4140371.417 8
  28170208.471    17111390.273 6  13333533.894 4
  26728493.652    -6705533.465 8  -5225069.964 9
 91 11  5 21 25  0.0190000  0  4 11 23 17 21
  28989313.717    -6128300.493 6  -4775297.866 5
  27060725.154     5396220.089 7   4204860.505 8
  28191621.747    17223922.126 6  13421220.908 5
  26731009.205    -6692329.288 8  -5214780.953 9
 91 11  5 21 25 30.0190000  0  4 11 23 17 21
  28978991.259    -6182552.833 6  -4817572.228 5
  27076497.228     5479103.637 7   4269445.028 8
  28213079.093    17336683.877 6  13509087.069 4
  26733559.241    -6678917.518 8  -5204330.183 9
 91 11  5 21 26  0.0190000  0  4 11 23 17 21
  28968722.774    -6236515.303 6  -4859620.736 5
  27092294.491     5562109.561 7   4334124.918 8
  28234581.103    17449676.444 6  13597133.068 5
  26736150.650    -6665297.554 8  -5193717.202 9
 91 11  5 21 26 30.0190000  0  4 11 23 17 21
  28958507.644    -6290179.989 6  -4901437.176 4
  27108113.646     5645242.111 7   4398903.471 8
  28256131.991    17562903.719 6  13685361.945 4
  26738783.722    -6651465.140 8  -5182938.671 9
 91 11  5 21 27  0.0190000  0  4 11 23 17 21
  28948362.663    -6343536.101 6  -4943013.169 4
  27123960.974     5728507.297 7   4463785.389 7
  28277721.540    17676372.561 6  13773779.081 4
  26741456.075    -6637413.066 8  -5171988.964 9
 91 11  5 21 27 30.0190000  0  4 11 23 17 21
  28938261.456    -6396565.694 6  -4984334.749 4
  27139830.184     5811918.863 7   4528781.364 8
  28299363.858    17790097.060 6  13862395.421 5
  26744174.592    -6623127.091 8  -5160857.002 9
 91 11  5 21 28  0.0190000  0  4 11 23 17 21
  28928244.795    -6449238.178 6  -5025378.080 5
  27155735.072     5895502.956 7   4593911.759 8
  28321055.037    17904103.967 6  13951231.822 4
  26746942.581    -6608580.579 8  -5149522.021 9
 91 11  5 21 28 30.0190000  0  4 11 23 17 21
  28918291.985    -6501546.229 6  -5066137.410 3
  27171679.537     5979263.273 7   4659179.466 8
  28342807.379    18018397.189 6  14040291.296 4
  26749762.126    -6593769.516 8  -5137980.914 9
 91 11  5 21 29  0.0190000  0  4 11 23 17 21
  28908407.824    -6553483.015 6  -5106607.468 5
  27187648.580     6063202.112 7   4724586.293 8
  28364609.786    18132979.897 6  14129576.360 4
  26752629.336    -6578690.525 8  -5126231.016 9
 91 11  5 21 29 30.0190000  0  4 11 23 17 21
  28898588.421    -6605055.459 6  -5146793.611 5
  27203653.605     6147308.743 7   4790123.868 8
  28386467.955    18247841.008 6  14219078.376 4
  26755550.215    -6563354.379 8  -5114280.744 9
 91 11  5 21 30  0.0190000  0  5 11 23 12 17 21
  28888845.170    -6656268.977 6  -5186700.094 4
  27219687.703     6231573.687 7   4855784.799 7
  30153825.737      -14712.11514    -11471.706 2
  28408380.987    18362971.844 6  14308790.555 5
  26758513.366    -6547769.965 8  -5102137.005 9
 91 11  5 21 30 30.0190000  0  5 11 23 12 17 21
  28879167.567    -6707127.729 6  -5226330.120 4
  27235752.984     6315988.207 7   4921562.282 8
  30150730.985      -30986.681 5    -24152.920 2
  28430341.388    18478364.408 6  14398706.663 4
  26761523.886    -6531945.180 8  -5089805.974 9
 91 11  5 21 31  0.0190000  0  5 11 23 12 17 21
  28869557.418    -6757626.525 6  -5265679.654 5
  27251842.844     6400552.998 7   4987456.851 7
  30147713.572      -46855.572 5    -36518.060 2
  28452345.555    18594019.901 6  14488827.674 4
  26764584.463    -6515878.327 8  -5077286.325 9
 91 11  5 21 31 30.0190000  0  5 11 23 12 17 21
  28860019.225    -6807763.834 6  -5304747.517 5
  27267964.481     6485265.703 7   5053466.691 8
  30144766.910      -62317.685 5    -48566.184 2
  28474407.280    18709935.726 6  14579151.551 5
  26767685.515    -6499571.932 8  -5064580.010 9
 91 11  5 21 32  0.0190000  0  5 11 23 12 17 21
  28850537.388    -6857568.322 6  -5343556.044 6
  27284109.204     6570094.030 7   5119566.619 7
  30141904.795      -77401.380 4    -60319.911 2
  28496504.980    18826079.663 6  14669653.170 3
  26770829.137    -6483058.132 8  -5051712.085 9
 91 11  5 21 32 30.0200000  0  5 11 23 12 17 21
  28841127.204    -6907034.533 6  -5382100.973 5
  27300273.117     6655043.590 7   5185761.021 9
  30139096.937      -92100.309 5    -71773.374 3
  28518650.950    18942458.945 6  14760338.163 4
  26774012.033    -6466332.588 8  -5038679.162 9
 91 11  5 21 33  0.0200000  0  5 11 23 12 17 21
  28831777.273    -6956167.821 6  -5420386.471 6
  27316455.612     6740095.941 7   5252035.529 8
  30136377.521     -106422.156 4    -82933.479 2
  28540834.993    19059053.349 6  14851190.765 5
  26777231.808    -6449408.816 8  -5025491.779 9
 91 11  5 21 33 30.0200000  0  5 11 23 12 17 21
  28822496.305    -7004944.068 6  -5458393.779 5
  27332665.093     6825275.261 7   5318408.976 9
  30133720.760     -120341.818 4    -93780.153 1
  28563070.296    19175888.738 5  14942231.166 3
  26780496.246    -6432263.901 8  -5012132.070 9
 91 11  5 21 34  0.0200000  0  5 11 23 12 17 21
  28813277.686    -7053368.436 6  -5496126.885 5
  27348901.246     6910572.170 7   5384874.040 9
  30131158.134     -133864.704 4   -104317.288 1
  28585352.068    19292956.009 6  15033452.250 3
  26783796.065    -6414906.613 8  -4998606.873 9
 91 11  5 21 34 30.0200000  0  5 11 23 12 17 21
  28804134.610    -7101428.985 6  -5533576.505 6
  27365151.797     6995995.181 7   5451437.377 8
  30128656.663     -146978.840 4   -114535.853 2
  28607672.223    19410263.654 6  15124860.646 3
  26787145.041    -6397328.584 7  -4984909.662 9
 91 11  5 21 35  0.0200000  0  5 11 23 12 17 21
  28795061.997    -7149095.756 6  -5570719.283 5
  27381438.626     7081569.823 7   5518118.863 8
  30126232.540     -159654.561 4   -124412.800 1
  28630048.131    19527837.756 6  15216476.652 4
  26790537.800    -6379503.730 8  -4971020.144 9
 91 11  5 21 35 30.0200000  0  5 11 23 12 17 21
  28786067.021    -7196362.303 6  -5607550.204 6
  27397750.034     7167298.259 7   5584920.205 8
  30123908.852     -171885.618 4   -133943.296 1
  28652472.307    19645680.600 6  15308302.082 4
  26793971.619    -6361429.271 7  -4956936.107 9
 91 11  5 21 36  0.0200000  0  5 11 23 12 17 21
  28777146.094    -7243239.159 6  -5644077.436 5
  27414092.922     7253166.184 7   5651830.234 8
  30121646.021     -183682.567 3   -143135.449 2
  28674945.352    19763777.701 6  15400325.634 2
  26797456.410    -6343118.938 8  -4942668.287 9
 91 11  5 21 36 30.0200000  0  5 11 23 12 17 21
  28768298.319    -7289728.147 6  -5680302.451 6
  27430457.692     7339167.948 7   5718844.538 8
  30119506.101     -195047.649 4   -151991.182 2
  28697465.460    19882123.765 6  15492543.173 2
  26800988.264    -6324578.425 8  -4928221.094 9
 91 11  5 21 37  0.0200000  0  5 11 23 12 17 21
  28759527.892    -7335830.402 6  -5716226.110 6
  27446849.144     7425298.023 7   5785958.839 8
  30117421.943     -205982.285 4   -160511.550 2
  28720035.030    20000713.775 6  15584950.823 4
  26804557.287    -6305812.474 7  -4913598.235 9
 91 11  5 21 37 30.0200000  0  5 11 23 12 17 21
  28750829.115    -7381539.108 6  -5751843.118 4
  27463262.182     7511559.176 7   5853175.280 8
  30115422.627     -216480.053 4   -168691.513 2
  28742651.080    20119550.246 6  15677550.471 4
  26808168.592    -6286818.042 8  -4898797.348 9
 91 11  5 21 38  0.0200000  0  5 11 23 12 17 21
  28742200.489    -7426868.271 6  -5787164.379 5
  27479697.399     7597933.512 7   5920479.919 7
  30113519.542     -226555.030 4   -176541.973 3
  28765308.495    20238615.758 6  15770328.654 4
  26811826.961    -6267612.175 8  -4883831.698 9
 91 11  5 21 38 30.0200000  0  5 11 23 12 17 21
  28733649.812    -7471826.567 6  -5822196.669 6
  27496153.609     7684408.141 7   5987862.683 8
  30111671.921     -236216.398 4   -184070.219 2
  28788010.277    20357897.707 6  15863275.442 3
  26815519.505    -6248207.206 8  -4868710.922 9
 91 11  5 21 39  0.0200000  0  5 11 23 12 17 21
  28725164.784    -7516408.655 6  -5856935.805 6
  27512628.106     7770984.446 7   6055324.664 8
  30109909.441     -245459.183 4   -191272.247 1
  28810745.633    20477397.364 5  15956391.893 4
  26819250.117    -6228601.686 8  -4853433.868 9
 91 11  5 21 39 30.0200000  0  5 11 23 12 17 21
  28716752.304    -7560587.230 6  -5891360.508 6
  27529129.582     7857685.858 7   6122884.157 7
  30108241.697     -254255.991 4   -198126.808 2
  28833531.360    20597138.538 6  16049696.529 4
  26823023.605    -6208771.620 8  -4837981.826 9
 91 11  5 21 40  0.0200000  0  5 11 23 12 17 21
  28708428.864    -7604354.322 6  -5925464.588 7
  27545651.439     7944516.798 7   6190544.576 8
  30106655.193     -262598.968 4   -204627.705 1
  28856362.352    20717125.163 6  16143192.430 5
  26826842.663    -6188712.593 8  -4822351.383 9
